[[{"header":{"parameterUnit":"m.s-1","parameterCategory":1,"la1":31.0,"la2":29.5877,"lo1":-88.7671,"lo2":-86.6584,"dy":0.0162,"dx":0.0185,"nx":115,"ny":88,"refTime":"2023-08-22T06:00:00:Z","depth":0,"parameterNumber":2,"parameterNumberName":"U-component_of_WINDS"},"data":[0.0,0.0,0.0,0.0,0.0,0.0,0.0,0.0,0.0,0.0,0.0,0.0,0.0,0.0,0.0,0.0,0.0,0.0,0.0,0.0,0.0,0.0,0.0,0.0,0.0,0.0,0.0,0.0,0.0,0.0,0.0,0.0,0.0,0.0,0.0,0.0,0.0,0.0,0.0,0.0,0.0,0.0,0.0,0.0,0.0,0.0,0.0,0.0,0.0,0.0,0.0,0.0,0.0,0.0,0.0,0.0,0.0,0.0,0.0,0.0,0.0,0.0,0.0,0.0,0.0,0.0,0.0,0.0,0.0,0.0,0.0,0.0,0.0,0.0,0.0,0.0,0.0,0.0,0.0,0.0,0.0,0.0,0.0,0.0,0.0,0.0,0.0,0.0,0.0,0.0,0.0,0.0,0.0,0.0,0.0,0.0,0.0,0.0,0.0,0.0,0.0,0.0,0.0,0.0,0.0,0.0,0.0,0.0,0.0,0.0,0.0,0.0,0.0,0.0,0.0,0.0,0.0,0.0,0.0,0.0,0.0,0.0,0.0,0.0,0.0,0.0,0.0,0.0,0.0,0.0,0.0,0.0,0.0,0.0,0.0,0.0,0.0,0.0,0.0,0.0,0.0,0.0,0.0,0.0,0.0,0.0,0.0,0.0,0.0,0.0,0.0,0.0,0.0,0.0,0.0,0.0,0.0,0.0,0.0,0.0,0.0,0.0,0.0,0.0,0.0,0.0,0.0,0.0,0.0,0.0,0.0,0.0,0.0,0.0,0.0,0.0,0.0,0.0,0.0,0.0,0.0,0.0,0.0,0.0,0.0,0.0,0.0,0.0,0.0,0.0,0.0,0.0,0.0,0.0,0.0,0.0,0.0,0.0,0.0,0.0,0.0,0.0,0.0,0.0,0.0,0.0,0.0,0.0,0.0,0.0,0.0,0.0,0.0,0.0,0.0,0.0,0.0,0.0,0.0,0.0,0.0,0.0,0.0,0.0,0.0,0.0,0.0,0.0,0.0,0.0,0.0,0.0,0.0,0.0,0.0,0.0,0.0,0.0,0.0,0.0,0.0,0.0,0.0,0.0,0.0,0.0,0.0,0.0,0.0,0.0,0.0,0.0,0.0,0.0,0.0,0.0,0.0,0.0,0.0,0.0,0.0,0.0,0.0,0.0,0.0,0.0,0.0,0.0,0.0,0.0,0.0,0.0,0.0,0.0,0.0,0.0,0.0,0.0,0.0,0.0,0.0,0.0,0.0,0.0,0.0,0.0,0.0,0.0,0.0,0.0,0.0,0.0,0.0,0.0,0.0,0.0,0.0,0.0,0.0,0.0,0.0,0.0,0.0,0.0,0.0,0.0,0.0,0.0,0.0,0.0,0.0,0.0,0.0,0.0,0.0,0.0,0.0,0.0,0.0,0.0,0.0,0.0,0.0,0.0,0.0,0.0,0.0,0.0,0.0,0.0,0.0,0.0,0.0,0.0,0.0,0.0,0.0,0.0,0.0,0.0,0.0,0.0,0.0,0.0,0.0,0.0,0.0,0.0,0.0,0.0,0.0,0.0,0.0,0.0,0.0,0.0,0.0,0.0,0.0,0.0,0.0,0.0,0.0,0.0,0.0,0.0,0.0,0.0,0.0,0.0,0.0,0.0,0.0,0.0,0.0,0.0,0.0,0.0,0.0,0.0,0.0,0.0,0.0,0.0,0.0,0.0,0.0,0.0,0.0,0.0,0.0,0.0,0.0,0.0,0.0,0.0,0.0,0.0,0.0,0.0,0.0,0.0,0.0,0.0,0.0,0.0,0.0,0.0,0.0,0.0,0.0,0.0,0.0,0.0,0.0,0.0,0.0,0.0,0.0,0.0,0.0,0.0,0.0,0.0,0.0,0.0,0.0,0.0,0.0,0.0,0.0,0.0,0.0,0.0,0.0,0.0,0.0,0.0,0.0,0.0,0.0,0.0,0.0,0.0,0.0,0.0,0.0,0.0,0.0,0.0,0.0,0.0,0.0,0.0,0.0,0.0,0.0,0.0,0.0,0.0,0.0,0.0,0.0,0.0,0.0,0.0,0.0,0.0,0.0,0.0,0.0,0.0,0.0,0.0,0.0,0.0,0.0,0.0,0.0,0.0,0.0,0.0,0.0,0.0,0.0,0.0,0.0,0.0,0.0,0.0,0.0,0.0,0.0,0.0,0.0,0.0,0.0,0.0,0.0,0.0,0.0,0.0,0.0,0.0,0.0,0.0,0.0,0.0,0.0,0.0,0.0,0.0,0.0,0.0,0.0,0.0,0.0,0.0,0.0,0.0,0.0,0.0,0.0,0.0,0.0,0.0,0.0,0.0,0.0,0.0,0.0,0.0,0.0,0.0,0.0,0.0,0.0,0.0,0.0,0.0,0.0,0.0,0.0,0.0,0.0,0.0,0.0,0.0,0.0,0.0,0.0,0.0,0.0,0.0,0.0,0.0,0.0,0.0,0.0,0.0,0.0,0.0,0.0,0.0,0.0,0.0,0.0,0.0,0.0,0.0,0.0,0.0,0.0,0.0,0.0,0.0,0.0,0.0,0.0,0.0,0.0,0.0,0.0,0.0,0.0,0.0,0.0,0.0,0.0,0.0,0.0,0.0,0.0,0.0,0.0,0.0,0.0,0.0,0.0,0.0,0.0,0.0,0.0,0.0,0.0,0.0,0.0,0.0,0.0,0.0,0.0,0.0,0.0,0.0,0.0,0.0,0.0,0.0,0.0,0.0,0.0,0.0,0.0,0.0,0.0,0.0,0.0,0.0,0.0,0.0,0.0,0.0,0.0,0.0,0.0,0.0,0.0,0.0,0.0,0.0,0.0,0.0,0.0,0.0,0.0,0.0,0.0,0.0,0.0,0.0,0.0,0.0,0.0,0.0,0.0,0.0,0.0,0.0,0.0,0.0,0.0,0.0,0.0,0.0,0.0,0.0,0.0,0.0,0.0,0.0,0.0,0.0,0.0,0.0,0.0,0.0,0.0,0.0,0.0,0.0,0.0,0.0,0.0,0.0,0.0,0.0,0.0,0.0,0.0,0.0,0.0,0.0,0.0,0.0,0.0,0.0,0.0,0.0,0.0,0.0,0.0,0.0,0.0,0.0,0.0,0.0,0.0,0.0,0.0,0.0,0.0,0.0,0.0,0.0,0.0,0.0,0.0,0.0,0.0,0.0,0.0,0.0,0.0,0.0,0.0,0.0,0.0,0.0,0.0,0.0,0.0,0.0,0.0,0.0,0.0,0.0,0.0,0.0,0.0,0.0,0.0,0.0,0.0,0.0,0.0,0.0,0.0,0.0,0.0,0.0,0.0,0.0,0.0,0.0,0.0,0.0,0.0,0.0,0.0,0.0,0.0,0.0,0.0,0.0,0.0,0.0,0.0,0.0,0.0,0.0,0.0,0.0,0.0,0.0,0.0,0.0,0.0,0.0,0.0,0.0,0.0,0.0,0.0,0.0,0.0,0.0,0.0,0.0,0.0,0.0,0.0,0.0,0.0,0.0,0.0,0.0,0.0,0.0,0.0,0.0,0.0,0.0,0.0,0.0,0.0,0.0,0.0,0.0,0.0,0.0,0.0,0.0,0.0,0.0,0.0,0.0,0.0,0.0,0.0,0.0,0.0,0.0,0.0,0.0,0.0,0.0,0.0,0.0,0.0,0.0,0.0,0.0,0.0,0.0,0.0,0.0,0.0,0.0,0.0,0.0,0.0,0.0,0.0,0.0,0.0,0.0,0.0,0.0,0.0,0.0,0.0,0.0,0.0,0.0,0.0,0.0,0.0,0.0,0.0,0.0,0.0,0.0,0.0,0.0,0.0,0.0,0.0,0.0,0.0,0.0,0.0,0.0,0.0,0.0,0.0,0.0,0.0,0.0,0.0,0.0,0.0,0.0,0.0,0.0,0.0,0.0,0.0,0.0,0.0,0.0,0.0,0.0,0.0,0.0,0.0,0.0,0.0,0.0,0.0,0.0,0.0,0.0,0.0,0.0,0.0,0.0,0.0,0.0,0.0,0.0,0.0,0.0,0.0,0.0,0.0,0.0,0.0,0.0,0.0,0.0,0.0,0.0,0.0,0.0,0.0,0.0,0.0,0.0,0.0,0.0,0.0,0.0,0.0,0.0,0.0,0.0,0.0,0.0,0.0,0.0,0.0,0.0,0.0,0.0,0.0,0.0,0.0,0.0,0.0,0.0,0.0,0.0,0.0,0.0,0.0,0.0,0.0,0.0,0.0,0.0,0.0,0.0,0.0,0.0,0.0,0.0,1.7596,0.0,0.0,0.0,0.0,0.0,0.0,0.0,0.0,0.0,0.0,0.0,0.0,0.0,0.0,0.0,0.0,0.0,0.0,0.0,0.0,0.0,0.0,0.0,0.0,0.0,0.0,0.0,0.0,0.0,0.0,0.0,0.0,0.0,0.0,0.0,0.0,0.0,0.0,0.0,0.0,0.0,0.0,0.0,0.0,0.0,0.0,0.0,0.0,0.0,0.0,0.0,0.0,0.0,0.0,0.0,0.0,0.0,0.0,0.0,0.0,0.0,0.0,0.0,0.0,0.0,0.0,0.0,0.0,0.0,0.0,0.0,0.0,0.0,0.0,0.0,0.0,0.0,0.0,0.0,0.0,0.0,0.0,0.0,0.0,0.0,0.0,0.0,0.0,0.0,0.0,0.0,0.0,0.0,0.0,0.0,0.0,0.0,0.0,0.0,0.0,0.0,0.0,0.0,0.0,0.0,0.0,0.0,0.0,0.0,0.0,1.6812,1.7089,1.7248,1.7344,1.7392,0.0,0.0,0.0,0.0,0.0,0.0,0.0,0.0,0.0,0.0,0.0,0.0,0.0,0.0,0.0,0.0,0.0,0.0,0.0,0.0,0.0,0.0,0.0,0.0,0.0,0.0,0.0,0.0,0.0,0.0,0.0,0.0,0.0,0.0,0.0,0.0,0.0,0.0,0.0,0.0,0.0,0.0,0.0,0.0,0.0,0.0,0.0,0.0,0.0,0.0,0.0,0.0,0.0,0.0,0.0,0.0,0.0,0.0,0.0,0.0,0.0,0.0,0.0,0.0,0.0,0.0,0.0,0.0,0.0,0.0,0.0,0.0,0.0,0.0,0.0,0.0,0.0,0.0,0.0,0.0,0.0,0.0,0.0,0.0,0.0,0.0,0.0,0.0,0.0,0.0,0.0,0.0,0.0,0.0,0.0,0.0,0.0,0.0,0.0,0.0,0.0,0.0,0.0,0.0,0.0,0.0,0.0,0.0,0.0,0.0,0.0,0.0,1.7159,1.7254,1.7247,0.0,0.0,0.0,0.0,0.0,0.0,0.0,0.0,0.0,0.0,0.0,0.0,0.0,0.0,0.0,0.0,0.0,0.0,0.0,0.0,0.0,0.0,0.0,0.0,0.0,0.0,0.0,0.0,0.0,0.0,0.0,0.0,0.0,0.0,0.0,0.0,0.0,0.0,0.0,0.0,0.0,0.0,0.0,0.0,0.0,0.0,0.0,0.0,0.0,0.0,0.0,0.0,0.0,0.0,0.0,0.0,0.0,0.0,0.0,0.0,0.0,0.0,0.0,0.0,0.0,0.0,0.0,0.0,0.0,0.0,0.0,0.0,0.0,0.0,0.0,0.0,0.0,0.0,0.0,0.0,0.0,0.0,0.0,0.0,0.0,0.0,0.0,0.0,0.0,0.0,0.0,0.0,0.0,0.0,0.0,0.0,0.0,0.0,0.0,0.0,0.0,0.0,0.0,0.0,0.0,0.0,0.0,0.0,0.0,0.0,1.6248,1.7216,1.7281,0.0,1.7135,0.0,0.0,0.0,0.0,0.0,0.0,0.0,0.0,0.0,0.0,0.0,0.0,0.0,0.0,0.0,0.0,0.0,0.0,0.0,0.0,0.0,0.0,0.0,0.0,0.0,0.0,0.0,0.0,0.0,0.0,0.0,0.0,0.0,0.0,0.0,0.0,0.0,0.0,0.0,0.0,0.0,0.0,0.0,0.0,0.0,0.0,0.0,0.0,0.0,0.0,0.0,0.0,0.0,0.0,0.0,0.0,0.0,0.0,0.0,0.0,0.0,0.0,0.0,0.0,0.0,0.0,0.0,0.0,0.0,0.0,0.0,0.0,0.0,0.0,0.0,0.0,0.0,0.0,0.0,0.0,0.0,0.0,0.0,0.0,0.0,0.0,0.0,0.0,0.0,0.0,0.0,0.0,0.0,0.0,0.0,0.0,0.0,0.0,0.0,0.0,0.0,0.0,0.0,0.0,0.0,0.0,0.0,0.0,0.0,0.0,1.6443,1.6864,1.6887,1.6757,0.0,0.0,0.0,0.0,0.0,0.0,0.0,0.0,0.0,0.0,0.0,0.0,0.0,0.0,0.0,0.0,0.0,0.0,0.0,0.0,0.0,0.0,0.0,0.0,0.0,0.0,0.0,0.0,0.0,0.0,0.0,0.0,0.0,0.0,0.0,0.0,0.0,0.0,0.0,0.0,0.0,0.0,0.0,0.0,0.0,0.0,0.0,0.0,0.0,0.0,0.0,0.0,0.0,0.0,0.0,0.0,0.0,0.0,0.0,0.0,0.0,0.0,0.0,0.0,0.0,0.0,0.0,0.0,0.0,0.0,0.0,0.0,0.0,0.0,0.0,0.0,0.0,0.0,0.0,0.0,0.0,0.0,0.0,0.0,0.0,0.0,0.0,0.0,0.0,0.0,0.0,0.0,0.0,0.0,0.0,0.0,0.0,0.0,0.0,0.0,0.0,0.0,0.0,0.0,0.0,0.0,0.0,0.0,0.0,0.0,1.605,1.6615,1.6864,1.6856,1.6562,1.5904,0.0,0.0,0.0,0.0,0.0,0.0,0.0,0.0,0.0,0.0,0.0,0.0,0.0,0.0,0.0,0.0,0.0,0.0,0.0,0.0,0.0,0.0,0.0,0.0,0.0,0.0,0.0,0.0,0.0,0.0,0.0,0.0,0.0,0.0,0.0,0.0,0.0,0.0,0.0,0.0,0.0,0.0,0.0,0.0,0.0,0.0,0.0,0.0,0.0,0.0,0.0,0.0,0.0,0.0,0.0,0.0,0.0,0.0,0.0,0.0,0.0,0.0,0.0,0.0,0.0,0.0,0.0,0.0,0.0,0.0,0.0,0.0,0.0,0.0,0.0,0.0,0.0,0.0,0.0,0.0,0.0,0.0,0.0,0.0,0.0,0.0,0.0,0.0,0.0,0.0,0.0,0.0,0.0,0.0,0.0,0.0,0.0,0.0,0.0,0.0,0.0,0.0,0.0,0.0,0.0,0.0,0.0,0.0,1.6043,1.6169,1.6655,1.7517,1.7484,1.6796,0.0,0.0,0.0,0.0,0.0,0.0,0.0,0.0,0.0,0.0,0.0,0.0,0.0,0.0,0.0,0.0,0.0,0.0,0.0,0.0,0.0,0.0,0.0,0.0,0.0,0.0,0.0,0.0,0.0,0.0,0.0,0.0,0.0,0.0,0.0,0.0,0.0,0.0,0.0,0.0,0.0,0.0,0.0,0.0,0.0,0.0,0.0,0.0,0.0,0.0,0.0,0.0,0.0,0.0,0.0,0.0,0.0,0.0,0.0,0.0,0.0,0.0,0.0,0.0,0.0,0.0,0.0,0.0,0.0,0.0,0.0,0.0,0.0,0.0,0.0,0.0,0.0,0.0,0.0,0.0,0.0,0.0,0.0,0.0,0.0,0.0,0.0,0.0,0.0,0.0,0.0,0.0,0.0,0.0,0.0,0.0,0.0,0.0,0.0,0.0,0.0,0.0,0.0,0.0,0.0,0.0,0.0,0.0,0.0,1.5008,1.5766,1.6794,1.7923,1.6613,1.5795,0.0,0.0,0.0,0.0,0.0,0.0,0.0,0.0,0.0,0.0,0.0,0.0,0.0,0.0,0.0,0.0,0.0,0.0,0.0,0.0,0.0,0.0,0.0,0.0,0.0,0.0,0.0,0.0,0.0,0.0,0.0,0.0,0.0,0.0,0.0,0.0,0.0,0.0,0.0,0.0,0.0,0.0,0.0,0.0,0.0,0.0,0.0,0.0,0.0,0.0,0.0,0.0,0.0,0.0,0.0,0.0,0.0,0.0,0.0,0.0,0.0,0.0,0.0,0.0,0.0,0.0,0.0,0.0,0.0,0.0,0.0,0.0,0.0,0.0,0.0,0.0,0.0,0.0,0.0,0.0,0.0,0.0,0.0,0.0,0.0,0.0,0.0,0.0,0.0,0.0,0.0,0.0,0.0,0.0,0.0,0.0,0.0,0.0,0.0,0.0,0.0,0.0,0.0,0.0,0.0,0.0,0.0,0.0,0.0,1.5087,0.0,1.7185,1.7783,1.6141,1.5168,0.0,0.0,0.0,0.0,0.0,0.0,0.0,0.0,0.0,0.0,0.0,0.0,0.0,0.0,0.0,0.0,0.0,0.0,0.0,0.0,0.0,0.0,0.0,0.0,0.0,0.0,0.0,0.0,0.0,0.0,0.0,0.0,0.0,0.0,0.0,0.0,0.0,0.0,0.0,0.0,0.0,0.0,0.0,0.0,0.0,0.0,0.0,0.0,0.0,0.0,0.0,0.0,0.0,0.0,0.0,0.0,0.0,0.0,0.0,0.0,0.0,0.0,0.0,0.0,0.0,0.0,0.0,0.0,0.0,0.0,0.0,0.0,0.0,0.0,0.0,0.0,0.0,0.0,0.0,0.0,0.0,0.0,0.0,0.0,0.0,0.0,0.0,0.0,0.0,0.0,0.0,0.0,0.0,0.0,0.0,0.0,0.0,0.0,0.0,0.0,0.0,0.0,0.0,0.0,0.0,0.0,0.0,0.0,1.4666,1.6568,1.7564,1.7718,1.7039,1.6114,1.5069,0.0,0.0,0.0,0.0,0.0,0.0,0.0,0.0,0.0,0.0,0.0,0.0,0.0,0.0,0.0,0.0,0.0,0.0,0.0,0.0,0.0,0.0,0.0,0.0,0.0,0.0,0.0,0.0,0.0,0.0,0.0,0.0,0.0,0.0,0.0,0.0,0.0,0.0,0.0,0.0,0.0,0.0,0.0,0.0,0.0,0.0,0.0,0.0,0.0,0.0,0.0,0.0,0.0,0.0,0.0,0.0,0.0,0.0,0.0,0.0,0.0,0.0,0.0,0.0,0.0,0.0,0.0,0.0,0.0,0.0,0.0,0.0,0.0,0.0,0.0,0.0,0.0,0.0,0.0,0.0,0.0,0.0,0.0,0.0,0.0,0.0,0.0,0.0,0.0,0.0,0.0,0.0,0.0,0.0,0.0,0.0,0.0,0.0,0.0,0.0,0.0,0.0,0.0,0.0,0.0,0.0,0.0,0.0,0.0,1.5736,1.6475,1.6948,1.7006,1.55,1.4853,0.0,0.0,0.0,0.0,0.0,0.0,0.0,0.0,0.0,0.0,0.0,0.0,0.0,0.0,0.0,0.0,0.0,0.0,0.0,0.0,0.0,0.0,0.0,0.0,0.0,0.0,0.0,0.0,0.0,0.0,0.0,0.0,0.0,0.0,0.0,0.0,0.0,0.0,0.0,0.0,0.0,0.0,0.0,0.0,0.0,0.0,0.0,0.0,0.0,0.0,0.0,0.0,0.0,0.0,0.0,0.0,0.0,0.0,0.0,0.0,0.0,0.0,0.0,0.0,0.0,0.0,0.0,0.0,0.0,0.0,0.0,0.0,0.0,0.0,0.0,0.0,0.0,0.0,0.0,0.0,0.0,0.0,0.0,0.0,0.0,0.0,0.0,0.0,0.0,0.0,0.0,0.0,0.0,0.0,0.0,0.0,0.0,0.0,0.0,0.0,0.0,0.0,0.0,0.0,0.0,0.0,0.0,0.0,0.0,1.5936,1.6793,1.7218,1.7207,1.5814,1.5177,1.5416,0.0,0.0,0.0,0.0,0.0,0.0,0.0,0.0,0.0,0.0,0.0,0.0,0.0,0.0,0.0,0.0,0.0,0.0,0.0,0.0,0.0,0.0,0.0,0.0,0.0,0.0,0.0,0.0,0.0,0.0,0.0,0.0,0.0,0.0,0.0,0.0,0.0,0.0,0.0,0.0,0.0,0.0,0.0,0.0,0.0,0.0,0.0,0.0,0.0,0.0,0.0,0.0,0.0,0.0,0.0,0.0,0.0,0.0,0.0,0.0,0.0,0.0,0.0,0.0,0.0,0.0,0.0,0.0,0.0,0.0,0.0,0.0,0.0,0.0,0.0,0.0,0.0,0.0,0.0,0.0,0.0,0.0,0.0,0.0,0.0,0.0,0.0,0.0,0.0,0.0,0.0,0.0,0.0,0.0,0.0,0.0,0.0,0.0,0.0,0.0,0.0,0.0,0.0,0.0,0.0,0.0,0.0,0.0,1.7047,1.8219,1.8342,1.7441,1.6801,1.5935,0.0,0.0,0.0,0.0,0.0,0.0,0.0,0.0,0.0,0.0,0.0,0.0,0.0,0.0,0.0,0.0,0.0,0.0,0.0,0.0,0.0,0.0,0.0,0.0,0.0,0.0,0.0,0.0,0.0,0.0,0.0,0.0,0.0,0.0,0.0,0.0,0.0,0.0,0.0,0.0,0.0,0.0,0.0,0.0,0.0,0.0,0.0,0.0,0.0,0.0,0.0,0.0,0.0,0.0,0.0,0.0,0.0,0.0,0.0,0.0,0.0,0.0,0.0,0.0,0.0,0.0,0.0,0.0,0.0,0.0,0.0,0.0,0.0,0.0,0.0,0.0,0.0,0.0,0.0,0.0,0.0,0.0,0.0,0.0,0.0,0.0,0.0,0.0,0.0,0.0,0.0,0.0,0.0,0.0,0.0,0.0,0.0,0.0,0.0,0.0,0.0,0.0,0.0,0.0,0.0,0.0,0.0,0.0,0.0,1.7771,1.8614,1.8607,1.7702,1.6735,1.5941,0.0,0.0,0.0,0.0,0.0,0.0,0.0,0.0,0.0,0.0,0.0,0.0,0.0,0.0,0.0,0.0,0.0,0.0,0.0,0.0,0.0,0.0,0.0,0.0,0.0,0.0,0.0,0.0,0.0,0.0,0.0,0.0,0.0,0.0,0.0,0.0,0.0,0.0,0.0,0.0,0.0,0.0,0.0,0.0,0.0,0.0,0.0,0.0,0.0,0.0,0.0,0.0,0.0,0.0,0.0,0.0,0.0,0.0,0.0,0.0,0.0,0.0,0.0,0.0,0.0,0.0,0.0,0.0,0.0,0.0,0.0,0.0,0.0,0.0,0.0,0.0,0.0,0.0,0.0,0.0,0.0,0.0,0.0,0.0,0.0,0.0,0.0,0.0,0.0,0.0,0.0,0.0,0.0,0.0,0.0,0.0,0.0,0.0,0.0,0.0,0.0,0.0,0.0,0.0,0.0,0.0,0.0,0.0,1.7032,1.8702,1.9209,1.9091,1.8375,1.7444,1.6463,0.0,0.0,0.0,0.0,0.0,0.0,0.0,0.0,0.0,0.0,0.0,0.0,0.0,0.0,0.0,0.0,0.0,0.0,0.0,0.0,0.0,0.0,0.0,0.0,0.0,0.0,0.0,0.0,0.0,0.0,0.0,0.0,0.0,0.0,0.0,0.0,0.0,0.0,0.0,0.0,0.0,0.0,0.0,0.0,0.0,0.0,0.0,0.0,0.0,0.0,0.0,0.0,0.0,0.0,0.0,0.0,0.0,0.0,0.0,0.0,0.0,0.0,0.0,0.0,0.0,0.0,0.0,0.0,0.0,0.0,0.0,0.0,0.0,0.0,0.0,0.0,0.0,0.0,0.0,0.0,0.0,0.0,0.0,0.0,0.0,0.0,0.0,0.0,0.0,0.0,0.0,0.0,0.0,0.0,0.0,0.0,0.0,0.0,0.0,0.0,0.0,0.0,0.0,0.0,0.0,0.0,0.0,0.0,1.7677,1.9438,1.9783,1.9664,1.9069,1.8393,1.7169,0.0,0.0,0.0,0.0,0.0,0.0,0.0,0.0,0.0,0.0,0.0,0.0,0.0,0.0,0.0,0.0,0.0,0.0,0.0,0.0,0.0,0.0,0.0,0.0,0.0,0.0,0.0,0.0,0.0,0.0,0.0,0.0,0.0,0.0,0.0,0.0,0.0,0.0,0.0,0.0,0.0,0.0,0.0,0.0,0.0,0.0,0.0,0.0,0.0,0.0,0.0,0.0,0.0,0.0,0.0,0.0,0.0,0.0,0.0,0.0,0.0,0.0,0.0,0.0,0.0,0.0,0.0,0.0,0.0,0.0,0.0,0.0,0.0,0.0,0.0,0.0,0.0,0.0,0.0,0.0,0.0,0.0,0.0,0.0,0.0,0.0,0.0,0.0,0.0,0.0,0.0,0.0,0.0,0.0,0.0,0.0,0.0,0.0,0.0,0.0,0.0,0.0,0.0,0.0,0.0,0.0,0.0,0.0,1.7928,1.8559,1.97,1.9832,1.8885,1.7881,1.6793,0.0,0.0,0.0,0.0,0.0,0.0,0.0,0.0,0.0,0.0,0.0,0.0,0.0,0.0,0.0,0.0,0.0,0.0,0.0,0.0,0.0,0.0,0.0,0.0,0.0,0.0,0.0,0.0,0.0,0.0,0.0,0.0,0.0,0.0,0.0,0.0,0.0,0.0,0.0,0.0,0.0,0.0,0.0,0.0,0.0,0.0,0.0,0.0,1.7066,0.0,0.0,0.0,0.0,0.0,0.0,0.0,0.0,0.0,0.0,0.0,0.0,0.0,0.0,0.0,0.0,0.0,0.0,0.0,0.0,0.0,0.0,0.0,0.0,0.0,0.0,0.0,0.0,0.0,0.0,0.0,0.0,0.0,0.0,0.0,0.0,0.0,0.0,0.0,0.0,0.0,0.0,0.0,0.0,0.0,0.0,0.0,0.0,0.0,0.0,0.0,0.0,0.0,0.0,0.0,0.0,0.0,0.0,0.0,1.8541,1.871,2.0355,2.0629,1.9313,1.8195,1.7048,0.0,0.0,0.0,0.0,0.0,0.0,0.0,0.0,0.0,0.0,0.0,0.0,0.0,0.0,0.0,0.0,0.0,0.0,0.0,0.0,0.0,0.0,0.0,0.0,0.0,0.0,0.0,0.0,0.0,0.0,0.0,0.0,0.0,0.0,0.0,0.0,0.0,0.0,0.0,0.0,0.0,0.0,0.0,0.0,0.0,0.0,0.0,0.0,0.0,0.0,0.0,0.0,0.0,0.0,0.0,0.0,0.0,0.0,0.0,0.0,0.0,0.0,0.0,0.0,0.0,0.0,0.0,0.0,0.0,0.0,0.0,0.0,0.0,0.0,0.0,0.0,0.0,0.0,0.0,0.0,0.0,0.0,0.0,0.0,0.0,0.0,0.0,0.0,0.0,0.0,0.0,0.0,0.0,0.0,0.0,0.0,0.0,0.0,0.0,0.0,0.0,0.0,0.0,0.0,0.0,0.0,0.0,1.7491,1.9047,1.9118,2.0948,2.1264,1.9932,1.8788,1.7578,1.6256,0.0,0.0,0.0,0.0,0.0,0.0,0.0,0.0,0.0,0.0,0.0,0.0,0.0,0.0,0.0,0.0,0.0,0.0,0.0,0.0,0.0,0.0,0.0,0.0,0.0,0.0,0.0,0.0,0.0,0.0,0.0,0.0,0.0,0.0,0.0,0.0,0.0,0.0,1.6895,1.729,0.0,0.0,0.0,0.0,0.0,0.0,0.0,0.0,1.7121,0.0,0.0,0.0,0.0,0.0,0.0,0.0,0.0,0.0,0.0,0.0,0.0,0.0,0.0,0.0,0.0,0.0,0.0,0.0,0.0,0.0,0.0,0.0,0.0,0.0,0.0,0.0,0.0,0.0,0.0,0.0,0.0,0.0,0.0,0.0,0.0,0.0,0.0,0.0,0.0,0.0,0.0,0.0,0.0,0.0,0.0,0.0,0.0,0.0,0.0,0.0,0.0,0.0,0.0,0.0,0.0,1.5516,1.7704,1.8866,1.8856,2.0069,2.0559,2.0278,1.9223,1.8085,1.6797,0.0,0.0,0.0,0.0,0.0,0.0,0.0,0.0,0.0,0.0,0.0,0.0,0.0,0.0,0.0,0.0,0.0,0.0,0.0,0.0,0.0,0.0,0.0,0.0,0.0,0.0,0.0,0.0,0.0,0.0,0.0,0.0,0.0,0.0,0.0,0.0,0.0,0.0,0.0,1.7555,1.7669,0.0,0.0,0.0,0.0,0.0,0.0,0.0,0.0,1.6713,0.0,0.0,0.0,0.0,0.0,0.0,0.0,0.0,0.0,0.0,0.0,0.0,0.0,0.0,0.0,0.0,0.0,0.0,0.0,0.0,0.0,0.0,0.0,0.0,0.0,0.0,0.0,0.0,0.0,0.0,0.0,0.0,0.0,0.0,0.0,0.0,0.0,0.0,0.0,0.0,0.0,0.0,0.0,0.0,0.0,0.0,0.0,0.0,0.0,0.0,0.0,0.0,0.0,0.0,0.0,1.5437,1.7744,1.8756,1.8462,2.0063,2.0647,2.0031,1.9045,1.801,0.0,0.0,0.0,0.0,0.0,0.0,0.0,0.0,0.0,0.0,0.0,0.0,0.0,0.0,0.0,0.0,0.0,0.0,0.0,0.0,0.0,0.0,0.0,0.0,0.0,0.0,0.0,0.0,0.0,0.0,0.0,0.0,0.0,0.0,0.0,0.0,0.0,0.0,0.0,0.0,1.7692,1.7802,1.7705,0.0,0.0,0.0,0.0,0.0,0.0,1.7122,1.6601,0.0,0.0,0.0,0.0,0.0,0.0,0.0,0.0,0.0,0.0,0.0,0.0,0.0,0.0,0.0,0.0,0.0,0.0,0.0,0.0,0.0,0.0,0.0,0.0,0.0,0.0,0.0,0.0,0.0,0.0,0.0,0.0,0.0,0.0,0.0,0.0,0.0,0.0,0.0,0.0,0.0,0.0,0.0,0.0,0.0,0.0,0.0,0.0,0.0,0.0,0.0,0.0,0.0,0.0,0.0,1.5247,1.764,1.8628,1.8252,1.9928,2.0497,1.9688,1.871,1.7823,0.0,0.0,0.0,0.0,0.0,0.0,0.0,0.0,0.0,0.0,0.0,0.0,0.0,0.0,0.0,0.0,0.0,0.0,0.0,0.0,0.0,0.0,0.0,0.0,0.0,0.0,0.0,0.0,0.0,0.0,0.0,0.0,0.0,0.0,0.0,0.0,0.0,0.0,0.0,0.0,0.0,1.8024,1.8036,1.7456,0.0,0.0,0.0,0.0,1.7877,1.735,0.0,0.0,0.0,0.0,0.0,0.0,0.0,0.0,0.0,0.0,0.0,0.0,0.0,0.0,0.0,0.0,0.0,0.0,0.0,0.0,0.0,0.0,0.0,0.0,0.0,0.0,0.0,0.0,0.0,0.0,0.0,0.0,0.0,0.0,0.0,0.0,0.0,0.0,0.0,0.0,0.0,0.0,0.0,0.0,0.0,0.0,0.0,0.0,0.0,0.0,0.0,0.0,0.0,0.0,0.0,0.0,1.58,1.7323,1.8293,1.8697,1.8962,1.9267,1.958,1.8648,1.7692,0.0,0.0,0.0,0.0,0.0,0.0,0.0,0.0,0.0,0.0,0.0,0.0,0.0,0.0,0.0,0.0,0.0,0.0,0.0,0.0,0.0,0.0,0.0,0.0,0.0,0.0,0.0,0.0,0.0,0.0,0.0,0.0,0.0,0.0,0.0,0.0,0.0,0.0,0.0,0.0,0.0,1.819,1.8168,1.7398,1.7062,0.0,0.0,1.7693,1.8831,1.8057,0.0,0.0,0.0,0.0,0.0,0.0,0.0,0.0,0.0,0.0,0.0,0.0,0.0,0.0,0.0,0.0,0.0,0.0,0.0,0.0,0.0,0.0,0.0,0.0,0.0,0.0,0.0,0.0,0.0,0.0,0.0,0.0,0.0,0.0,0.0,0.0,0.0,0.0,0.0,0.0,0.0,0.0,0.0,0.0,0.0,0.0,0.0,0.0,0.0,0.0,0.0,0.0,0.0,0.0,0.0,1.4676,1.5902,1.7509,1.8312,1.8239,1.8809,1.9119,1.9032,1.8055,1.7257,0.0,0.0,0.0,0.0,0.0,0.0,0.0,0.0,0.0,0.0,0.0,0.0,0.0,0.0,0.0,0.0,0.0,0.0,0.0,0.0,0.0,0.0,0.0,0.0,0.0,0.0,0.0,0.0,0.0,0.0,0.0,0.0,0.0,0.0,0.0,0.0,0.0,0.0,0.0,0.0,0.0,0.0,1.8676,1.8136,0.0,0.0,0.0,1.7931,1.8826,0.0,0.0,0.0,0.0,0.0,0.0,0.0,0.0,0.0,0.0,0.0,0.0,0.0,0.0,0.0,0.0,0.0,0.0,0.0,0.0,0.0,0.0,0.0,0.0,0.0,0.0,0.0,0.0,0.0,0.0,0.0,0.0,0.0,0.0,0.0,0.0,0.0,0.0,0.0,0.0,0.0,0.0,0.0,0.0,0.0,0.0,0.0,0.0,0.0,0.0,0.0,0.0,0.0,0.0,0.0,0.0,0.0,1.5978,1.7555,1.8154,1.7787,1.8412,1.8546,1.8154,1.7156,0.0,0.0,0.0,0.0,0.0,0.0,0.0,0.0,0.0,0.0,0.0,0.0,0.0,0.0,0.0,0.0,0.0,0.0,0.0,0.0,0.0,0.0,0.0,0.0,0.0,0.0,0.0,1.4663,0.0,0.0,0.0,0.0,0.0,0.0,0.0,0.0,0.0,0.0,0.0,0.0,0.0,0.0,1.8589,1.9142,1.8736,1.8249,0.0,0.0,1.8206,1.8798,1.8393,1.7887,0.0,0.0,0.0,0.0,0.0,0.0,0.0,0.0,0.0,0.0,0.0,0.0,0.0,0.0,0.0,0.0,0.0,0.0,0.0,0.0,0.0,0.0,0.0,0.0,0.0,0.0,0.0,0.0,0.0,0.0,0.0,0.0,0.0,0.0,0.0,0.0,0.0,0.0,0.0,0.0,0.0,0.0,0.0,0.0,0.0,0.0,0.0,0.0,0.0,0.0,0.0,0.0,0.0,0.0,0.0,1.6257,1.7179,1.7654,1.7618,1.7192,1.6948,1.6912,1.5959,1.5267,0.0,0.0,0.0,0.0,0.0,0.0,0.0,0.0,0.0,0.0,0.0,0.0,0.0,0.0,0.0,0.0,0.0,0.0,0.0,0.0,0.0,0.0,0.0,0.0,0.0,0.0,0.0,0.0,0.0,0.0,0.0,0.0,0.0,0.0,0.0,0.0,0.0,0.0,0.0,0.0,0.0,1.888,1.9492,1.8788,1.836,0.0,0.0,1.8683,1.9119,1.8817,1.8264,1.7459,0.0,0.0,0.0,0.0,0.0,0.0,0.0,0.0,0.0,0.0,0.0,0.0,0.0,0.0,0.0,0.0,0.0,0.0,0.0,0.0,0.0,0.0,0.0,0.0,0.0,0.0,0.0,0.0,0.0,0.0,0.0,0.0,0.0,0.0,0.0,0.0,0.0,0.0,0.0,0.0,0.0,0.0,0.0,0.0,0.0,0.0,0.0,0.0,0.0,0.0,0.0,0.0,0.0,1.487,1.6186,1.7706,1.8148,1.7508,1.7593,1.7195,1.6268,1.5556,1.5067,0.0,0.0,0.0,0.0,0.0,0.0,0.0,0.0,0.0,0.0,0.0,0.0,0.0,0.0,0.0,0.0,0.0,0.0,0.0,0.0,0.0,0.0,0.0,0.0,0.0,0.0,0.0,0.0,1.5704,1.5948,1.5658,0.0,0.0,0.0,0.0,0.0,0.0,0.0,0.0,0.0,0.0,1.9552,2.0017,1.9714,0.0,0.0,1.9328,1.939,1.9229,1.8824,1.8357,1.782,1.6523,0.0,0.0,0.0,0.0,0.0,0.0,0.0,0.0,0.0,0.0,0.0,0.0,0.0,0.0,0.0,0.0,0.0,0.0,0.0,0.0,0.0,0.0,0.0,0.0,0.0,0.0,0.0,0.0,0.0,0.0,0.0,0.0,0.0,0.0,0.0,0.0,0.0,0.0,0.0,0.0,0.0,0.0,0.0,0.0,0.0,0.0,0.0,0.0,0.0,0.0,0.0,0.0,1.4851,1.5913,1.7796,1.8398,1.7664,1.7869,1.7298,1.5959,1.5387,1.4844,0.0,0.0,0.0,0.0,0.0,0.0,0.0,0.0,0.0,0.0,0.0,0.0,0.0,0.0,0.0,0.0,0.0,0.0,0.0,0.0,0.0,0.0,0.0,0.0,0.0,0.0,0.0,0.0,1.5607,1.5482,1.455,0.0,0.0,0.0,0.0,0.0,0.0,0.0,0.0,0.0,0.0,2.0143,2.0529,2.0321,2.0034,1.9722,1.9848,1.9832,1.9548,1.9053,1.858,1.8289,0.0,0.0,0.0,0.0,0.0,0.0,0.0,0.0,0.0,0.0,0.0,0.0,0.0,0.0,0.0,0.0,0.0,0.0,0.0,0.0,0.0,0.0,0.0,0.0,0.0,0.0,0.0,0.0,0.0,0.0,0.5405,0.0,0.0,0.0,0.0,0.0,0.0,0.0,0.0,0.0,0.0,0.0,0.0,0.0,0.0,0.0,0.0,0.0,0.0,0.0,0.0,0.0,0.0,1.514,1.5539,1.7313,1.8204,1.8132,1.7676,1.6894,1.59,1.5375,1.4493,1.319,0.0,0.0,0.0,0.0,0.0,0.0,0.0,0.0,0.0,0.0,0.0,0.0,0.0,0.0,0.0,0.0,0.0,0.0,0.0,0.0,0.0,0.0,0.0,0.0,0.0,0.0,1.5562,1.5263,1.4547,0.0,0.0,0.0,0.0,0.0,0.0,0.0,0.0,0.0,0.0,1.949,2.0624,2.096,2.0446,2.0196,2.0533,2.0193,1.9916,2.0172,1.9591,1.9001,0.0,0.0,0.0,0.0,0.0,0.0,0.0,0.0,0.0,0.0,0.0,0.0,0.0,0.0,0.0,0.0,0.0,0.0,0.0,0.0,0.0,0.0,0.0,0.0,0.0,0.0,0.0,0.5238,0.5279,0.0,0.0,0.0,0.0,0.0,0.0,0.0,0.0,0.0,0.0,0.0,0.6012,0.6353,0.0,0.0,0.0,0.0,0.0,0.0,0.0,0.0,0.0,0.0,0.0,0.0,1.4861,1.5665,1.7272,1.7759,1.7044,1.6837,1.6088,1.4824,1.4606,1.3788,1.2304,0.0,0.0,0.0,0.0,0.0,0.0,0.0,0.0,0.0,0.0,0.0,0.0,0.0,0.0,0.0,0.0,0.0,0.0,0.0,0.0,0.0,0.0,0.0,0.0,0.0,1.3842,0.0,0.0,0.0,0.0,0.0,0.0,0.0,0.0,0.0,0.0,0.0,1.8592,1.9493,2.0502,2.1368,2.1982,2.1546,2.1346,0.0,0.0,0.0,0.0,0.0,0.0,0.0,0.0,0.0,0.0,0.0,0.0,0.0,0.0,1.5067,1.3549,1.3358,1.3293,1.289,0.0,0.0,0.0,0.0,0.0,0.0,0.0,0.0,0.0,0.0,0.0,0.0,0.0,0.0,0.4457,0.0,0.5037,0.0,0.0,0.0,0.0,0.0,0.0,0.0,0.0,0.5865,0.6036,0.6192,0.6555,0.6737,0.0,0.6969,0.7215,0.0,0.0,0.0,0.0,0.0,0.0,0.0,0.0,1.5105,1.5918,1.724,1.7593,1.6953,1.6765,1.6055,1.4767,1.4208,1.3318,1.1987,1.1978,1.1552,0.0,0.0,0.0,0.0,0.0,0.0,0.0,0.0,0.0,0.0,0.0,0.0,0.0,0.0,0.0,0.0,0.0,0.0,0.0,0.0,0.0,0.0,0.0,1.3101,0.0,0.0,0.0,0.0,0.0,0.0,0.0,0.0,0.0,1.5576,1.7984,1.987,2.0459,2.1486,2.2325,2.2631,0.0,0.0,0.0,0.0,0.0,0.0,0.0,2.0914,2.06,1.9177,1.7874,1.7328,1.6825,1.6405,1.6066,0.0,0.0,1.4123,1.3793,1.3623,1.3208,1.3381,1.3661,1.3796,1.4234,1.4633,0.0,0.0,0.0,0.0,0.0,0.0,0.0,0.0,0.3117,0.3164,0.0,0.3664,0.0,0.0,0.0,0.0,0.0,0.5183,0.0,0.0,0.6277,0.6664,0.7093,0.7353,0.7573,0.7721,0.7627,0.7407,0.7149,0.7998,0.0,0.0,0.0,0.0,0.0,0.0,1.5828,1.6296,1.7138,1.7657,1.7759,1.7354,1.6677,1.5656,1.424,1.3112,1.2289,1.219,1.1586,1.0387,1.0476,0.0,0.0,0.0,0.0,0.0,0.0,0.0,0.0,0.0,0.0,0.0,0.0,0.0,0.0,0.0,0.0,0.0,0.0,0.0,0.0,1.2426,0.0,0.0,0.0,0.0,0.0,0.0,0.0,0.0,0.0,0.0,1.6374,1.8665,2.0438,2.0811,0.0,0.0,0.0,0.0,2.2775,2.2683,2.2653,2.2612,2.2507,2.221,2.2031,2.2016,0.0,0.0,1.7636,1.7348,1.7044,1.6063,1.5992,1.5856,1.5546,1.5011,1.4514,1.4128,1.4359,1.4631,1.4754,1.5653,1.6322,0.3906,0.0,0.0,0.0,0.0,0.3925,0.4003,0.4237,0.4574,0.4133,0.3233,0.4501,0.0,0.0,0.0,0.0,0.0,0.0,0.5951,0.6483,0.676,0.6976,0.7108,0.739,0.7918,0.8691,0.8654,0.8931,0.9495,1.0353,0.9909,0.8222,0.0,0.0,0.0,0.0,1.5909,1.6227,1.6894,1.6982,1.6402,1.6282,1.5829,1.5097,1.4037,1.3247,1.2725,1.1924,1.1265,1.0734,1.0188,0.0,0.0,0.0,0.0,0.0,0.0,0.0,0.0,0.0,0.0,0.0,0.0,0.0,0.0,0.0,0.0,0.0,0.0,0.0,1.1624,1.2199,1.2539,0.0,0.0,0.0,0.0,0.0,0.0,0.0,0.0,0.0,1.8988,1.9791,2.0659,0.0,0.0,2.278,2.3735,2.3436,2.325,2.3725,2.3743,0.0,0.0,2.3251,2.281,2.2661,2.1146,1.9486,1.8159,1.7956,1.7841,1.7542,1.7247,1.7038,1.6992,1.621,1.5646,1.5762,1.5682,1.5785,1.6386,1.6619,1.6786,0.4411,0.3488,0.3568,0.4025,0.4698,0.4618,0.4711,0.4953,0.5178,0.4777,0.4004,0.489,0.5138,0.4982,0.5601,0.0,0.0,0.0,0.698,0.739,0.7928,0.8199,0.8287,0.8455,0.8954,0.9706,0.9647,0.9965,1.0627,1.1484,1.0997,0.9431,0.0,0.0,1.3992,1.5673,1.6677,1.693,1.7042,1.6802,1.6224,1.5927,1.5486,1.4819,1.4277,1.3715,1.3082,1.2043,1.1323,1.0986,0.9944,0.9437,0.0,0.0,0.0,0.0,0.0,0.0,0.0,0.0,0.0,0.0,0.0,1.0142,0.979,0.0,0.0,0.0,1.0452,1.0879,1.1738,1.2175,0.0,0.0,0.0,0.0,0.0,0.0,0.0,1.7081,1.8092,1.9243,2.0625,2.0792,2.1273,2.2456,2.3044,2.3739,2.4655,0.0,2.4327,2.4648,2.4658,2.4669,2.4677,2.4135,2.3489,2.2879,2.1585,2.0211,1.9101,1.8659,1.8422,1.8211,1.7989,1.7796,1.7889,1.7288,1.679,1.688,1.6808,1.6876,1.7273,1.7356,1.7622,0.4966,0.5015,0.5305,0.5387,0.5295,0.5354,0.5372,0.5367,0.5238,0.5144,0.5067,0.4956,0.5325,0.6008,0.6584,0.0,0.7148,0.7825,0.8296,0.859,0.9485,0.9984,1.0173,1.0202,1.045,1.0889,1.0708,1.0795,1.1138,1.1857,1.2033,1.1775,1.4074,1.5376,1.5718,1.7009,1.7855,1.8088,1.7445,1.7017,1.6753,1.6186,1.5514,1.4908,1.4844,1.4407,1.3464,1.2458,1.1721,1.1199,0.9848,0.9076,0.9,0.0,0.0,0.0,0.0,0.0,0.0,0.0,0.0,0.0,0.0,0.0,0.0,0.0,0.0,0.0,1.1184,0.0,1.204,1.2329,0.0,0.0,0.0,1.3786,1.4436,1.5712,1.7038,1.8296,0.0,0.0,2.1507,2.1752,2.2238,2.3384,2.463,2.5437,2.5484,2.5583,2.5647,2.5298,2.5367,2.5425,2.5229,2.4776,2.4029,2.3004,2.2199,2.1416,2.0398,1.9631,1.9009,1.8684,1.8482,1.844,1.8434,1.8495,1.8293,1.7838,1.7904,1.7971,1.7744,1.8293,1.8824,0.7217,0.7229,0.7282,0.6786,0.5971,0.598,0.5991,0.5991,0.5964,0.5501,0.4845,0.5558,0.6211,0.6845,0.7132,0.7534,0.8015,0.8495,0.9126,0.986,1.0499,1.0808,1.087,1.1022,1.1625,1.2572,1.2537,1.2903,1.3613,1.3805,1.376,1.3609,1.5378,1.5976,1.5414,1.7091,1.8046,1.8082,1.7641,1.7122,1.6603,1.6354,1.6027,1.5572,1.5357,1.4987,1.4435,1.303,1.2233,1.2052,1.0655,0.9883,0.9952,0.8993,0.0,0.0,0.0,0.0,0.0,0.0,0.0,0.0,0.0,1.0274,0.9666,0.0,1.0835,0.0,1.2218,1.2668,1.2757,1.3126,0.0,0.0,1.5231,1.5889,1.6262,1.7639,1.8826,1.9513,2.0224,2.1164,2.2516,2.3158,2.3835,2.4717,2.4554,2.4596,2.5221,2.5402,2.5402,2.5316,2.5371,2.5336,2.5288,2.5075,2.4604,2.3789,2.3434,2.3019,2.223,2.1487,2.0894,2.0766,2.0436,2.0243,2.0309,2.0498,2.063,2.0508,1.9718,1.9014,1.9222,1.9684,2.0122,0.7988,0.7988,0.7988,0.7599,0.6991,0.6985,0.7009,0.6985,0.6948,0.6607,0.6106,0.6596,0.7008,0.733,0.7457,0.7927,0.8716,0.9348,1.0172,1.1111,1.1836,1.2175,1.2175,1.2289,1.278,1.3631,1.3654,1.403,1.4701,1.4732,1.4629,1.4547,1.6272,1.6873,1.6377,1.7856,1.854,1.8356,1.7972,1.7456,1.6817,1.6824,1.6526,1.5823,1.5605,1.5237,1.4663,1.333,1.2438,1.2108,1.0546,0.9727,0.9869,0.8565,0.81,0.0,0.0,0.0,0.0,0.0,0.0,0.0,0.0,0.0,0.0,0.0,1.1398,1.2139,1.3154,1.3907,1.426,1.4962,1.5686,1.6399,1.7117,1.7568,1.775,1.8989,2.0,2.0475,2.1567,2.2767,2.4002,2.4872,2.5646,2.6419,2.6135,2.5825,2.5819,2.5875,2.5908,2.585,2.5892,2.5764,2.5503,2.5355,2.5084,2.4476,2.405,2.3679,2.3306,2.2633,2.2126,2.2102,2.1873,2.17,2.1795,2.1913,2.1988,2.1694,2.1307,2.0819,2.0427,2.0715,2.1093,0.7988,0.7988,0.7988,0.7988,0.7988,0.7988,0.7988,0.7982,0.7878,0.7817,0.7834,0.7712,0.7645,0.7624,0.7624,0.8198,0.922,1.0181,1.1162,1.2162,1.3158,1.3616,1.3616,1.3593,1.3832,1.4264,1.4252,1.4524,1.4927,1.4972,1.5048,1.521,1.6858,1.7753,1.7932,1.893,1.9237,1.8778,1.8375,1.788,1.7249,1.7278,1.6835,1.5923,1.562,1.5163,1.4448,1.3395,1.2538,1.1862,1.0264,0.942,0.9575,0.8182,0.7752,0.0,0.8084,0.0,0.0,0.0,0.0,0.0,0.0,0.0,0.0,1.1731,1.2439,1.2929,1.4241,1.5357,1.607,1.7063,1.7825,1.823,1.8712,1.901,1.9142,2.0081,2.0899,2.1351,2.2874,2.4345,2.5336,2.6349,2.7175,2.7821,2.7917,2.7577,2.6927,2.682,2.6837,2.67,2.6727,2.6509,2.603,2.582,2.5561,2.5077,2.4657,2.4162,2.4194,2.3617,2.3136,2.3136,2.3073,2.302,2.302,2.3034,2.2891,2.2496,2.2806,2.2646,2.1498,2.1575,2.1839,0.7988,0.7988,0.7988,0.7988,0.7988,0.7988,0.7988,0.7988,0.7955,0.7948,0.7973,0.7921,0.7882,0.7773,0.7773,0.8222,0.9103,1.0294,1.1344,1.2294,1.3566,1.4147,1.4147,1.4147,1.4313,1.4598,1.4598,1.4639,1.4679,1.4897,1.5291,1.5828,1.7092,1.8116,1.8913,0.0,0.0,0.0,1.8778,1.8375,1.7917,1.7135,1.6581,1.6203,1.5393,0.0,1.4118,1.3376,1.2773,1.236,1.1312,0.0,0.0,0.0,0.0,0.0,0.0,0.0,0.0,0.0,0.0,0.0,1.2243,1.232,1.1642,1.3394,1.4629,1.4897,1.6154,1.7078,1.733,1.8064,1.858,1.871,1.9428,2.0157,2.0681,2.1412,2.2048,2.2473,2.3617,2.4623,2.5338,2.6254,2.7224,2.8025,2.8122,2.8047,2.7846,2.7806,2.7832,2.777,2.7437,2.7153,2.701,2.6608,2.6281,2.6163,2.6087,2.5943,2.5825,2.5317,2.483,2.4782,2.4461,2.4191,2.4191,2.4317,2.4353,2.427,2.4326,2.3949,2.2287,2.2527,2.3074,0.8069,0.0,0.8228,0.8236,0.0,0.8262,0.823,0.8248,0.8074,0.7988,0.7988,0.7988,0.7948,0.7923,0.8454,0.9179,1.0153,1.1274,1.2329,1.3304,1.3993,1.4328,1.4328,1.4328,1.4424,1.4688,1.4712,1.4745,1.4856,1.4984,1.5408,1.6099,1.7191,1.8249,1.9323,2.0325,2.0482,1.9916,1.9073,1.8459,1.8013,1.7036,1.6314,1.5918,0.0,0.0,0.0,0.0,0.0,0.0,0.0,0.0,0.0,0.0,0.0,1.064,1.0109,1.0047,1.0639,1.1085,1.1581,1.2176,1.3246,1.3851,1.3769,1.4765,1.5739,1.6581,1.7532,1.8227,1.8525,1.922,1.9716,1.9966,2.0586,2.1115,2.1471,2.201,2.2514,2.3063,2.4246,2.5373,2.6001,2.7303,2.8289,2.8831,2.8925,2.8925,2.8894,2.844,2.8105,2.8094,2.7892,2.7695,2.7645,2.7261,2.6901,2.6876,2.6675,2.6524,2.6499,2.6188,2.5903,2.5861,2.564,2.5485,2.5502,2.5551,2.5536,2.5285,2.5193,2.4844,2.3673,2.358,2.3573,0.8027,0.8194,0.8301,0.8348,0.8354,0.8381,0.8453,0.8492,0.0,0.0,0.0,0.7988,0.7988,0.8063,0.9114,1.0067,1.0974,1.2169,1.3197,1.4004,1.4196,1.4328,1.4328,1.4328,1.44,1.4616,1.4616,1.4736,1.4939,1.4987,1.5428,1.6231,1.7217,1.8403,1.9741,2.0656,2.0966,2.0677,1.9386,1.8411,1.7836,1.6786,1.5971,1.5463,1.4912,1.4418,1.3931,1.3278,1.2641,1.2046,1.1485,1.1273,1.1469,1.0894,1.0866,1.1587,1.1354,1.1368,1.1778,1.217,1.2538,1.2895,1.419,1.525,1.584,1.5981,1.6651,1.8026,1.8675,1.9218,1.9659,2.0247,2.0805,2.1266,2.1569,2.179,2.203,2.2311,2.2752,2.3344,2.4821,2.6094,2.6596,2.816,2.9424,2.958,2.9524,2.9682,2.959,2.8962,2.8527,2.8481,2.8362,2.8229,2.8172,2.7795,2.7419,2.7261,2.7002,2.6725,2.6549,2.6575,2.66,2.643,2.6499,2.649,2.6582,2.6482,2.6373,2.5979,2.5829,2.5594,2.5036,2.4596,2.4113,0.7665,0.7699,0.7717,0.7723,0.7723,0.7987,0.8223,0.8492,0.8309,0.8167,0.7988,0.7988,0.7988,0.8038,0.9114,0.9682,0.9953,1.1828,1.2799,0.0,1.3884,1.4328,1.4328,1.4328,1.4328,1.434,1.4364,1.4376,1.4424,1.464,1.5248,1.6217,1.7217,1.8727,2.0642,2.0944,2.1203,2.1482,1.9891,1.8447,1.7248,1.6127,1.5451,1.5232,1.4438,1.3863,1.366,1.3503,1.3238,1.2853,1.248,1.2286,1.2313,1.2195,1.2222,1.2325,1.2051,1.2215,1.2973,1.2863,1.3471,1.5126,1.5793,1.6003,1.5866,1.7009,1.8169,1.9108,1.9806,2.0434,2.0891,2.1009,2.1247,2.1609,2.159,2.1909,2.2772,2.2888,2.3003,2.3487,2.5209,2.6308,2.6478,2.7947,2.917,2.9189,2.9268,2.9218,2.9275,2.9438,2.9528,2.949,2.9113,2.8838,2.8731,2.8329,2.7871,2.7361,2.7638,2.7487,2.6733,2.6952,2.7035,2.66,2.66,2.6751,2.706,2.6801,2.67,2.6809,2.6625,2.6137,2.56,2.5391,2.4996,0.7633,0.7713,0.778,0.781,0.781,0.7946,0.8031,0.8175,0.856,0.8555,0.8333,0.8915,0.9117,0.9135,1.0744,1.1422,1.1341,1.2883,1.3583,1.3607,1.4076,1.4328,1.4328,1.4328,1.4328,1.4328,1.4328,1.4328,1.4328,1.4448,1.4938,1.5792,1.6922,1.818,1.953,2.0121,2.0439,2.0484,1.9837,1.9177,1.8543,1.717,1.6219,1.5812,1.5458,1.5126,1.4687,1.4306,1.4032,1.3864,1.2947,1.2603,1.2913,1.2803,1.2913,1.3334,1.3235,1.3361,1.3911,1.423,1.4967,1.6351,1.7006,1.7353,1.7426,1.8156,1.9088,2.01,2.0446,2.062,2.0876,2.1055,2.1253,2.1451,2.1784,2.2237,2.2715,2.2949,2.3275,2.4017,2.5231,2.6297,2.681,2.8071,2.8973,2.9072,2.9091,2.9106,2.9091,2.9257,2.9463,2.9549,2.933,2.9268,2.9295,2.8907,2.8455,2.8197,2.8122,2.7921,2.7412,2.7595,2.7595,2.7437,2.7361,2.7462,2.7695,2.7286,2.7135,2.7135,2.6876,2.6413,2.6143,2.5847,2.5334,0.7587,0.7698,0.7828,0.7919,0.7951,0.7951,0.7901,0.7916,0.8534,0.8797,0.8846,0.9766,1.0097,1.0102,1.1926,1.2687,1.2664,1.362,1.4096,1.4108,1.423,1.4279,1.4291,1.4352,1.4389,1.4377,1.4352,1.4328,1.4328,1.4328,1.4675,1.5425,1.6382,1.732,1.8149,1.8918,1.9392,1.9581,1.9743,1.9712,1.9455,1.817,1.7195,1.6578,1.6714,1.6521,1.591,1.5211,1.4828,1.4759,1.3458,1.2926,1.3373,1.321,1.3384,1.3956,1.4267,1.4599,1.506,1.571,1.6491,1.7328,1.8039,1.8655,1.9144,1.9334,1.9812,2.0644,2.0762,2.0742,2.0801,2.1133,2.1405,2.1502,2.2069,2.2519,2.2654,2.2906,2.3321,2.4124,2.4956,2.584,2.6751,2.777,2.8514,2.8855,2.8973,2.8954,2.8954,2.8954,2.9047,2.9199,2.9321,2.9355,2.958,2.9255,2.8887,2.8806,2.8556,2.8213,2.8032,2.7994,2.8037,2.7925,2.795,2.8019,2.8105,2.7809,2.7595,2.767,2.7361,2.6884,2.6716,2.6379,2.5699,0.734,0.738,0.7513,0.7645,0.78,0.7828,0.7865,0.798,0.8085,0.8569,0.9275,0.9928,1.0212,1.0318,1.1449,1.2023,1.2045,1.3012,1.3496,1.3562,1.3979,1.4221,1.4201,1.4502,1.4678,1.4617,1.4413,1.434,1.4316,1.4304,1.4675,1.532,1.552,1.6183,1.7273,1.7506,1.8319,1.9826,1.9883,1.9405,1.8495,1.8281,1.7902,1.7223,1.7411,1.73,1.683,1.5986,1.5521,1.5411,1.4335,1.3685,1.3755,1.3727,1.3741,1.3856,1.4735,1.5707,1.6674,1.7135,1.7745,1.8554,1.9018,1.9592,2.0314,2.045,2.0489,2.0723,2.0977,2.1113,2.1191,2.1582,2.1953,2.2225,2.244,2.2635,2.2967,2.3081,2.3144,2.3188,2.4188,2.4701,2.521,2.6443,2.7632,2.8379,2.8478,2.8454,2.847,2.8478,2.8483,2.8725,2.8943,2.9072,2.917,2.917,2.8913,2.8568,2.8751,2.8568,2.8137,2.8064,2.8176,2.8046,2.7866,2.8114,2.8325,2.8275,2.8167,2.8281,2.8074,2.7727,2.7354,2.7115,2.6525,0.7414,0.7419,0.7468,0.755,0.7616,0.7616,0.7601,0.7635,0.8192,0.8596,0.9023,1.0182,1.0919,1.1309,1.2464,1.2899,1.2776,1.3213,1.3393,1.3418,1.3623,1.3715,1.3755,1.421,1.4404,1.443,1.4649,1.469,1.4545,1.4377,1.4472,1.4723,1.4747,1.5235,1.6123,1.6476,1.725,1.8326,1.8787,1.9066,1.9231,1.9167,1.8726,1.7968,1.7701,1.743,1.7074,1.6671,1.6657,1.6859,1.5383,1.4548,1.4735,1.4074,1.3838,1.4206,1.5542,1.7013,1.8435,1.903,1.969,2.0575,2.0747,2.1004,2.1327,2.1368,2.1368,2.1368,2.1249,2.1288,2.1621,2.2012,2.2324,2.2519,2.2693,2.2906,2.3062,2.3101,2.3276,2.3842,2.4273,2.4723,2.5232,2.5882,2.6732,2.751,2.7733,2.7726,2.7726,2.774,2.751,2.7144,2.7101,2.777,2.8697,2.9136,2.8949,2.8851,2.8944,2.8797,2.8542,2.8574,2.8686,2.8385,2.8428,2.8541,2.8815,2.8502,2.8325,2.8449,2.8164,2.7671,2.7426,2.7401,2.6923,0.7538,0.7573,0.76,0.7565,0.7538,0.7538,0.7468,0.7451,0.8076,0.8423,0.8688,0.9904,1.0929,1.1844,1.2929,1.3288,1.3127,1.3117,1.3117,1.3143,1.3273,1.3362,1.3429,1.4027,1.4302,1.4393,1.4845,1.5004,1.4823,1.463,1.4485,1.4425,1.4413,1.4629,1.5094,1.5507,1.6123,1.6955,1.7561,1.8349,1.9252,1.913,1.8838,1.8657,1.8348,1.7889,1.7259,1.7009,1.7069,1.7462,1.5844,1.5048,1.5248,1.4699,1.4797,1.5761,1.6954,1.8402,2.0019,2.0585,2.115,2.1792,2.1915,2.1915,2.1915,2.1915,2.1974,2.2031,2.1758,2.1737,2.2031,2.242,2.2654,2.2674,2.2925,2.3101,2.3101,2.3101,2.3363,2.3973,2.3993,2.4445,2.521,2.5463,2.5799,2.6609,2.6814,2.6828,2.6826,2.6798,2.6547,2.5905,2.5842,2.6442,2.7891,2.8011,2.8215,2.8215,2.8031,2.7991,2.8247,2.8295,2.8532,2.7937,2.86,2.8973,2.8831,2.8533,2.8087,2.8048,2.7822,2.7545,2.7779,2.7723,2.7404,0.7693,0.7709,0.7837,0.778,0.7693,0.7693,0.7622,0.7484,0.7571,0.7991,0.859,0.8832,0.9699,1.1126,1.2064,1.2472,1.2453,1.2488,1.2505,1.2559,1.3038,1.3302,1.3356,1.416,1.4574,1.4552,1.4974,1.5137,1.5063,1.5065,1.4944,1.469,1.4654,1.4558,1.4473,1.4496,1.5021,1.6062,1.6297,1.6987,1.8164,1.7538,1.7926,1.9212,1.9516,1.8721,1.7632,1.6755,1.6404,1.6411,1.5575,1.5048,1.5097,1.5773,1.6998,1.8769,1.9229,1.9921,2.111,2.1415,2.1601,2.1851,2.1951,2.1934,2.1991,2.1991,2.2127,2.2441,2.242,2.242,2.25,2.2769,2.3003,2.3023,2.3062,2.3101,2.3101,2.3101,2.3101,2.3212,2.3278,2.3647,2.4445,2.4573,2.4956,2.5589,2.5861,2.5857,2.587,2.5855,2.578,2.5656,2.5613,2.5819,2.5965,2.6462,2.6318,2.64,2.6668,2.6213,2.6332,2.6574,2.7007,2.7478,2.7971,2.8315,2.8554,2.8347,2.7793,2.7592,2.7553,2.7521,2.7426,2.8013,2.7739,0.7908,0.7812,0.7886,0.7875,0.7812,0.7812,0.7747,0.7638,0.7633,0.7744,0.8014,0.8516,0.908,0.9717,1.1227,1.2071,1.2373,1.2382,1.2382,1.2409,1.2627,1.2718,1.2834,1.3842,1.4371,1.4456,1.5209,1.5523,1.5342,1.5197,1.5039,1.4931,1.4774,1.4654,1.4545,1.4389,1.4556,1.4949,1.514,1.5815,1.6884,1.6922,1.7238,1.7827,1.7459,1.7172,1.7011,1.672,1.6721,1.7092,1.6279,1.5828,1.5851,1.6168,1.6946,1.8262,1.9333,2.0397,2.1352,2.1876,2.2117,2.22,2.2203,2.227,2.2437,2.2481,2.2601,2.2806,2.2888,2.2888,2.2908,2.3023,2.3101,2.3101,2.3101,2.3101,2.3101,2.3101,2.3101,2.3101,2.3101,2.3256,2.3517,2.3604,2.3972,2.4765,2.4956,2.4957,2.4977,2.4978,2.4786,2.4249,2.4078,2.4059,2.4081,2.521,2.5819,2.5819,2.5882,2.5856,2.5915,2.5945,2.6303,2.6373,2.693,2.7062,2.7103,2.6955,2.6607,2.6603,2.6601,2.6714,2.6657,2.7221,2.7138,0.8039,0.7963,0.7919,0.7903,0.7903,0.7903,0.7859,0.7758,0.7758,0.7687,0.7713,0.8184,0.8569,0.8962,1.0149,1.1066,1.1766,1.2284,1.2579,1.2522,1.255,1.2594,1.2854,1.3738,1.4304,1.46,1.5431,1.5789,1.5632,1.5451,1.5318,1.5221,1.504,1.4871,1.469,1.4497,1.4401,1.4376,1.4472,1.4962,1.5673,1.6018,1.6301,1.6362,1.5961,1.5913,1.6405,1.6414,1.659,1.6884,1.6742,1.6914,1.7481,1.7621,1.8065,1.8974,2.0057,2.0981,2.159,2.2092,2.2331,2.2397,2.2378,2.2485,2.264,2.2662,2.275,2.286,2.2882,2.2882,2.2882,2.2882,2.2947,2.3057,2.3101,2.3101,2.3101,2.3057,2.3013,2.3013,2.3057,2.3101,2.3101,2.3123,2.3408,2.3993,2.4058,2.4039,2.4041,2.4018,2.3885,2.3234,2.3232,2.3256,2.3365,2.4188,2.4616,2.4638,2.4787,2.4999,2.5209,2.5275,2.5381,2.542,2.5482,2.5548,2.5506,2.5421,2.5379,2.54,2.5505,2.5628,2.5898,2.6357,2.6249,0.8088,0.8061,0.7957,0.7908,0.7903,0.7903,0.7903,0.7886,0.7892,0.7826,0.7733,0.7758,0.8171,0.8686,0.9043,0.9468,1.0618,1.2173,1.2805,1.2637,1.2739,1.293,1.3219,1.3888,1.4542,1.5003,1.5604,1.5885,1.5849,1.5813,1.5704,1.5535,1.5451,1.5197,1.4751,1.469,1.4545,1.4389,1.434,1.4472,1.4664,1.4855,1.5105,1.5486,1.5499,1.5605,1.5829,1.5852,1.592,1.6001,1.6683,1.818,1.943,1.9793,2.0494,2.1065,2.1561,2.178,2.2002,2.2065,2.2154,2.2287,2.2353,2.2353,2.2397,2.2419,2.2441,2.2485,2.2463,2.2441,2.2463,2.2463,2.2618,2.2991,2.3035,2.3013,2.3013,2.2904,2.2794,2.2816,2.2925,2.3101,2.3101,2.3101,2.321,2.3234,2.3256,2.3278,2.3323,2.3343,2.3169,2.3123,2.3101,2.3101,2.3101,2.3144,2.3188,2.3234,2.343,2.3651,2.3932,2.4097,2.4378,2.449,2.4766,2.4807,2.4551,2.4467,2.4467,2.4467,2.455,2.4656,2.4977,2.5295,2.5462,0.8241,0.8119,0.8044,0.7979,0.7908,0.7903,0.7903,0.7903,0.7903,0.7881,0.7853,0.7848,0.7972,0.8305,0.881,0.9643,1.0666,1.1908,1.2305,1.2137,1.2691,1.2974,1.3163,1.3961,1.4848,1.5535,1.5805,1.5885,1.5885,1.5885,1.5837,1.5753,1.5584,1.5427,1.5196,1.4908,1.4654,1.4582,1.4389,1.4352,1.4448,1.4592,1.4783,1.4951,1.5118,1.5356,1.5594,1.5713,1.5808,1.5808,1.6092,1.688,1.8079,1.8911,1.9735,2.0664,2.1374,2.1709,2.1776,2.1839,2.1843,2.1909,2.1932,2.2021,2.2154,2.2198,2.2264,2.2375,2.2397,2.2397,2.2397,2.2397,2.2463,2.2618,2.2618,2.264,2.264,2.2596,2.2552,2.2574,2.275,2.2882,2.2925,2.2991,2.3057,2.3079,2.3079,2.3079,2.3079,2.3057,2.3101,2.3101,2.3101,2.3079,2.3059,2.3059,2.3101,2.3101,2.3101,2.3101,2.3232,2.3321,2.3582,2.3735,2.3994,2.4016,2.3734,2.3647,2.3712,2.3647,2.3689,2.3819,2.3972,2.4211,2.4512,0.8329,0.8187,0.8138,0.811,0.8008,0.8008,0.8002,0.7997,0.799,0.7973,0.7963,0.7919,0.7903,0.8025,0.8513,0.9122,0.9846,1.1057,1.154,1.1544,1.2681,1.3193,1.3331,1.4291,1.5008,1.5505,1.5805,1.5885,1.5885,1.5885,1.5912,1.5849,1.5716,1.5584,1.5487,1.516,1.4968,1.4859,1.4666,1.4545,1.4522,1.4631,1.4703,1.4736,1.4868,1.507,1.5333,1.5547,1.5713,1.5937,1.6457,1.7381,1.8357,1.9392,2.0167,2.0732,2.1311,2.1687,2.1687,2.1709,2.1687,2.1687,2.1687,2.1754,2.1909,2.1972,2.2021,2.2109,2.2132,2.2154,2.2132,2.2132,2.2132,2.2154,2.2331,2.2353,2.2331,2.2375,2.2353,2.2375,2.2508,2.2618,2.2684,2.2728,2.2838,2.2838,2.2838,2.2818,2.2838,2.2818,2.284,2.2904,2.2906,2.2928,2.2974,2.3038,2.3101,2.3101,2.3101,2.3101,2.3166,2.3166,2.3299,2.3321,2.3517,2.356,2.3321,2.3278,2.3278,2.3123,2.3101,2.3297,2.356,2.3649,2.3868,0.8388,0.8367,0.8264,0.8199,0.8183,0.8183,0.8172,0.8172,0.8111,0.8099,0.8072,0.8001,0.7935,0.7924,0.8052,0.82,0.836,0.9876,1.0929,1.1409,1.2501,1.3345,1.3888,1.4587,1.4965,1.5202,1.5589,1.5805,1.5885,1.5885,1.5885,1.5885,1.5861,1.5765,1.5584,1.5499,1.533,1.5149,1.5089,1.4932,1.4714,1.4739,1.474,1.4751,1.4775,1.4932,1.521,1.5475,1.5636,1.6011,1.7311,1.8473,1.9872,2.0997,2.1177,2.1329,2.162,2.1687,2.1687,2.1687,2.1687,2.1687,2.1687,2.1687,2.1731,2.1754,2.1754,2.1776,2.1776,2.1731,2.1754,2.1754,2.1754,2.1754,2.2065,2.2198,2.2109,2.222,2.2198,2.2132,2.2242,2.2397,2.2397,2.2419,2.2441,2.2463,2.2485,2.2508,2.2508,2.2511,2.2444,2.2511,2.2665,2.2709,2.2753,2.2775,2.2838,2.2882,2.2947,2.3035,2.3101,2.3101,2.3101,2.3101,2.3101,2.3101,2.3101,2.3101,2.3101,2.3101,2.3101,2.3101,2.3169,2.3323,2.341,0.8492,0.8383,0.835,0.8285,0.821,0.8204,0.8204,0.8199,0.8177,0.8155,0.8176,0.8155,0.8079,0.8044,0.8065,0.8329,0.8903,0.9464,1.0604,1.1744,1.223,1.316,1.3876,1.4074,1.4503,1.5074,1.5252,1.5458,1.5859,1.5897,1.5885,1.5885,1.5912,1.5861,1.5803,1.5596,1.5475,1.5378,1.5197,1.5101,1.5028,1.5004,1.5005,1.4995,1.4983,1.5121,1.5382,1.5656,1.5783,1.5811,1.6221,1.703,1.8149,1.914,2.0008,2.0619,2.1266,2.1642,2.1642,2.162,2.1642,2.1687,2.1575,2.1687,2.1687,2.1687,2.1687,2.1687,2.1687,2.1683,2.1705,2.1723,2.1723,2.1709,2.1916,2.1965,2.1843,2.1843,2.1843,2.1839,2.2021,2.2132,2.2176,2.2264,2.2353,2.2353,2.2353,2.2353,2.2309,2.2331,2.229,2.2397,2.2485,2.2489,2.2489,2.253,2.2574,2.2596,2.2728,2.2947,2.3013,2.3101,2.3101,2.3101,2.3101,2.3101,2.3101,2.3101,2.3101,2.3101,2.3101,2.3101,2.3101,2.319,2.3212,0.8552,0.8486,0.8486,0.8448,0.8388,0.8383,0.835,0.834,0.8296,0.828,0.8269,0.822,0.8166,0.8133,0.8164,0.8344,0.8792,0.9204,1.0212,1.1541,1.2475,1.3234,1.3761,1.3803,1.4181,1.4671,1.5003,1.5321,1.5626,1.5785,1.5897,1.5885,1.5885,1.5885,1.59,1.5753,1.5656,1.5644,1.5499,1.539,1.5282,1.527,1.5185,1.5137,1.5113,1.5227,1.5468,1.5645,1.5768,1.5908,1.6221,1.67,1.7293,1.8241,1.9055,1.9695,2.019,2.0461,2.0501,2.0484,2.0501,2.0569,2.0794,2.084,2.0659,2.0817,2.1145,2.1336,2.1359,2.163,2.2094,2.2199,2.2199,2.2236,2.2199,2.2053,2.1782,2.1709,2.1709,2.1731,2.182,2.195,2.195,2.2061,2.2087,2.2087,2.2043,2.2065,2.2065,2.2132,2.2154,2.2176,2.2264,2.2287,2.2331,2.2372,2.2495,2.2517,2.2485,2.2728,2.2925,2.3035,2.3076,2.3076,2.3079,2.3098,2.3096,2.3096,2.3101,2.3101,2.3101,2.3101,2.3101,2.3101,2.3101,0.8623,0.8617,0.8617,0.8623,0.8579,0.8617,0.8562,0.8562,0.8475,0.8432,0.8416,0.8291,0.8253,0.822,0.822,0.8219,0.823,0.8882,0.99,1.1134,1.2376,1.3411,1.3545,1.382,1.4,1.4192,1.4888,1.5198,1.5447,1.5761,1.5931,1.597,1.5958,1.5972,1.5997,1.5934,1.5936,1.5861,1.5813,1.5704,1.5572,1.5535,1.5451,1.5318,1.5282,1.5372,1.5501,1.5592,1.567,1.5889,1.6717,1.6952,1.7227,1.8085,1.8613,1.8831,1.9065,1.9242,1.9031,1.9281,1.9094,1.9335,1.9941,1.9858,1.9543,1.9945,2.0456,2.0693,2.0774,2.131,2.2202,2.2604,2.2621,2.2655,2.2798,2.2529,2.2034,2.1837,2.1837,2.1815,2.1833,2.1856,2.1837,2.1801,2.1823,2.209,2.1972,2.1865,2.1865,2.1887,2.1865,2.1843,2.1932,2.2065,2.215,2.2232,2.2377,2.2459,2.2369,2.2485,2.275,2.2882,2.2986,2.3027,2.2937,2.2953,2.3055,2.3061,2.3069,2.3038,2.2994,2.3038,2.3101,2.3101,2.3101,0.8623,0.8623,0.8623,0.8623,0.8623,0.8623,0.8623,0.8617,0.8596,0.8541,0.8541,0.8513,0.8454,0.8378,0.834,0.8312,0.8219,0.8546,0.9218,1.0868,1.1933,1.2976,1.3411,1.3623,1.3771,1.4127,1.4685,1.5082,1.5386,1.5822,1.6226,1.6226,1.6199,1.6199,1.6199,1.6187,1.6105,1.5934,1.5897,1.5873,1.5813,1.5777,1.5767,1.568,1.568,1.5731,1.5795,1.5822,1.5831,1.592,1.6099,1.6306,1.6522,1.7355,1.7901,1.813,1.8885,1.9382,1.9422,1.9231,1.9446,1.9255,1.9415,1.9726,1.9582,1.9558,1.9822,1.9934,1.9974,2.0505,2.1528,2.1661,2.2119,2.2673,2.2939,2.2913,2.2693,2.262,2.2565,2.2584,2.2584,2.2638,2.2602,2.2272,2.2222,2.2149,2.1984,2.1742,2.1764,2.1819,2.1874,2.1947,2.2023,2.2195,2.2242,2.2347,2.2433,2.2445,2.2337,2.2195,2.246,2.2615,2.2653,2.2688,2.2701,2.2802,2.3009,2.2907,2.2872,2.2868,2.2923,2.2989,2.3052,2.3076,2.3013,0.8623,0.8623,0.8623,0.8623,0.8623,0.8623,0.8623,0.8623,0.8623,0.8623,0.8623,0.8623,0.8552,0.8503,0.8492,0.8432,0.8409,0.8701,0.9324,1.049,1.1601,1.2582,1.3063,1.3398,1.373,1.4045,1.438,1.4795,1.5282,1.5774,1.616,1.6477,1.6477,1.6477,1.6477,1.6477,1.6359,1.6166,1.6066,1.603,1.591,1.5885,1.5885,1.5885,1.5885,1.5885,1.59,1.59,1.5893,1.5903,1.59,1.5895,1.5948,1.6525,1.6875,1.7086,1.7584,1.8005,1.7941,1.803,1.7951,1.8005,1.8311,1.8336,1.8385,1.8459,1.9007,1.9197,1.9382,1.976,2.0974,2.1715,2.2181,2.262,2.3202,2.3462,2.3431,2.3151,2.2889,2.2889,2.2835,2.2853,2.2761,2.2693,2.262,2.2565,2.2529,2.2346,2.2355,2.2415,2.2378,2.2396,2.2354,2.2377,2.2415,2.247,2.2534,2.2451,2.2312,2.2113,2.208,2.2147,2.221,2.2351,2.2557,2.2817,2.2982,2.2858,2.2851,2.3138,2.3216,2.3063,2.2956,2.2934,2.281,0.8623,0.8623,0.8623,0.8623,0.8623,0.8623,0.8623,0.8623,0.8623,0.8623,0.8623,0.8623,0.8579,0.8617,0.8579,0.8519,0.8606,0.8995,0.9443,0.9981,1.1051,1.1974,1.2501,1.3059,1.3493,1.3704,1.4153,1.4647,1.5149,1.5584,1.6191,1.6642,1.6767,1.6754,1.6754,1.6742,1.6622,1.642,1.6344,1.6223,1.603,1.5997,1.597,1.5885,1.5885,1.5885,1.5885,1.5885,1.59,1.5885,1.5885,1.5906,1.5907,1.5961,1.5961,1.6024,1.6508,1.6687,1.6661,1.652,1.652,1.6075,1.6746,1.6973,1.6849,1.7268,1.7846,1.8212,1.8465,1.8906,2.0343,2.0934,2.1651,2.2265,2.3178,2.3854,2.3851,2.3341,2.3242,2.3193,2.3321,2.3358,2.3224,2.3114,2.3041,2.2986,2.2944,2.2931,2.2923,2.2887,2.279,2.2712,2.2625,2.2787,2.2821,2.2675,2.2717,2.2612,2.2433,2.2121,2.1886,2.188,2.201,2.2296,2.252,2.2693,2.2768,2.2644,2.2816,2.3348,2.3369,2.3065,2.2878,2.2786,2.2701,0.8623,0.8623,0.8623,0.8623,0.8623,0.8623,0.8623,0.8623,0.8623,0.8623,0.8623,0.8623,0.8623,0.8623,0.8623,0.8524,0.8503,0.8746,0.9077,0.9512,1.0267,1.0905,1.2054,1.2605,1.3043,1.3682,1.4193,1.4704,1.526,1.5769,1.6304,1.6877,1.7032,1.7032,1.702,1.7008,1.6887,1.667,1.6622,1.6489,1.6284,1.6211,1.6139,1.6021,1.5982,1.597,1.5934,1.591,1.5885,1.5885,1.5885,1.5902,1.5964,1.6098,1.6152,1.6218,1.6389,1.6468,1.6429,1.6545,1.661,1.6623,1.669,1.6781,1.6689,1.6755,1.7082,1.7121,1.7278,1.7607,1.8693,1.9461,1.9937,2.0759,2.187,2.2719,2.286,2.3277,2.3626,2.3547,2.3718,2.3865,2.3694,2.3523,2.3468,2.3376,2.3303,2.3206,2.3198,2.3109,2.3019,2.2941,2.2862,2.3079,2.331,2.3078,2.2955,2.2845,2.2607,2.2204,2.1966,2.1782,2.1853,2.2098,2.2213,2.2242,2.2275,2.239,2.2625,2.3,2.2981,2.2922,2.2839,2.2779,2.287,0.8623,0.8623,0.8623,0.8623,0.8623,0.8623,0.8623,0.8623,0.8623,0.8623,0.8623,0.8623,0.8623,0.8623,0.8623,0.8552,0.8519,0.8508,0.876,0.916,0.9612,1.0127,1.1325,1.1987,1.2617,1.3201,1.3865,1.466,1.5352,1.5664,1.6372,1.7123,1.7298,1.7298,1.7298,1.7286,1.7141,1.696,1.6887,1.6779,1.6525,1.6501,1.6404,1.6344,1.6296,1.6308,1.6308,1.6308,1.6308,1.6284,1.6202,1.6142,1.612,1.6089,1.6096,1.6189,1.6363,1.643,1.6365,1.6391,1.6405,1.6272,1.6297,1.6365,1.6444,1.6511,1.6551,1.6657,1.6697,1.6882,1.7516,1.8134,1.8812,1.942,2.0595,2.1327,2.1718,2.2661,2.3155,2.3523,2.3757,2.39,2.411,2.3975,2.3877,2.3767,2.3633,2.3565,2.3492,2.3462,2.3384,2.3426,2.3408,2.3505,2.3706,2.3541,2.323,2.3059,2.2858,2.2455,2.2089,2.1906,2.1819,2.1882,2.1911,2.1984,2.2245,2.2479,2.2575,2.2658,2.2654,2.2658,2.2751,2.282,2.2843,0.8623,0.8623,0.8623,0.8623,0.8623,0.8623,0.8623,0.8623,0.8623,0.8623,0.8623,0.8623,0.8623,0.8623,0.8623,0.8617,0.8623,0.8584,0.864,0.8784,0.9243,0.968,1.0356,1.1197,1.2059,1.2217,1.278,1.4133,1.5137,1.5569,1.6272,1.6956,1.732,1.7479,1.7467,1.7443,1.7322,1.7249,1.7165,1.7044,1.6839,1.673,1.6694,1.6694,1.6694,1.667,1.6634,1.6634,1.6634,1.6585,1.6489,1.6368,1.6344,1.6175,1.6066,1.6069,1.6221,1.6182,1.6228,1.628,1.6382,1.6274,1.6105,1.6177,1.6199,1.6306,1.6285,1.6497,1.6599,1.6598,1.6863,1.7543,1.8021,1.8433,1.9316,2.0317,2.0856,2.1631,2.2545,2.2993,2.3534,2.3872,2.4022,2.4183,2.4048,2.403,2.392,2.3938,2.3883,2.3938,2.3926,2.4005,2.4024,2.4024,2.4085,2.4048,2.3694,2.3334,2.3151,2.2821,2.24,2.2075,2.1984,2.1874,2.1892,2.2002,2.2272,2.2419,2.2392,2.2359,2.2373,2.2478,2.2722,2.268,2.2603,0.8623,0.8623,0.8623,0.8623,0.8623,0.8623,0.8623,0.8623,0.8623,0.8623,0.8623,0.8623,0.8623,0.8623,0.8623,0.8623,0.8623,0.8623,0.8623,0.8645,0.8823,0.9222,0.9765,1.0,1.0884,1.127,1.1524,1.2723,1.4269,1.5178,1.5939,1.6619,1.7268,1.7479,1.7479,1.7479,1.7467,1.743,1.7418,1.7298,1.7056,1.6879,1.6767,1.6742,1.6754,1.6767,1.6803,1.6803,1.6791,1.6754,1.6694,1.6658,1.6646,1.6634,1.661,1.6537,1.6456,1.6399,1.6529,1.6568,1.6596,1.6517,1.6525,1.648,1.6366,1.6186,1.6116,1.5977,1.6226,1.6414,1.6557,1.6924,1.7217,1.77,1.8455,1.9555,2.0324,2.0981,2.1849,2.2603,2.3168,2.3609,2.3902,2.4065,2.4202,2.4202,2.4202,2.4177,2.4202,2.4202,2.4202,2.4202,2.4202,2.4202,2.4202,2.4202,2.4048,2.3651,2.337,2.3151,2.2767,2.2387,2.2034,2.1943,2.1925,2.1851,2.1943,2.2034,2.2071,2.2126,2.2149,2.246,2.2803,2.2675,2.2382,0.8218,0.8623,0.8623,0.8623,0.8623,0.8623,0.8623,0.8623,0.8623,0.8623,0.8623,0.8623,0.8623,0.8623,0.8623,0.8623,0.8623,0.8623,0.8623,0.8623,0.8651,0.8823,0.9218,0.9755,1.0339,1.0426,1.1108,1.2091,1.3455,1.4478,1.5383,1.6601,1.718,1.7479,1.7444,1.7491,1.7479,1.7479,1.7467,1.743,1.731,1.7201,1.7129,1.7129,1.7129,1.7117,1.7117,1.717,1.7141,1.7117,1.7032,1.6923,1.6875,1.6803,1.6742,1.6911,1.6827,1.6742,1.6706,1.6718,1.673,1.6706,1.6706,1.6622,1.6513,1.6404,1.6332,1.6356,1.648,1.6541,1.6541,1.6733,1.6798,1.717,1.7804,1.8518,1.9539,2.0539,2.1326,2.2099,2.282,2.3229,2.3573,2.3626,2.3806,2.3978,2.4003,2.4053,2.4127,2.4202,2.4202,2.4202,2.4202,2.4202,2.4202,2.4202,2.4202,2.3895,2.3596,2.3358,2.3078,2.273,2.24,2.2053,2.1925,2.1833,2.1723,2.176,2.1888,2.1925,2.1943,2.2181,2.2382,2.2217,2.198,0.7951,0.859,0.8623,0.8623,0.8623,0.8623,0.8623,0.8623,0.8623,0.8623,0.8623,0.8623,0.8623,0.8623,0.8623,0.8623,0.8623,0.8623,0.8623,0.8623,0.8623,0.8617,0.8867,0.9431,0.9654,0.96,1.0117,1.1088,1.2019,1.3023,1.4263,1.6376,1.6945,1.7227,1.7327,1.7427,1.7479,1.7479,1.7479,1.7467,1.7455,1.7455,1.7455,1.7467,1.7479,1.7479,1.7479,1.7455,1.7455,1.7406,1.7286,1.7189,1.7165,1.7068,1.7073,1.7182,1.7182,1.7092,1.7008,1.696,1.6899,1.6875,1.6815,1.6827,1.6791,1.6767,1.6694,1.6634,1.6754,1.6779,1.6815,1.6851,1.7017,1.7086,1.7273,1.7823,1.8514,1.9707,2.0761,2.1557,2.2258,2.2828,2.3098,2.3143,2.3318,2.3634,2.3786,2.3854,2.3954,2.4003,2.4152,2.4127,2.4177,2.4177,2.4202,2.4202,2.4202,2.4122,2.384,2.3578,2.3321,2.3083,2.2772,2.2419,2.2089,2.198,2.2002,2.1856,2.1687,2.176,2.1815,2.176,2.1778,2.1687,2.1705,0.7917,0.8623,0.8584,0.8584,0.8623,0.8623,0.8623,0.8623,0.8623,0.8623,0.8623,0.8623,0.8623,0.8623,0.8623,0.8623,0.8623,0.8623,0.8623,0.8623,0.8623,0.8623,0.8717,0.8784,0.8845,0.8828,0.9242,0.9732,1.0333,1.1275,1.302,1.5111,1.6032,1.6612,1.6961,1.7203,1.7427,1.7461,1.7479,1.7479,1.7479,1.7479,1.7479,1.7479,1.7479,1.7479,1.7479,1.7479,1.7479,1.7479,1.743,1.7394,1.737,1.7334,1.7375,1.7399,1.7411,1.7346,1.731,1.7298,1.7382,1.7346,1.7225,1.7068,1.7056,1.6839,1.6742,1.6803,1.6984,1.7056,1.7129,1.7237,1.7303,1.7303,1.7428,1.7901,1.8513,1.9118,2.0145,2.102,2.1728,2.2365,2.2757,2.2861,2.3099,2.3416,2.3314,2.3346,2.3481,2.3569,2.3911,2.4035,2.4102,2.4152,2.4177,2.4202,2.4202,2.4202,2.403,2.3804,2.3578,2.334,2.3065,2.2803,2.2492,2.2369,2.2167,2.1929,2.1723,2.1705,2.1687,2.1687,2.1687,2.1687,2.1687,0.6615,0.7288,0.7751,0.8184,0.8623,0.8623,0.8623,0.8623,0.8623,0.8623,0.8623,0.8623,0.8623,0.8623,0.8623,0.8623,0.8623,0.8623,0.8623,0.8623,0.8623,0.8623,0.8623,0.8623,0.8617,0.8623,0.8656,0.915,1.0187,1.0294,1.1323,1.3086,1.4599,1.5762,1.6289,1.6639,1.7036,1.7338,1.7432,1.7491,1.7479,1.7479,1.7479,1.7479,1.7479,1.7479,1.7479,1.7479,1.7479,1.7491,1.7491,1.7515,1.7539,1.7539,1.7539,1.7527,1.7539,1.7539,1.7515,1.7503,1.7479,1.7496,1.7411,1.7322,1.7298,1.7213,1.7189,1.7237,1.7237,1.7286,1.7346,1.7406,1.7443,1.7479,1.7696,1.806,1.8506,1.8999,1.969,2.0613,2.1343,2.2007,2.2336,2.2602,2.2911,2.3191,2.3005,2.286,2.2925,2.3013,2.3281,2.3445,2.347,2.3904,2.4003,2.4078,2.4177,2.4202,2.4202,2.403,2.3822,2.3559,2.3321,2.3078,2.2821,2.2565,2.2272,2.1925,2.176,2.1723,2.1705,2.1687,2.1687,2.1687,2.1687,0.5781,0.6451,0.6949,0.7584,0.8251,0.8518,0.8623,0.8623,0.8623,0.8623,0.8623,0.8623,0.8623,0.8623,0.8623,0.8623,0.8623,0.8623,0.8623,0.8623,0.8623,0.8623,0.8623,0.8623,0.8623,0.8623,0.8656,0.9084,0.9582,0.9682,1.0452,1.1494,1.2604,1.3725,1.4796,1.5463,1.5873,1.6168,1.6688,1.6867,1.6855,1.7303,1.7479,1.7479,1.7479,1.7479,1.7479,1.7491,1.7539,1.7617,1.7653,1.7689,1.7708,1.7732,1.7732,1.775,1.775,1.775,1.7726,1.7551,1.7503,1.7479,1.7479,1.7467,1.7479,1.7479,1.7406,1.743,1.7455,1.7479,1.7479,1.7479,1.7479,1.7479,1.7479,1.7813,1.8206,1.8684,1.9437,2.0229,2.0858,2.1381,2.2068,2.2371,2.2493,2.2794,2.2874,2.2547,2.216,2.2316,2.2486,2.2594,2.2609,2.317,2.3737,2.3755,2.3823,2.4202,2.4202,2.4202,2.4012,2.3785,2.3694,2.362,2.3285,2.2808,2.2565,2.2455,2.2108,2.1742,2.1705,2.1687,2.1687,2.1687,2.1687,0.5748,0.6384,0.6418,0.6853,0.7517,0.8284,0.8584,0.859,0.8623,0.8623,0.8623,0.8623,0.8623,0.8623,0.8623,0.8623,0.8623,0.8623,0.8623,0.8623,0.8623,0.8623,0.8623,0.8623,0.8623,0.8623,0.8623,0.869,0.879,0.8917,0.9483,0.9941,1.0695,1.15,1.2483,1.2946,1.3248,1.3609,1.4862,1.5314,1.5769,1.6492,1.6788,1.689,1.7126,1.7138,1.7097,1.748,1.7636,1.7786,1.7883,1.798,1.8118,1.8155,1.8167,1.8179,1.8234,1.8246,1.8227,1.7768,1.7612,1.7587,1.7636,1.7551,1.7544,1.752,1.7479,1.7479,1.7479,1.7479,1.7479,1.7479,1.7479,1.7479,1.7479,1.7567,1.796,1.8206,1.8923,1.9577,2.0097,2.063,2.1502,2.212,2.2146,2.2346,2.2592,2.2352,2.1806,2.1589,2.1765,2.197,2.2044,2.235,2.2918,2.3251,2.3491,2.3922,2.4127,2.4078,2.4127,2.4067,2.403,2.4042,2.3694,2.3133,2.3078,2.3096,2.251,2.1925,2.1742,2.1687,2.1687,2.1687,2.1687,0.4812,0.5044,0.5513,0.5882,0.628,0.7383,0.8117,0.8551,0.8623,0.8623,0.8623,0.8623,0.8623,0.8623,0.8623,0.8623,0.8623,0.8623,0.8623,0.8623,0.8623,0.8623,0.8623,0.8623,0.8623,0.8623,0.8623,0.8623,0.8656,0.8623,0.8684,0.9084,0.9437,1.0419,1.1862,1.2602,1.2765,1.3105,1.362,1.3933,1.4286,1.4748,1.5146,1.5324,1.6046,1.644,1.6517,1.7155,1.7817,1.798,1.8076,1.8246,1.8324,1.8348,1.8336,1.8312,1.8312,1.83,1.8287,1.8082,1.8034,1.7974,1.7871,1.7786,1.7774,1.7563,1.7515,1.7491,1.7491,1.7491,1.7479,1.7479,1.7479,1.7479,1.7479,1.7479,1.7696,1.7784,1.8181,1.8852,1.939,1.9895,2.0601,2.1231,2.1434,2.1623,2.1868,2.1996,2.1627,2.1171,2.1091,2.1434,2.163,2.1798,2.2051,2.228,2.2664,2.3075,2.3491,2.3762,2.3861,2.3737,2.396,2.3782,2.3633,2.348,2.3407,2.323,2.2643,2.2167,2.2052,2.1827,2.1687,2.1687,2.1687,0.4305,0.4375,0.4812,0.5194,0.5646,0.6929,0.7917,0.8523,0.8623,0.8623,0.8623,0.8623,0.8623,0.8623,0.8623,0.8623,0.8623,0.8623,0.8623,0.8623,0.8623,0.8623,0.8623,0.8623,0.8623,0.8623,0.8623,0.8623,0.8623,0.8623,0.8656,0.869,0.8617,0.9468,1.0608,1.0925,1.1056,1.1389,1.1774,1.2493,1.2955,1.3421,1.3852,1.4417,1.5166,1.5959,1.6277,1.6997,1.8058,1.8136,1.83,1.8481,1.8505,1.8553,1.8565,1.8565,1.8565,1.8608,1.862,1.862,1.8565,1.8553,1.827,1.8076,1.8004,1.7822,1.7684,1.7624,1.7551,1.7515,1.7515,1.7515,1.7527,1.7539,1.7527,1.7539,1.7653,1.7754,1.7867,1.8492,1.8638,1.9137,1.9649,2.0155,2.0601,2.0829,2.1069,2.1152,2.1197,2.0801,2.0278,2.0436,2.0711,2.0801,2.094,2.1181,2.1648,2.2188,2.246,2.2653,2.2526,2.2232,2.2877,2.3477,2.3305,2.3249,2.3499,2.3321,2.2753,2.251,2.2477,2.2187,2.1786,2.1727,2.175,0.4311,0.4308,0.4311,0.4747,0.5604,0.6749,0.7751,0.8518,0.8551,0.8551,0.8623,0.8623,0.8623,0.8623,0.8623,0.8623,0.8623,0.8623,0.8623,0.8623,0.8623,0.8623,0.8623,0.8623,0.8623,0.8623,0.8623,0.8623,0.8623,0.8623,0.8623,0.8623,0.8623,0.8967,0.9154,0.9269,0.9381,0.983,1.0344,1.0973,1.1468,1.2456,1.2843,1.3492,1.4466,1.5184,1.5803,1.6876,1.7839,1.8323,1.858,1.8799,1.8983,1.9092,1.9104,1.908,1.9056,1.9032,1.9007,1.8983,1.8995,1.8911,1.862,1.8427,1.8258,1.8088,1.7925,1.7841,1.7781,1.7689,1.7617,1.7629,1.7653,1.7653,1.7653,1.7726,1.7817,1.7907,1.7943,1.8075,1.7982,1.8323,1.8852,1.9338,1.967,1.9579,1.967,1.9546,1.9681,2.0047,1.9567,1.9164,1.9426,1.9639,1.985,2.0195,2.0541,2.1107,2.0773,2.0834,2.0745,2.0947,2.1549,2.2165,2.269,2.2852,2.2574,2.2747,2.2924,2.2744,2.2389,2.2451,2.2017,2.1886,2.1876,0.4384,0.4313,0.4354,0.4493,0.4772,0.5624,0.6681,0.7751,0.7817,0.8051,0.8623,0.8623,0.8623,0.8623,0.8623,0.8623,0.8623,0.8623,0.8623,0.8623,0.8623,0.8623,0.8623,0.8623,0.8623,0.8623,0.8623,0.8623,0.8623,0.8623,0.8623,0.8623,0.8623,0.8623,0.8623,0.8623,0.8657,0.88,0.924,0.9631,1.0038,1.0762,1.1239,1.1889,1.3074,1.3698,1.4194,1.6003,1.697,1.7267,1.8391,1.8992,1.908,1.9104,1.9104,1.9104,1.9092,1.9092,1.9104,1.9104,1.9104,1.9104,1.8923,1.879,1.8608,1.836,1.8191,1.8118,1.8034,1.7968,1.7943,1.7943,1.7955,1.7943,1.7955,1.8016,1.8125,1.8094,1.8131,1.8094,1.7974,1.8046,1.8546,1.8512,1.875,1.8471,1.8302,1.828,1.8478,1.8944,1.8973,1.8558,1.8709,1.9104,1.908,1.9334,1.9616,1.9867,1.9502,1.9377,1.9672,1.9973,2.0333,2.0804,2.1347,2.1398,2.1221,2.1486,2.185,2.2066,2.1858,2.2137,2.2289,2.2015,2.1739,0.4422,0.4379,0.4365,0.4341,0.4386,0.4833,0.5722,0.6669,0.7268,0.7784,0.8184,0.849,0.8623,0.8623,0.8623,0.8623,0.8623,0.8623,0.8623,0.8623,0.8518,0.8623,0.8623,0.8623,0.8623,0.8623,0.8623,0.8623,0.8623,0.8623,0.8623,0.8623,0.8623,0.8623,0.8623,0.8623,0.8623,0.8612,0.8712,0.8817,0.9084,0.9356,0.966,1.0274,1.1547,1.2128,1.2571,1.4859,1.5817,1.6381,1.7763,1.8387,1.8612,1.888,1.9104,1.9104,1.9104,1.9104,1.9104,1.9104,1.9104,1.9104,1.9104,1.9007,1.8819,1.8613,1.8505,1.842,1.8336,1.8275,1.8287,1.8287,1.8287,1.8275,1.833,1.8354,1.8354,1.8324,1.8312,1.83,1.8263,1.8239,1.8228,1.8125,1.8022,1.8049,1.7991,1.7917,1.8165,1.8613,1.85,1.8131,1.8435,1.8795,1.8704,1.8461,1.8498,1.8468,1.7995,1.8036,1.8519,1.88,1.9011,1.945,2.0014,2.0066,2.0128,2.024,2.0499,2.0776,2.1064,2.1225,2.1458,2.1623,2.1398,0.4444,0.4469,0.4365,0.4335,0.4338,0.4502,0.4898,0.5498,0.6546,0.7268,0.7502,0.8023,0.8084,0.7817,0.7712,0.7679,0.7579,0.7545,0.7746,0.8351,0.8117,0.8184,0.8556,0.8623,0.8623,0.8623,0.8623,0.8623,0.8623,0.8623,0.8623,0.8623,0.8623,0.8623,0.8623,0.8623,0.8623,0.8623,0.8623,0.8717,0.895,0.9183,0.9449,1.0114,1.116,1.2068,1.2627,1.375,1.4968,1.5609,1.6495,1.7141,1.8066,1.8399,1.8688,1.9008,1.8944,1.9008,1.904,1.9104,1.9104,1.9104,1.9104,1.908,1.8959,1.8831,1.8766,1.8729,1.8657,1.8608,1.8608,1.8577,1.8565,1.8596,1.8608,1.8657,1.8681,1.8657,1.8589,1.8589,1.8613,1.8596,1.8396,1.8312,1.8246,1.8028,1.7835,1.775,1.7877,1.8307,1.8177,1.7843,1.804,1.8273,1.8019,1.777,1.7359,1.7088,1.6873,1.676,1.7286,1.7489,1.7569,1.7991,1.8394,1.898,1.9184,1.9033,1.9096,1.9719,1.9994,2.0159,2.0417,2.0648,2.0895,0.4553,0.4482,0.4452,0.4473,0.4442,0.4471,0.4547,0.4704,0.4652,0.544,0.6477,0.6316,0.618,0.6217,0.5811,0.5674,0.56,0.6001,0.6105,0.6673,0.7011,0.7717,0.839,0.849,0.859,0.8623,0.8623,0.8623,0.8623,0.8623,0.8623,0.8623,0.8623,0.8623,0.8623,0.8623,0.8623,0.8623,0.8623,0.8656,0.8751,0.8984,0.9283,0.9555,1.018,1.0518,1.1075,1.1787,1.2405,1.2923,1.4851,1.6365,1.7905,1.7679,1.8098,1.8752,1.8591,1.8655,1.888,1.904,1.9104,1.9104,1.9104,1.9104,1.908,1.9044,1.9007,1.8971,1.8947,1.8911,1.8874,1.8874,1.8843,1.8874,1.8874,1.8935,1.8983,1.8935,1.8886,1.8911,1.8959,1.8819,1.865,1.8529,1.8432,1.8258,1.8004,1.7864,1.779,1.8017,1.8013,1.7752,1.7608,1.7672,1.7484,1.7411,1.7189,1.6996,1.6923,1.6593,1.6226,1.6454,1.676,1.6535,1.6723,1.745,1.7713,1.7186,1.7437,1.8314,1.8731,1.8827,1.8867,1.9054,1.9638,0.4635,0.4597,0.457,0.419,0.3752,0.3735,0.3462,0.3003,0.2719,0.3164,0.4113,0.4266,0.4394,0.4476,0.4096,0.3874,0.3964,0.4294,0.4864,0.5402,0.6138,0.6844,0.755,0.8289,0.8556,0.8623,0.8623,0.8623,0.8623,0.8623,0.8623,0.8623,0.8623,0.8623,0.8623,0.8623,0.8628,0.8623,0.8595,0.8628,0.8628,0.879,0.8984,0.9123,0.9289,0.9495,0.9861,1.0512,1.0836,1.1582,1.3251,1.4958,1.6171,1.6473,1.699,1.7744,1.8066,1.8206,1.8559,1.8816,1.8976,1.8976,1.9072,1.904,1.9104,1.9068,1.9068,1.9044,1.9044,1.9007,1.9007,1.9007,1.9007,1.9007,1.9007,1.9032,1.9056,1.9032,1.9007,1.9019,1.9044,1.8988,1.8867,1.8855,1.8734,1.8572,1.8294,1.8149,1.8058,1.7911,1.7821,1.7768,1.7695,1.7556,1.7467,1.743,1.7334,1.7153,1.6972,1.6682,1.6365,1.6091,1.5939,1.6079,1.6118,1.6178,1.6205,1.6211,1.623,1.6975,1.7279,1.745,1.753,1.7689,1.8135,0.4544,0.447,0.4389,0.3667,0.2612,0.2567,0.2078,0.1289,0.0967,0.0895,0.1143,0.1977,0.2473,0.286,0.264,0.2921,0.2804,0.2127,0.283,0.4227,0.5399,0.6138,0.7011,0.7851,0.8351,0.8623,0.8623,0.8623,0.8623,0.8623,0.8623,0.8623,0.859,0.8595,0.8606,0.8617,0.8672,0.8666,0.8666,0.8628,0.8611,0.8595,0.879,0.895,0.9084,0.9256,0.9461,0.9827,1.012,1.1035,1.2306,1.4077,1.5163,1.5726,1.6278,1.6969,1.7389,1.7582,1.7905,1.8302,1.8527,1.872,1.8848,1.8848,1.8816,1.874,1.874,1.874,1.874,1.9008,1.9008,1.9104,1.9104,1.9104,1.9104,1.9072,1.9072,1.9072,1.904,1.904,1.904,1.9028,1.906,1.906,1.8963,1.8782,1.8681,1.856,1.8391,1.8222,1.8088,1.7998,1.7925,1.7762,1.761,1.7467,1.7418,1.7286,1.708,1.6779,1.6489,1.6232,1.6088,1.6118,1.6105,1.6108,1.6105,1.6244,1.6201,1.6233,1.6574,1.6971,1.6794,1.6903,1.68,0.4107,0.3239,0.3232,0.2535,0.1592,0.1487,0.1379,0.1016,0.0109,-0.029,-0.0399,-0.1012,-0.0714,0.0418,-0.1496,-0.1313,0.0411,-0.0171,0.0677,0.2018,0.408,0.5282,0.6485,0.7713,0.8428,0.8628,0.8634,0.8623,0.8634,0.8628,0.859,0.86,0.8606,0.8649,0.8731,0.8747,0.8769,0.8785,0.8753,0.8715,0.8687,0.8655,0.8628,0.8684,0.8684,0.8756,0.8989,0.9682,1.0041,1.0836,1.1985,1.3694,1.4651,1.5075,1.5639,1.6289,1.671,1.6872,1.7195,1.7518,1.7755,1.7711,1.7711,1.7679,1.7571,1.741,1.741,1.7431,1.7657,1.8515,1.8708,1.9008,1.9104,1.9072,1.904,1.8976,1.8944,1.888,1.8816,1.8816,1.8816,1.888,1.8944,1.8976,1.9008,1.8871,1.8814,1.8705,1.8669,1.8518,1.8367,1.8295,1.8222,1.805,1.7877,1.761,1.752,1.737,1.7213,1.6936,1.6666,1.6406,1.6325,1.6344,1.632,1.6335,1.6344,1.6368,1.6456,1.6506,1.6564,1.6676,1.6441,1.6395,1.6545]},{"header":{"parameterUnit":"m.s-1","parameterCategory":1,"la1":31.0,"la2":29.5877,"lo1":-88.7671,"lo2":-86.6584,"dy":0.0162,"dx":0.0185,"nx":115,"ny":88,"refTime":"2023-08-22T06:00:00:Z","depth":0,"parameterNumber":3,"parameterNumberName":"V-component_of_WINDS"},"data":[0.0,0.0,0.0,0.0,0.0,0.0,0.0,0.0,0.0,0.0,0.0,0.0,0.0,0.0,0.0,0.0,0.0,0.0,0.0,0.0,0.0,0.0,0.0,0.0,0.0,0.0,0.0,0.0,0.0,0.0,0.0,0.0,0.0,0.0,0.0,0.0,0.0,0.0,0.0,0.0,0.0,0.0,0.0,0.0,0.0,0.0,0.0,0.0,0.0,0.0,0.0,0.0,0.0,0.0,0.0,0.0,0.0,0.0,0.0,0.0,0.0,0.0,0.0,0.0,0.0,0.0,0.0,0.0,0.0,0.0,0.0,0.0,0.0,0.0,0.0,0.0,0.0,0.0,0.0,0.0,0.0,0.0,0.0,0.0,0.0,0.0,0.0,0.0,0.0,0.0,0.0,0.0,0.0,0.0,0.0,0.0,0.0,0.0,0.0,0.0,0.0,0.0,0.0,0.0,0.0,0.0,0.0,0.0,0.0,0.0,0.0,0.0,0.0,0.0,0.0,0.0,0.0,0.0,0.0,0.0,0.0,0.0,0.0,0.0,0.0,0.0,0.0,0.0,0.0,0.0,0.0,0.0,0.0,0.0,0.0,0.0,0.0,0.0,0.0,0.0,0.0,0.0,0.0,0.0,0.0,0.0,0.0,0.0,0.0,0.0,0.0,0.0,0.0,0.0,0.0,0.0,0.0,0.0,0.0,0.0,0.0,0.0,0.0,0.0,0.0,0.0,0.0,0.0,0.0,0.0,0.0,0.0,0.0,0.0,0.0,0.0,0.0,0.0,0.0,0.0,0.0,0.0,0.0,0.0,0.0,0.0,0.0,0.0,0.0,0.0,0.0,0.0,0.0,0.0,0.0,0.0,0.0,0.0,0.0,0.0,0.0,0.0,0.0,0.0,0.0,0.0,0.0,0.0,0.0,0.0,0.0,0.0,0.0,0.0,0.0,0.0,0.0,0.0,0.0,0.0,0.0,0.0,0.0,0.0,0.0,0.0,0.0,0.0,0.0,0.0,0.0,0.0,0.0,0.0,0.0,0.0,0.0,0.0,0.0,0.0,0.0,0.0,0.0,0.0,0.0,0.0,0.0,0.0,0.0,0.0,0.0,0.0,0.0,0.0,0.0,0.0,0.0,0.0,0.0,0.0,0.0,0.0,0.0,0.0,0.0,0.0,0.0,0.0,0.0,0.0,0.0,0.0,0.0,0.0,0.0,0.0,0.0,0.0,0.0,0.0,0.0,0.0,0.0,0.0,0.0,0.0,0.0,0.0,0.0,0.0,0.0,0.0,0.0,0.0,0.0,0.0,0.0,0.0,0.0,0.0,0.0,0.0,0.0,0.0,0.0,0.0,0.0,0.0,0.0,0.0,0.0,0.0,0.0,0.0,0.0,0.0,0.0,0.0,0.0,0.0,0.0,0.0,0.0,0.0,0.0,0.0,0.0,0.0,0.0,0.0,0.0,0.0,0.0,0.0,0.0,0.0,0.0,0.0,0.0,0.0,0.0,0.0,0.0,0.0,0.0,0.0,0.0,0.0,0.0,0.0,0.0,0.0,0.0,0.0,0.0,0.0,0.0,0.0,0.0,0.0,0.0,0.0,0.0,0.0,0.0,0.0,0.0,0.0,0.0,0.0,0.0,0.0,0.0,0.0,0.0,0.0,0.0,0.0,0.0,0.0,0.0,0.0,0.0,0.0,0.0,0.0,0.0,0.0,0.0,0.0,0.0,0.0,0.0,0.0,0.0,0.0,0.0,0.0,0.0,0.0,0.0,0.0,0.0,0.0,0.0,0.0,0.0,0.0,0.0,0.0,0.0,0.0,0.0,0.0,0.0,0.0,0.0,0.0,0.0,0.0,0.0,0.0,0.0,0.0,0.0,0.0,0.0,0.0,0.0,0.0,0.0,0.0,0.0,0.0,0.0,0.0,0.0,0.0,0.0,0.0,0.0,0.0,0.0,0.0,0.0,0.0,0.0,0.0,0.0,0.0,0.0,0.0,0.0,0.0,0.0,0.0,0.0,0.0,0.0,0.0,0.0,0.0,0.0,0.0,0.0,0.0,0.0,0.0,0.0,0.0,0.0,0.0,0.0,0.0,0.0,0.0,0.0,0.0,0.0,0.0,0.0,0.0,0.0,0.0,0.0,0.0,0.0,0.0,0.0,0.0,0.0,0.0,0.0,0.0,0.0,0.0,0.0,0.0,0.0,0.0,0.0,0.0,0.0,0.0,0.0,0.0,0.0,0.0,0.0,0.0,0.0,0.0,0.0,0.0,0.0,0.0,0.0,0.0,0.0,0.0,0.0,0.0,0.0,0.0,0.0,0.0,0.0,0.0,0.0,0.0,0.0,0.0,0.0,0.0,0.0,0.0,0.0,0.0,0.0,0.0,0.0,0.0,0.0,0.0,0.0,0.0,0.0,0.0,0.0,0.0,0.0,0.0,0.0,0.0,0.0,0.0,0.0,0.0,0.0,0.0,0.0,0.0,0.0,0.0,0.0,0.0,0.0,0.0,0.0,0.0,0.0,0.0,0.0,0.0,0.0,0.0,0.0,0.0,0.0,0.0,0.0,0.0,0.0,0.0,0.0,0.0,0.0,0.0,0.0,0.0,0.0,0.0,0.0,0.0,0.0,0.0,0.0,0.0,0.0,0.0,0.0,0.0,0.0,0.0,0.0,0.0,0.0,0.0,0.0,0.0,0.0,0.0,0.0,0.0,0.0,0.0,0.0,0.0,0.0,0.0,0.0,0.0,0.0,0.0,0.0,0.0,0.0,0.0,0.0,0.0,0.0,0.0,0.0,0.0,0.0,0.0,0.0,0.0,0.0,0.0,0.0,0.0,0.0,0.0,0.0,0.0,0.0,0.0,0.0,0.0,0.0,0.0,0.0,0.0,0.0,0.0,0.0,0.0,0.0,0.0,0.0,0.0,0.0,0.0,0.0,0.0,0.0,0.0,0.0,0.0,0.0,0.0,0.0,0.0,0.0,0.0,0.0,0.0,0.0,0.0,0.0,0.0,0.0,0.0,0.0,0.0,0.0,0.0,0.0,0.0,0.0,0.0,0.0,0.0,0.0,0.0,0.0,0.0,0.0,0.0,0.0,0.0,0.0,0.0,0.0,0.0,0.0,0.0,0.0,0.0,0.0,0.0,0.0,0.0,0.0,0.0,0.0,0.0,0.0,0.0,0.0,0.0,0.0,0.0,0.0,0.0,0.0,0.0,0.0,0.0,0.0,0.0,0.0,0.0,0.0,0.0,0.0,0.0,0.0,0.0,0.0,0.0,0.0,0.0,0.0,0.0,0.0,0.0,0.0,0.0,0.0,0.0,0.0,0.0,0.0,0.0,0.0,0.0,0.0,0.0,0.0,0.0,0.0,0.0,0.0,0.0,0.0,0.0,0.0,0.0,0.0,0.0,0.0,0.0,0.0,0.0,0.0,0.0,0.0,0.0,0.0,0.0,0.0,0.0,0.0,0.0,0.0,0.0,0.0,0.0,0.0,0.0,0.0,0.0,0.0,0.0,0.0,0.0,0.0,0.0,0.0,0.0,0.0,0.0,0.0,0.0,0.0,0.0,0.0,0.0,0.0,0.0,0.0,0.0,0.0,0.0,0.0,0.0,0.0,0.0,0.0,0.0,0.0,0.0,0.0,0.0,0.0,0.0,0.0,0.0,0.0,0.0,0.0,0.0,0.0,0.0,0.0,0.0,0.0,0.0,0.0,0.0,0.0,0.0,0.0,0.0,0.0,0.0,0.0,0.0,0.0,0.0,0.0,0.0,0.0,0.0,0.0,0.0,0.0,0.0,0.0,0.0,0.0,0.0,0.0,0.0,0.0,0.0,0.0,0.0,0.0,0.0,0.0,0.0,0.0,0.0,0.0,0.0,0.0,0.0,0.0,0.0,0.0,0.0,0.0,0.0,0.0,0.0,0.0,0.0,0.0,0.0,0.0,0.0,0.0,0.0,0.0,0.0,0.0,0.0,0.0,0.0,0.0,0.0,0.0,0.0,0.0,0.0,0.0,0.0,0.0,0.0,0.0,0.0,0.0,0.0,0.0,0.0,0.0,0.0,0.0,0.0,0.0,0.0,0.0,0.0,0.0,0.0,0.0,0.0,0.0,0.0,0.0,0.0,0.0,0.0,0.0,0.0,0.0,0.0,0.0,0.0,0.0,0.0,0.0,0.0,0.0,0.0,0.0,0.0,0.0,0.0,0.0,0.0,0.0,0.0,0.0,0.0,0.0,0.0,0.0,0.0,0.0,0.0,0.0,0.0,1.0534,0.0,0.0,0.0,0.0,0.0,0.0,0.0,0.0,0.0,0.0,0.0,0.0,0.0,0.0,0.0,0.0,0.0,0.0,0.0,0.0,0.0,0.0,0.0,0.0,0.0,0.0,0.0,0.0,0.0,0.0,0.0,0.0,0.0,0.0,0.0,0.0,0.0,0.0,0.0,0.0,0.0,0.0,0.0,0.0,0.0,0.0,0.0,0.0,0.0,0.0,0.0,0.0,0.0,0.0,0.0,0.0,0.0,0.0,0.0,0.0,0.0,0.0,0.0,0.0,0.0,0.0,0.0,0.0,0.0,0.0,0.0,0.0,0.0,0.0,0.0,0.0,0.0,0.0,0.0,0.0,0.0,0.0,0.0,0.0,0.0,0.0,0.0,0.0,0.0,0.0,0.0,0.0,0.0,0.0,0.0,0.0,0.0,0.0,0.0,0.0,0.0,0.0,0.0,0.0,0.0,0.0,0.0,0.0,0.0,0.0,1.1744,1.1338,1.1094,1.0943,1.0867,0.0,0.0,0.0,0.0,0.0,0.0,0.0,0.0,0.0,0.0,0.0,0.0,0.0,0.0,0.0,0.0,0.0,0.0,0.0,0.0,0.0,0.0,0.0,0.0,0.0,0.0,0.0,0.0,0.0,0.0,0.0,0.0,0.0,0.0,0.0,0.0,0.0,0.0,0.0,0.0,0.0,0.0,0.0,0.0,0.0,0.0,0.0,0.0,0.0,0.0,0.0,0.0,0.0,0.0,0.0,0.0,0.0,0.0,0.0,0.0,0.0,0.0,0.0,0.0,0.0,0.0,0.0,0.0,0.0,0.0,0.0,0.0,0.0,0.0,0.0,0.0,0.0,0.0,0.0,0.0,0.0,0.0,0.0,0.0,0.0,0.0,0.0,0.0,0.0,0.0,0.0,0.0,0.0,0.0,0.0,0.0,0.0,0.0,0.0,0.0,0.0,0.0,0.0,0.0,0.0,0.0,0.0,0.0,0.0,0.0,0.0,0.0,1.1793,1.1652,1.1592,0.0,0.0,0.0,0.0,0.0,0.0,0.0,0.0,0.0,0.0,0.0,0.0,0.0,0.0,0.0,0.0,0.0,0.0,0.0,0.0,0.0,0.0,0.0,0.0,0.0,0.0,0.0,0.0,0.0,0.0,0.0,0.0,0.0,0.0,0.0,0.0,0.0,0.0,0.0,0.0,0.0,0.0,0.0,0.0,0.0,0.0,0.0,0.0,0.0,0.0,0.0,0.0,0.0,0.0,0.0,0.0,0.0,0.0,0.0,0.0,0.0,0.0,0.0,0.0,0.0,0.0,0.0,0.0,0.0,0.0,0.0,0.0,0.0,0.0,0.0,0.0,0.0,0.0,0.0,0.0,0.0,0.0,0.0,0.0,0.0,0.0,0.0,0.0,0.0,0.0,0.0,0.0,0.0,0.0,0.0,0.0,0.0,0.0,0.0,0.0,0.0,0.0,0.0,0.0,0.0,0.0,0.0,0.0,0.0,0.0,1.3143,1.324,1.3156,0.0,1.3282,0.0,0.0,0.0,0.0,0.0,0.0,0.0,0.0,0.0,0.0,0.0,0.0,0.0,0.0,0.0,0.0,0.0,0.0,0.0,0.0,0.0,0.0,0.0,0.0,0.0,0.0,0.0,0.0,0.0,0.0,0.0,0.0,0.0,0.0,0.0,0.0,0.0,0.0,0.0,0.0,0.0,0.0,0.0,0.0,0.0,0.0,0.0,0.0,0.0,0.0,0.0,0.0,0.0,0.0,0.0,0.0,0.0,0.0,0.0,0.0,0.0,0.0,0.0,0.0,0.0,0.0,0.0,0.0,0.0,0.0,0.0,0.0,0.0,0.0,0.0,0.0,0.0,0.0,0.0,0.0,0.0,0.0,0.0,0.0,0.0,0.0,0.0,0.0,0.0,0.0,0.0,0.0,0.0,0.0,0.0,0.0,0.0,0.0,0.0,0.0,0.0,0.0,0.0,0.0,0.0,0.0,0.0,0.0,0.0,0.0,1.3828,1.3871,1.3843,1.357,0.0,0.0,0.0,0.0,0.0,0.0,0.0,0.0,0.0,0.0,0.0,0.0,0.0,0.0,0.0,0.0,0.0,0.0,0.0,0.0,0.0,0.0,0.0,0.0,0.0,0.0,0.0,0.0,0.0,0.0,0.0,0.0,0.0,0.0,0.0,0.0,0.0,0.0,0.0,0.0,0.0,0.0,0.0,0.0,0.0,0.0,0.0,0.0,0.0,0.0,0.0,0.0,0.0,0.0,0.0,0.0,0.0,0.0,0.0,0.0,0.0,0.0,0.0,0.0,0.0,0.0,0.0,0.0,0.0,0.0,0.0,0.0,0.0,0.0,0.0,0.0,0.0,0.0,0.0,0.0,0.0,0.0,0.0,0.0,0.0,0.0,0.0,0.0,0.0,0.0,0.0,0.0,0.0,0.0,0.0,0.0,0.0,0.0,0.0,0.0,0.0,0.0,0.0,0.0,0.0,0.0,0.0,0.0,0.0,0.0,1.4515,1.4348,1.4419,1.4428,1.399,1.3009,0.0,0.0,0.0,0.0,0.0,0.0,0.0,0.0,0.0,0.0,0.0,0.0,0.0,0.0,0.0,0.0,0.0,0.0,0.0,0.0,0.0,0.0,0.0,0.0,0.0,0.0,0.0,0.0,0.0,0.0,0.0,0.0,0.0,0.0,0.0,0.0,0.0,0.0,0.0,0.0,0.0,0.0,0.0,0.0,0.0,0.0,0.0,0.0,0.0,0.0,0.0,0.0,0.0,0.0,0.0,0.0,0.0,0.0,0.0,0.0,0.0,0.0,0.0,0.0,0.0,0.0,0.0,0.0,0.0,0.0,0.0,0.0,0.0,0.0,0.0,0.0,0.0,0.0,0.0,0.0,0.0,0.0,0.0,0.0,0.0,0.0,0.0,0.0,0.0,0.0,0.0,0.0,0.0,0.0,0.0,0.0,0.0,0.0,0.0,0.0,0.0,0.0,0.0,0.0,0.0,0.0,0.0,0.0,1.6273,1.5194,1.4719,1.4977,1.5015,1.4617,0.0,0.0,0.0,0.0,0.0,0.0,0.0,0.0,0.0,0.0,0.0,0.0,0.0,0.0,0.0,0.0,0.0,0.0,0.0,0.0,0.0,0.0,0.0,0.0,0.0,0.0,0.0,0.0,0.0,0.0,0.0,0.0,0.0,0.0,0.0,0.0,0.0,0.0,0.0,0.0,0.0,0.0,0.0,0.0,0.0,0.0,0.0,0.0,0.0,0.0,0.0,0.0,0.0,0.0,0.0,0.0,0.0,0.0,0.0,0.0,0.0,0.0,0.0,0.0,0.0,0.0,0.0,0.0,0.0,0.0,0.0,0.0,0.0,0.0,0.0,0.0,0.0,0.0,0.0,0.0,0.0,0.0,0.0,0.0,0.0,0.0,0.0,0.0,0.0,0.0,0.0,0.0,0.0,0.0,0.0,0.0,0.0,0.0,0.0,0.0,0.0,0.0,0.0,0.0,0.0,0.0,0.0,0.0,0.0,1.5373,1.488,1.4973,1.5701,1.4942,1.4505,0.0,0.0,0.0,0.0,0.0,0.0,0.0,0.0,0.0,0.0,0.0,0.0,0.0,0.0,0.0,0.0,0.0,0.0,0.0,0.0,0.0,0.0,0.0,0.0,0.0,0.0,0.0,0.0,0.0,0.0,0.0,0.0,0.0,0.0,0.0,0.0,0.0,0.0,0.0,0.0,0.0,0.0,0.0,0.0,0.0,0.0,0.0,0.0,0.0,0.0,0.0,0.0,0.0,0.0,0.0,0.0,0.0,0.0,0.0,0.0,0.0,0.0,0.0,0.0,0.0,0.0,0.0,0.0,0.0,0.0,0.0,0.0,0.0,0.0,0.0,0.0,0.0,0.0,0.0,0.0,0.0,0.0,0.0,0.0,0.0,0.0,0.0,0.0,0.0,0.0,0.0,0.0,0.0,0.0,0.0,0.0,0.0,0.0,0.0,0.0,0.0,0.0,0.0,0.0,0.0,0.0,0.0,0.0,0.0,1.5186,0.0,1.5474,1.5977,1.5052,1.4489,0.0,0.0,0.0,0.0,0.0,0.0,0.0,0.0,0.0,0.0,0.0,0.0,0.0,0.0,0.0,0.0,0.0,0.0,0.0,0.0,0.0,0.0,0.0,0.0,0.0,0.0,0.0,0.0,0.0,0.0,0.0,0.0,0.0,0.0,0.0,0.0,0.0,0.0,0.0,0.0,0.0,0.0,0.0,0.0,0.0,0.0,0.0,0.0,0.0,0.0,0.0,0.0,0.0,0.0,0.0,0.0,0.0,0.0,0.0,0.0,0.0,0.0,0.0,0.0,0.0,0.0,0.0,0.0,0.0,0.0,0.0,0.0,0.0,0.0,0.0,0.0,0.0,0.0,0.0,0.0,0.0,0.0,0.0,0.0,0.0,0.0,0.0,0.0,0.0,0.0,0.0,0.0,0.0,0.0,0.0,0.0,0.0,0.0,0.0,0.0,0.0,0.0,0.0,0.0,0.0,0.0,0.0,0.0,1.5539,1.5964,1.6218,1.6165,1.575,1.5309,1.4648,0.0,0.0,0.0,0.0,0.0,0.0,0.0,0.0,0.0,0.0,0.0,0.0,0.0,0.0,0.0,0.0,0.0,0.0,0.0,0.0,0.0,0.0,0.0,0.0,0.0,0.0,0.0,0.0,0.0,0.0,0.0,0.0,0.0,0.0,0.0,0.0,0.0,0.0,0.0,0.0,0.0,0.0,0.0,0.0,0.0,0.0,0.0,0.0,0.0,0.0,0.0,0.0,0.0,0.0,0.0,0.0,0.0,0.0,0.0,0.0,0.0,0.0,0.0,0.0,0.0,0.0,0.0,0.0,0.0,0.0,0.0,0.0,0.0,0.0,0.0,0.0,0.0,0.0,0.0,0.0,0.0,0.0,0.0,0.0,0.0,0.0,0.0,0.0,0.0,0.0,0.0,0.0,0.0,0.0,0.0,0.0,0.0,0.0,0.0,0.0,0.0,0.0,0.0,0.0,0.0,0.0,0.0,0.0,0.0,1.5753,1.6172,1.6582,1.6858,1.5602,1.5197,0.0,0.0,0.0,0.0,0.0,0.0,0.0,0.0,0.0,0.0,0.0,0.0,0.0,0.0,0.0,0.0,0.0,0.0,0.0,0.0,0.0,0.0,0.0,0.0,0.0,0.0,0.0,0.0,0.0,0.0,0.0,0.0,0.0,0.0,0.0,0.0,0.0,0.0,0.0,0.0,0.0,0.0,0.0,0.0,0.0,0.0,0.0,0.0,0.0,0.0,0.0,0.0,0.0,0.0,0.0,0.0,0.0,0.0,0.0,0.0,0.0,0.0,0.0,0.0,0.0,0.0,0.0,0.0,0.0,0.0,0.0,0.0,0.0,0.0,0.0,0.0,0.0,0.0,0.0,0.0,0.0,0.0,0.0,0.0,0.0,0.0,0.0,0.0,0.0,0.0,0.0,0.0,0.0,0.0,0.0,0.0,0.0,0.0,0.0,0.0,0.0,0.0,0.0,0.0,0.0,0.0,0.0,0.0,0.0,1.6323,1.6629,1.6976,1.732,1.6005,1.5699,1.6496,0.0,0.0,0.0,0.0,0.0,0.0,0.0,0.0,0.0,0.0,0.0,0.0,0.0,0.0,0.0,0.0,0.0,0.0,0.0,0.0,0.0,0.0,0.0,0.0,0.0,0.0,0.0,0.0,0.0,0.0,0.0,0.0,0.0,0.0,0.0,0.0,0.0,0.0,0.0,0.0,0.0,0.0,0.0,0.0,0.0,0.0,0.0,0.0,0.0,0.0,0.0,0.0,0.0,0.0,0.0,0.0,0.0,0.0,0.0,0.0,0.0,0.0,0.0,0.0,0.0,0.0,0.0,0.0,0.0,0.0,0.0,0.0,0.0,0.0,0.0,0.0,0.0,0.0,0.0,0.0,0.0,0.0,0.0,0.0,0.0,0.0,0.0,0.0,0.0,0.0,0.0,0.0,0.0,0.0,0.0,0.0,0.0,0.0,0.0,0.0,0.0,0.0,0.0,0.0,0.0,0.0,0.0,0.0,1.7423,1.746,1.7387,1.7195,1.6565,1.6269,0.0,0.0,0.0,0.0,0.0,0.0,0.0,0.0,0.0,0.0,0.0,0.0,0.0,0.0,0.0,0.0,0.0,0.0,0.0,0.0,0.0,0.0,0.0,0.0,0.0,0.0,0.0,0.0,0.0,0.0,0.0,0.0,0.0,0.0,0.0,0.0,0.0,0.0,0.0,0.0,0.0,0.0,0.0,0.0,0.0,0.0,0.0,0.0,0.0,0.0,0.0,0.0,0.0,0.0,0.0,0.0,0.0,0.0,0.0,0.0,0.0,0.0,0.0,0.0,0.0,0.0,0.0,0.0,0.0,0.0,0.0,0.0,0.0,0.0,0.0,0.0,0.0,0.0,0.0,0.0,0.0,0.0,0.0,0.0,0.0,0.0,0.0,0.0,0.0,0.0,0.0,0.0,0.0,0.0,0.0,0.0,0.0,0.0,0.0,0.0,0.0,0.0,0.0,0.0,0.0,0.0,0.0,0.0,0.0,1.6626,1.7038,1.7561,1.8093,1.7829,1.7763,0.0,0.0,0.0,0.0,0.0,0.0,0.0,0.0,0.0,0.0,0.0,0.0,0.0,0.0,0.0,0.0,0.0,0.0,0.0,0.0,0.0,0.0,0.0,0.0,0.0,0.0,0.0,0.0,0.0,0.0,0.0,0.0,0.0,0.0,0.0,0.0,0.0,0.0,0.0,0.0,0.0,0.0,0.0,0.0,0.0,0.0,0.0,0.0,0.0,0.0,0.0,0.0,0.0,0.0,0.0,0.0,0.0,0.0,0.0,0.0,0.0,0.0,0.0,0.0,0.0,0.0,0.0,0.0,0.0,0.0,0.0,0.0,0.0,0.0,0.0,0.0,0.0,0.0,0.0,0.0,0.0,0.0,0.0,0.0,0.0,0.0,0.0,0.0,0.0,0.0,0.0,0.0,0.0,0.0,0.0,0.0,0.0,0.0,0.0,0.0,0.0,0.0,0.0,0.0,0.0,0.0,0.0,0.0,1.7218,1.7231,1.7487,1.7959,1.8637,1.8342,1.8344,0.0,0.0,0.0,0.0,0.0,0.0,0.0,0.0,0.0,0.0,0.0,0.0,0.0,0.0,0.0,0.0,0.0,0.0,0.0,0.0,0.0,0.0,0.0,0.0,0.0,0.0,0.0,0.0,0.0,0.0,0.0,0.0,0.0,0.0,0.0,0.0,0.0,0.0,0.0,0.0,0.0,0.0,0.0,0.0,0.0,0.0,0.0,0.0,0.0,0.0,0.0,0.0,0.0,0.0,0.0,0.0,0.0,0.0,0.0,0.0,0.0,0.0,0.0,0.0,0.0,0.0,0.0,0.0,0.0,0.0,0.0,0.0,0.0,0.0,0.0,0.0,0.0,0.0,0.0,0.0,0.0,0.0,0.0,0.0,0.0,0.0,0.0,0.0,0.0,0.0,0.0,0.0,0.0,0.0,0.0,0.0,0.0,0.0,0.0,0.0,0.0,0.0,0.0,0.0,0.0,0.0,0.0,0.0,1.8008,1.8446,1.8248,1.8377,1.8882,1.8454,1.8493,0.0,0.0,0.0,0.0,0.0,0.0,0.0,0.0,0.0,0.0,0.0,0.0,0.0,0.0,0.0,0.0,0.0,0.0,0.0,0.0,0.0,0.0,0.0,0.0,0.0,0.0,0.0,0.0,0.0,0.0,0.0,0.0,0.0,0.0,0.0,0.0,0.0,0.0,0.0,0.0,0.0,0.0,0.0,0.0,0.0,0.0,0.0,0.0,0.0,0.0,0.0,0.0,0.0,0.0,0.0,0.0,0.0,0.0,0.0,0.0,0.0,0.0,0.0,0.0,0.0,0.0,0.0,0.0,0.0,0.0,0.0,0.0,0.0,0.0,0.0,0.0,0.0,0.0,0.0,0.0,0.0,0.0,0.0,0.0,0.0,0.0,0.0,0.0,0.0,0.0,0.0,0.0,0.0,0.0,0.0,0.0,0.0,0.0,0.0,0.0,0.0,0.0,0.0,0.0,0.0,0.0,0.0,0.0,1.8145,1.8119,1.7934,1.8253,1.9176,1.8843,1.9148,0.0,0.0,0.0,0.0,0.0,0.0,0.0,0.0,0.0,0.0,0.0,0.0,0.0,0.0,0.0,0.0,0.0,0.0,0.0,0.0,0.0,0.0,0.0,0.0,0.0,0.0,0.0,0.0,0.0,0.0,0.0,0.0,0.0,0.0,0.0,0.0,0.0,0.0,0.0,0.0,0.0,0.0,0.0,0.0,0.0,0.0,0.0,0.0,1.3051,0.0,0.0,0.0,0.0,0.0,0.0,0.0,0.0,0.0,0.0,0.0,0.0,0.0,0.0,0.0,0.0,0.0,0.0,0.0,0.0,0.0,0.0,0.0,0.0,0.0,0.0,0.0,0.0,0.0,0.0,0.0,0.0,0.0,0.0,0.0,0.0,0.0,0.0,0.0,0.0,0.0,0.0,0.0,0.0,0.0,0.0,0.0,0.0,0.0,0.0,0.0,0.0,0.0,0.0,0.0,0.0,0.0,0.0,0.0,1.8582,1.8467,1.855,1.8944,1.9632,1.9406,1.9807,0.0,0.0,0.0,0.0,0.0,0.0,0.0,0.0,0.0,0.0,0.0,0.0,0.0,0.0,0.0,0.0,0.0,0.0,0.0,0.0,0.0,0.0,0.0,0.0,0.0,0.0,0.0,0.0,0.0,0.0,0.0,0.0,0.0,0.0,0.0,0.0,0.0,0.0,0.0,0.0,0.0,0.0,0.0,0.0,0.0,0.0,0.0,0.0,0.0,0.0,0.0,0.0,0.0,0.0,0.0,0.0,0.0,0.0,0.0,0.0,0.0,0.0,0.0,0.0,0.0,0.0,0.0,0.0,0.0,0.0,0.0,0.0,0.0,0.0,0.0,0.0,0.0,0.0,0.0,0.0,0.0,0.0,0.0,0.0,0.0,0.0,0.0,0.0,0.0,0.0,0.0,0.0,0.0,0.0,0.0,0.0,0.0,0.0,0.0,0.0,0.0,0.0,0.0,0.0,0.0,0.0,0.0,1.9046,1.9235,1.9055,1.9577,1.9982,2.0283,2.0081,2.0536,2.1646,0.0,0.0,0.0,0.0,0.0,0.0,0.0,0.0,0.0,0.0,0.0,0.0,0.0,0.0,0.0,0.0,0.0,0.0,0.0,0.0,0.0,0.0,0.0,0.0,0.0,0.0,0.0,0.0,0.0,0.0,0.0,0.0,0.0,0.0,0.0,0.0,0.0,0.0,1.4382,1.4882,0.0,0.0,0.0,0.0,0.0,0.0,0.0,0.0,1.3803,0.0,0.0,0.0,0.0,0.0,0.0,0.0,0.0,0.0,0.0,0.0,0.0,0.0,0.0,0.0,0.0,0.0,0.0,0.0,0.0,0.0,0.0,0.0,0.0,0.0,0.0,0.0,0.0,0.0,0.0,0.0,0.0,0.0,0.0,0.0,0.0,0.0,0.0,0.0,0.0,0.0,0.0,0.0,0.0,0.0,0.0,0.0,0.0,0.0,0.0,0.0,0.0,0.0,0.0,0.0,0.0,1.995,2.0479,2.0276,1.9314,2.0422,2.1036,2.1091,2.0956,2.1386,2.2265,0.0,0.0,0.0,0.0,0.0,0.0,0.0,0.0,0.0,0.0,0.0,0.0,0.0,0.0,0.0,0.0,0.0,0.0,0.0,0.0,0.0,0.0,0.0,0.0,0.0,0.0,0.0,0.0,0.0,0.0,0.0,0.0,0.0,0.0,0.0,0.0,0.0,0.0,0.0,1.6514,1.6621,0.0,0.0,0.0,0.0,0.0,0.0,0.0,0.0,1.477,0.0,0.0,0.0,0.0,0.0,0.0,0.0,0.0,0.0,0.0,0.0,0.0,0.0,0.0,0.0,0.0,0.0,0.0,0.0,0.0,0.0,0.0,0.0,0.0,0.0,0.0,0.0,0.0,0.0,0.0,0.0,0.0,0.0,0.0,0.0,0.0,0.0,0.0,0.0,0.0,0.0,0.0,0.0,0.0,0.0,0.0,0.0,0.0,0.0,0.0,0.0,0.0,0.0,0.0,0.0,1.9714,2.0547,2.0536,1.9798,2.1027,2.171,2.1646,2.1432,2.1703,0.0,0.0,0.0,0.0,0.0,0.0,0.0,0.0,0.0,0.0,0.0,0.0,0.0,0.0,0.0,0.0,0.0,0.0,0.0,0.0,0.0,0.0,0.0,0.0,0.0,0.0,0.0,0.0,0.0,0.0,0.0,0.0,0.0,0.0,0.0,0.0,0.0,0.0,0.0,0.0,1.7329,1.7608,1.7705,0.0,0.0,0.0,0.0,0.0,0.0,1.5775,1.5532,0.0,0.0,0.0,0.0,0.0,0.0,0.0,0.0,0.0,0.0,0.0,0.0,0.0,0.0,0.0,0.0,0.0,0.0,0.0,0.0,0.0,0.0,0.0,0.0,0.0,0.0,0.0,0.0,0.0,0.0,0.0,0.0,0.0,0.0,0.0,0.0,0.0,0.0,0.0,0.0,0.0,0.0,0.0,0.0,0.0,0.0,0.0,0.0,0.0,0.0,0.0,0.0,0.0,0.0,0.0,1.9714,2.0585,2.0757,2.036,2.1582,2.2173,2.201,2.1931,2.2109,0.0,0.0,0.0,0.0,0.0,0.0,0.0,0.0,0.0,0.0,0.0,0.0,0.0,0.0,0.0,0.0,0.0,0.0,0.0,0.0,0.0,0.0,0.0,0.0,0.0,0.0,0.0,0.0,0.0,0.0,0.0,0.0,0.0,0.0,0.0,0.0,0.0,0.0,0.0,0.0,0.0,1.8543,1.8313,1.7841,0.0,0.0,0.0,0.0,1.6799,1.6446,0.0,0.0,0.0,0.0,0.0,0.0,0.0,0.0,0.0,0.0,0.0,0.0,0.0,0.0,0.0,0.0,0.0,0.0,0.0,0.0,0.0,0.0,0.0,0.0,0.0,0.0,0.0,0.0,0.0,0.0,0.0,0.0,0.0,0.0,0.0,0.0,0.0,0.0,0.0,0.0,0.0,0.0,0.0,0.0,0.0,0.0,0.0,0.0,0.0,0.0,0.0,0.0,0.0,0.0,0.0,0.0,2.145,2.1609,2.1466,2.1063,2.2128,2.2534,2.2107,2.2798,2.3057,0.0,0.0,0.0,0.0,0.0,0.0,0.0,0.0,0.0,0.0,0.0,0.0,0.0,0.0,0.0,0.0,0.0,0.0,0.0,0.0,0.0,0.0,0.0,0.0,0.0,0.0,0.0,0.0,0.0,0.0,0.0,0.0,0.0,0.0,0.0,0.0,0.0,0.0,0.0,0.0,0.0,1.9357,1.8347,1.7899,1.7843,0.0,0.0,1.6993,1.6974,1.6949,0.0,0.0,0.0,0.0,0.0,0.0,0.0,0.0,0.0,0.0,0.0,0.0,0.0,0.0,0.0,0.0,0.0,0.0,0.0,0.0,0.0,0.0,0.0,0.0,0.0,0.0,0.0,0.0,0.0,0.0,0.0,0.0,0.0,0.0,0.0,0.0,0.0,0.0,0.0,0.0,0.0,0.0,0.0,0.0,0.0,0.0,0.0,0.0,0.0,0.0,0.0,0.0,0.0,0.0,0.0,2.0528,2.1762,2.2259,2.2214,2.1665,2.2817,2.3219,2.2631,2.2774,2.2848,0.0,0.0,0.0,0.0,0.0,0.0,0.0,0.0,0.0,0.0,0.0,0.0,0.0,0.0,0.0,0.0,0.0,0.0,0.0,0.0,0.0,0.0,0.0,0.0,0.0,0.0,0.0,0.0,0.0,0.0,0.0,0.0,0.0,0.0,0.0,0.0,0.0,0.0,0.0,0.0,0.0,0.0,1.8778,1.876,0.0,0.0,0.0,1.7756,1.7327,0.0,0.0,0.0,0.0,0.0,0.0,0.0,0.0,0.0,0.0,0.0,0.0,0.0,0.0,0.0,0.0,0.0,0.0,0.0,0.0,0.0,0.0,0.0,0.0,0.0,0.0,0.0,0.0,0.0,0.0,0.0,0.0,0.0,0.0,0.0,0.0,0.0,0.0,0.0,0.0,0.0,0.0,0.0,0.0,0.0,0.0,0.0,0.0,0.0,0.0,0.0,0.0,0.0,0.0,0.0,0.0,0.0,2.2093,2.257,2.2544,2.2088,2.2838,2.3031,2.2544,2.2434,0.0,0.0,0.0,0.0,0.0,0.0,0.0,0.0,0.0,0.0,0.0,0.0,0.0,0.0,0.0,0.0,0.0,0.0,0.0,0.0,0.0,0.0,0.0,0.0,0.0,0.0,0.0,1.5218,0.0,0.0,0.0,0.0,0.0,0.0,0.0,0.0,0.0,0.0,0.0,0.0,0.0,0.0,2.0,1.9416,1.9593,1.9569,0.0,0.0,1.8088,1.7472,1.7898,1.7965,0.0,0.0,0.0,0.0,0.0,0.0,0.0,0.0,0.0,0.0,0.0,0.0,0.0,0.0,0.0,0.0,0.0,0.0,0.0,0.0,0.0,0.0,0.0,0.0,0.0,0.0,0.0,0.0,0.0,0.0,0.0,0.0,0.0,0.0,0.0,0.0,0.0,0.0,0.0,0.0,0.0,0.0,0.0,0.0,0.0,0.0,0.0,0.0,0.0,0.0,0.0,0.0,0.0,0.0,0.0,2.295,2.2515,2.2244,2.2173,2.1613,2.1259,2.1237,2.1866,2.188,0.0,0.0,0.0,0.0,0.0,0.0,0.0,0.0,0.0,0.0,0.0,0.0,0.0,0.0,0.0,0.0,0.0,0.0,0.0,0.0,0.0,0.0,0.0,0.0,0.0,0.0,0.0,0.0,0.0,0.0,0.0,0.0,0.0,0.0,0.0,0.0,0.0,0.0,0.0,0.0,0.0,2.0899,2.0384,2.0081,1.9732,0.0,0.0,1.7595,1.712,1.7452,1.7638,1.7232,0.0,0.0,0.0,0.0,0.0,0.0,0.0,0.0,0.0,0.0,0.0,0.0,0.0,0.0,0.0,0.0,0.0,0.0,0.0,0.0,0.0,0.0,0.0,0.0,0.0,0.0,0.0,0.0,0.0,0.0,0.0,0.0,0.0,0.0,0.0,0.0,0.0,0.0,0.0,0.0,0.0,0.0,0.0,0.0,0.0,0.0,0.0,0.0,0.0,0.0,0.0,0.0,0.0,2.1916,2.3143,2.339,2.3098,2.2309,2.2392,2.2158,2.1539,2.2011,2.2207,0.0,0.0,0.0,0.0,0.0,0.0,0.0,0.0,0.0,0.0,0.0,0.0,0.0,0.0,0.0,0.0,0.0,0.0,0.0,0.0,0.0,0.0,0.0,0.0,0.0,0.0,0.0,0.0,1.7346,1.7966,1.8578,0.0,0.0,0.0,0.0,0.0,0.0,0.0,0.0,0.0,0.0,2.1502,2.107,2.098,0.0,0.0,1.9562,1.8889,1.8268,1.8519,1.8599,1.7977,1.8553,0.0,0.0,0.0,0.0,0.0,0.0,0.0,0.0,0.0,0.0,0.0,0.0,0.0,0.0,0.0,0.0,0.0,0.0,0.0,0.0,0.0,0.0,0.0,0.0,0.0,0.0,0.0,0.0,0.0,0.0,0.0,0.0,0.0,0.0,0.0,0.0,0.0,0.0,0.0,0.0,0.0,0.0,0.0,0.0,0.0,0.0,0.0,0.0,0.0,0.0,0.0,0.0,2.1787,2.2858,2.3616,2.3548,2.2634,2.2871,2.262,2.1866,2.2129,2.2216,0.0,0.0,0.0,0.0,0.0,0.0,0.0,0.0,0.0,0.0,0.0,0.0,0.0,0.0,0.0,0.0,0.0,0.0,0.0,0.0,0.0,0.0,0.0,0.0,0.0,0.0,0.0,0.0,1.8314,1.8573,1.8623,0.0,0.0,0.0,0.0,0.0,0.0,0.0,0.0,0.0,0.0,2.2127,2.1823,2.1696,2.1483,2.0919,2.0419,1.9832,1.9231,1.9558,1.9687,1.9209,0.0,0.0,0.0,0.0,0.0,0.0,0.0,0.0,0.0,0.0,0.0,0.0,0.0,0.0,0.0,0.0,0.0,0.0,0.0,0.0,0.0,0.0,0.0,0.0,0.0,0.0,0.0,0.0,0.0,0.0,1.9783,0.0,0.0,0.0,0.0,0.0,0.0,0.0,0.0,0.0,0.0,0.0,0.0,0.0,0.0,0.0,0.0,0.0,0.0,0.0,0.0,0.0,0.0,2.1348,2.2166,2.3001,2.3352,2.326,2.2675,2.2192,2.186,2.2138,2.1793,2.073,0.0,0.0,0.0,0.0,0.0,0.0,0.0,0.0,0.0,0.0,0.0,0.0,0.0,0.0,0.0,0.0,0.0,0.0,0.0,0.0,0.0,0.0,0.0,0.0,0.0,0.0,1.8608,1.8954,1.8724,0.0,0.0,0.0,0.0,0.0,0.0,0.0,0.0,0.0,0.0,2.2446,2.2955,2.2649,2.2167,2.1705,2.1333,2.0684,2.0134,1.9823,2.0288,2.0736,0.0,0.0,0.0,0.0,0.0,0.0,0.0,0.0,0.0,0.0,0.0,0.0,0.0,0.0,0.0,0.0,0.0,0.0,0.0,0.0,0.0,0.0,0.0,0.0,0.0,0.0,0.0,2.3565,2.2474,0.0,0.0,0.0,0.0,0.0,0.0,0.0,0.0,0.0,0.0,0.0,2.5472,2.6274,0.0,0.0,0.0,0.0,0.0,0.0,0.0,0.0,0.0,0.0,0.0,0.0,2.211,2.3921,2.4242,2.4276,2.4116,2.388,2.3354,2.2557,2.2653,2.22,2.1177,0.0,0.0,0.0,0.0,0.0,0.0,0.0,0.0,0.0,0.0,0.0,0.0,0.0,0.0,0.0,0.0,0.0,0.0,0.0,0.0,0.0,0.0,0.0,0.0,0.0,1.7837,0.0,0.0,0.0,0.0,0.0,0.0,0.0,0.0,0.0,0.0,0.0,2.3295,2.362,2.3636,2.3705,2.3885,2.3437,2.3143,0.0,0.0,0.0,0.0,0.0,0.0,0.0,0.0,0.0,0.0,0.0,0.0,0.0,0.0,2.4025,2.23,2.1639,2.1403,2.1694,0.0,0.0,0.0,0.0,0.0,0.0,0.0,0.0,0.0,0.0,0.0,0.0,0.0,0.0,2.6542,0.0,2.5324,0.0,0.0,0.0,0.0,0.0,0.0,0.0,0.0,2.7666,2.8628,2.8595,2.9115,2.9474,0.0,2.938,2.7588,0.0,0.0,0.0,0.0,0.0,0.0,0.0,0.0,2.3539,2.529,2.55,2.5448,2.5223,2.4972,2.4459,2.3661,2.3271,2.2666,2.185,2.1721,2.1331,0.0,0.0,0.0,0.0,0.0,0.0,0.0,0.0,0.0,0.0,0.0,0.0,0.0,0.0,0.0,0.0,0.0,0.0,0.0,0.0,0.0,0.0,0.0,1.858,0.0,0.0,0.0,0.0,0.0,0.0,0.0,0.0,0.0,2.4072,2.4498,2.4924,2.5152,2.4799,2.4524,2.4562,0.0,0.0,0.0,0.0,0.0,0.0,0.0,2.3847,2.4119,2.4028,2.4045,2.449,2.5121,2.5443,2.4918,0.0,0.0,2.4096,2.3474,2.3302,2.3585,2.3442,2.328,2.3246,2.3255,2.3191,0.0,0.0,0.0,0.0,0.0,0.0,0.0,0.0,2.8463,2.889,0.0,2.8555,0.0,0.0,0.0,0.0,0.0,2.8398,0.0,0.0,3.1649,3.2846,3.2756,3.2659,3.305,3.3777,3.3037,3.1845,3.014,2.733,0.0,0.0,0.0,0.0,0.0,0.0,2.5485,2.6206,2.6644,2.6772,2.661,2.5941,2.5406,2.4994,2.3936,2.3146,2.2664,2.2628,2.2021,2.0748,2.0616,0.0,0.0,0.0,0.0,0.0,0.0,0.0,0.0,0.0,0.0,0.0,0.0,0.0,0.0,0.0,0.0,0.0,0.0,0.0,0.0,2.0377,0.0,0.0,0.0,0.0,0.0,0.0,0.0,0.0,0.0,0.0,2.5184,2.5838,2.6366,2.6222,0.0,0.0,0.0,0.0,2.4,2.4673,2.4912,2.5003,2.4887,2.5048,2.5205,2.5271,0.0,0.0,2.5751,2.6461,2.6658,2.5245,2.5843,2.652,2.6657,2.6065,2.5718,2.6021,2.5805,2.5697,2.5717,2.5638,2.5775,3.5489,0.0,0.0,0.0,0.0,3.2852,3.3512,3.4349,3.4306,3.3811,3.3006,3.2542,0.0,0.0,0.0,0.0,0.0,0.0,3.2109,3.2684,3.3983,3.4577,3.455,3.4491,3.4814,3.5434,3.5202,3.477,3.4093,3.3024,3.0049,2.5258,0.0,0.0,0.0,0.0,2.6807,2.8249,2.822,2.7985,2.7604,2.7402,2.6672,2.5471,2.4101,2.3384,2.3405,2.3122,2.2842,2.2535,2.21,0.0,0.0,0.0,0.0,0.0,0.0,0.0,0.0,0.0,0.0,0.0,0.0,0.0,0.0,0.0,0.0,0.0,0.0,0.0,2.089,2.1508,2.2078,0.0,0.0,0.0,0.0,0.0,0.0,0.0,0.0,0.0,2.9309,2.8297,2.7572,0.0,0.0,2.6263,2.5988,2.552,2.5373,2.5891,2.6139,0.0,0.0,2.5794,2.5925,2.6827,2.7496,2.7604,2.6859,2.7323,2.7538,2.6661,2.7269,2.7905,2.7796,2.6945,2.6463,2.6893,2.6623,2.6335,2.6609,2.6372,2.5848,3.9874,3.7965,3.6427,3.6026,3.6456,3.6781,3.7518,3.8432,3.8048,3.7549,3.6932,3.6076,3.4897,3.3459,3.2172,0.0,0.0,0.0,3.4695,3.5529,3.5853,3.6232,3.6533,3.6173,3.6335,3.6949,3.6642,3.6395,3.6166,3.5944,3.3721,2.9629,0.0,0.0,2.9377,2.9094,2.9476,3.0543,3.0122,2.9585,2.897,2.833,2.7233,2.5634,2.4729,2.4241,2.4189,2.3763,2.3639,2.3797,2.332,2.2855,0.0,0.0,0.0,0.0,0.0,0.0,0.0,0.0,0.0,0.0,0.0,2.0652,1.9343,0.0,0.0,0.0,2.1021,2.203,2.3479,2.3959,0.0,0.0,0.0,0.0,0.0,0.0,0.0,2.9289,3.0371,3.1135,3.1459,3.0359,2.9448,2.9199,2.8235,2.755,2.7473,0.0,2.6346,2.7374,2.7627,2.767,2.7558,2.71,2.6992,2.7663,2.8194,2.8335,2.7825,2.8123,2.8232,2.781,2.8001,2.8308,2.825,2.7566,2.7232,2.7818,2.7496,2.7041,2.6789,2.6315,2.576,4.3585,4.3383,4.0986,3.9911,3.9884,4.0665,4.0977,4.0939,4.0128,4.0259,4.0898,3.9298,3.8501,3.8202,3.664,0.0,3.6773,3.6714,3.7131,3.7866,3.7692,3.8007,3.8725,3.799,3.7922,3.853,3.781,3.7338,3.7155,3.6973,3.6423,3.5644,3.3872,3.3258,3.3659,3.3158,3.2843,3.2715,3.2088,3.1342,3.0418,2.8901,2.7352,2.5854,2.571,2.5465,2.4959,2.4516,2.4401,2.4645,2.4375,2.3838,2.3031,0.0,0.0,0.0,0.0,0.0,0.0,0.0,0.0,0.0,0.0,0.0,0.0,0.0,0.0,0.0,2.3748,0.0,2.6923,2.7092,0.0,0.0,0.0,2.8305,2.9074,3.0837,3.2129,3.242,0.0,0.0,3.2187,3.2022,3.1686,3.0752,2.9713,2.8973,2.8931,2.7525,2.7144,2.8783,2.9086,2.9087,2.8895,2.8564,2.8228,2.8218,2.8509,2.881,2.8729,2.907,2.9062,2.8668,2.8426,2.8361,2.8318,2.8277,2.827,2.8512,2.824,2.764,2.6714,2.6246,2.582,4.509,4.5009,4.4407,4.3458,4.2315,4.255,4.2628,4.2628,4.2434,4.2497,4.2734,4.2214,4.1254,3.9965,4.0192,3.9562,3.8431,3.9647,4.0228,4.0295,4.0779,4.1143,4.1288,4.1046,4.0879,4.0802,4.0609,4.0084,3.9187,3.912,3.8722,3.7904,3.6841,3.5517,3.3971,3.3817,3.3761,3.3741,3.3003,3.1907,3.05,2.9389,2.8363,2.7454,2.6767,2.6123,2.5449,2.5232,2.5151,2.5196,2.5606,2.5704,2.5426,2.3619,0.0,0.0,0.0,0.0,0.0,0.0,0.0,0.0,0.0,2.3986,2.118,0.0,2.5105,0.0,2.624,2.7323,2.7712,2.823,0.0,0.0,3.0424,3.0482,3.196,3.2026,3.2161,3.2798,3.3328,3.3665,3.3579,3.3188,3.2656,3.1994,3.0731,2.9639,2.9109,2.8743,2.8586,2.9027,2.9186,2.9113,2.9155,2.9133,2.9225,2.9542,2.9725,2.9999,3.0249,3.0829,3.1234,3.1225,3.0694,3.026,3.0074,2.9376,2.8756,2.8651,2.8062,2.76,2.7741,2.703,2.6165,4.5594,4.5594,4.5594,4.5106,4.4295,4.4257,4.4253,4.4257,4.3867,4.3722,4.3795,4.3329,4.2591,4.1704,4.2158,4.1754,4.0678,4.1419,4.1667,4.1467,4.1794,4.194,4.194,4.1907,4.1719,4.149,4.1482,4.1109,4.0459,4.0406,4.0194,3.9766,3.8923,3.7898,3.6622,3.5619,3.4914,3.4614,3.3845,3.2659,3.1095,3.0468,2.9472,2.8074,2.7973,2.7418,2.6351,2.6483,2.6223,2.5601,2.5778,2.5931,2.5835,2.4483,2.3775,0.0,0.0,0.0,0.0,0.0,0.0,0.0,0.0,0.0,0.0,0.0,2.6649,2.6792,2.8088,2.9158,2.9812,3.0383,3.1419,3.3028,3.2838,3.2953,3.3961,3.3734,3.3827,3.4544,3.4473,3.4398,3.4599,3.4076,3.3498,3.2991,3.2166,3.1259,3.0398,3.0196,3.0167,3.0166,3.0182,3.0033,2.9794,2.9818,2.9894,2.989,3.0134,3.0377,3.0615,3.1116,3.1526,3.1638,3.1274,3.0918,3.0804,3.0335,2.9748,2.9285,2.8697,2.8232,2.8083,2.7334,2.6547,4.5594,4.5594,4.5594,4.5594,4.5594,4.5594,4.5594,4.5556,4.4821,4.4474,4.4432,4.3739,4.3355,4.3239,4.3239,4.3054,4.2687,4.2509,4.2302,4.2066,4.197,4.1906,4.1906,4.1913,4.1794,4.1648,4.1611,4.1517,4.1291,4.1275,4.1205,4.1021,4.0202,3.9815,3.9692,3.7658,3.618,3.5363,3.4604,3.3539,3.206,3.1823,3.0685,2.869,2.93,2.9011,2.7533,2.7887,2.7512,2.6103,2.5891,2.5795,2.5738,2.523,2.5161,0.0,2.4974,0.0,0.0,0.0,0.0,0.0,0.0,0.0,0.0,2.7101,2.7857,2.8493,2.9648,3.0885,3.2144,3.2778,3.3348,3.3972,3.4733,3.5194,3.53,3.5539,3.5971,3.6702,3.5819,3.5217,3.5235,3.4729,3.4087,3.3562,3.3381,3.2901,3.2019,3.1751,3.1736,3.175,3.1676,3.1349,3.0884,3.0703,3.0462,3.0052,3.0246,3.0444,3.0518,3.0918,3.1231,3.1231,3.1181,3.1074,3.1074,3.0917,3.0585,2.9954,2.9521,2.8953,2.8112,2.746,2.6999,4.5594,4.5594,4.5594,4.5594,4.5594,4.5594,4.5594,4.5594,4.5402,4.5364,4.5359,4.521,4.4701,4.4085,4.4085,4.3567,4.2712,4.3084,4.3183,4.2963,4.3357,4.354,4.354,4.354,4.3486,4.3392,4.3392,4.3048,4.2332,4.2214,4.1657,4.0702,4.0146,3.9694,3.9321,0.0,0.0,0.0,3.5363,3.4559,3.3697,3.318,3.2455,3.1376,3.1085,0.0,2.8708,2.889,2.8606,2.7721,2.7954,0.0,0.0,0.0,0.0,0.0,0.0,0.0,0.0,0.0,0.0,0.0,2.8242,2.8123,2.7139,2.9053,3.0371,3.0502,3.1576,3.2373,3.2593,3.384,3.4715,3.4867,3.5367,3.5855,3.6322,3.6214,3.6379,3.7081,3.641,3.5784,3.5522,3.4801,3.4148,3.3697,3.3514,3.3425,3.3185,3.3065,3.3095,3.3095,3.2662,3.2288,3.2153,3.1675,3.1286,3.118,3.1193,3.1262,3.1259,3.1721,3.2104,3.2043,3.1698,3.1314,3.1314,3.0571,2.994,2.9705,2.9609,2.9312,2.859,2.785,2.7347,4.6651,0.0,4.6663,4.686,0.0,4.6855,4.6821,4.6778,4.5936,4.5594,4.5594,4.5594,4.5364,4.4932,4.4795,4.4373,4.3759,4.3888,4.3806,4.3601,4.3877,4.4016,4.4016,4.4016,4.3984,4.3897,4.3889,4.3672,4.3221,4.3135,4.2695,4.1938,4.1502,4.1048,4.051,3.9622,3.8571,3.7456,3.6884,3.6277,3.5496,3.4978,3.4155,3.3002,0.0,0.0,0.0,0.0,0.0,0.0,0.0,0.0,0.0,0.0,0.0,2.8842,2.8204,2.7936,2.8175,2.8506,2.8983,2.9669,3.0148,3.0176,2.9697,3.0956,3.196,3.2499,3.2972,3.3396,3.3723,3.432,3.4803,3.5156,3.5746,3.6207,3.6496,3.6721,3.7147,3.7682,3.7025,3.6405,3.6536,3.5623,3.4895,3.4551,3.4472,3.4472,3.4396,3.3706,3.3273,3.3742,3.3351,3.3006,3.2946,3.2452,3.1989,3.1959,3.172,3.154,3.1511,3.1769,3.1952,3.1936,3.1663,3.1436,3.1422,3.0927,3.0432,3.0133,3.0057,2.9839,2.9234,2.8604,2.8,4.7807,4.7224,4.784,4.8109,4.8148,4.8143,4.8091,4.8005,0.0,0.0,0.0,4.5594,4.5594,4.5581,4.5303,4.5061,4.4849,4.4539,4.4286,4.4079,4.4017,4.4016,4.4016,4.4016,4.3992,4.3921,4.3921,4.3881,4.3853,4.3837,4.3642,4.3267,4.2884,4.2388,4.1739,4.0594,3.964,3.9042,3.8566,3.7958,3.7238,3.678,3.5819,3.4378,3.445,3.3812,3.2278,3.1665,3.066,2.9216,2.8516,2.8391,2.9069,2.9331,3.0007,3.1199,3.1409,3.1446,3.1503,3.1396,3.1377,3.1569,3.1824,3.2153,3.2476,3.245,3.2945,3.4125,3.3953,3.4098,3.4791,3.4588,3.4711,3.5437,3.603,3.6489,3.68,3.7315,3.8007,3.8517,3.7723,3.7093,3.7503,3.6492,3.5734,3.5605,3.5499,3.557,3.5342,3.4288,3.3735,3.4283,3.4026,3.3679,3.3574,3.3125,3.2677,3.2452,3.2108,3.178,3.157,3.16,3.163,3.1568,3.1511,3.1569,3.1645,3.1525,3.1361,3.0927,3.0747,3.0536,3.0036,2.9639,2.9025,4.8223,4.8099,4.8214,4.8253,4.8253,4.821,4.817,4.8005,4.7124,4.6317,4.5594,4.5594,4.5594,4.5586,4.5303,4.5185,4.5126,4.4631,4.4362,0.0,4.4117,4.4016,4.4016,4.4016,4.4016,4.3971,4.3963,4.4,4.3984,4.3913,4.3664,4.323,4.2884,4.2246,4.1344,4.1105,4.0839,4.0561,3.9624,3.8894,3.8458,3.8051,3.7361,3.6436,3.596,3.5306,3.4294,3.3473,3.2611,3.1713,3.0937,3.0552,3.0667,3.0714,3.083,3.1041,3.119,3.1462,3.1959,3.2088,3.2473,3.3287,3.4012,3.4173,3.3546,3.2938,3.3161,3.4517,3.4392,3.4432,3.5115,3.5181,3.5448,3.6142,3.6426,3.7009,3.8086,3.8472,3.8858,3.9479,3.8496,3.7658,3.7682,3.6753,3.5941,3.5926,3.5862,3.5801,3.5553,3.5317,3.519,3.5222,3.4773,3.4444,3.4278,3.3799,3.3215,3.2572,3.2901,3.2721,3.1824,3.2049,3.2183,3.163,3.163,3.1809,3.2213,3.1869,3.175,3.1914,3.166,3.1253,3.109,3.1008,3.0322,4.9414,4.9046,4.947,4.9663,4.9663,4.9641,4.9311,4.8852,4.8389,4.7755,4.6962,4.6815,4.6497,4.6056,4.5627,4.518,4.4757,4.4379,4.4169,4.4162,4.4056,4.4016,4.4016,4.4016,4.4016,4.4016,4.4016,4.4016,4.4016,4.3976,4.3771,4.3387,4.2959,4.2442,4.1881,4.16,4.1445,4.1423,4.0392,3.9757,3.954,3.8792,3.8267,3.8057,3.6807,3.6015,3.5732,3.4537,3.372,3.3367,3.2349,3.2149,3.2993,3.2658,3.2783,3.3582,3.3706,3.3866,3.4108,3.3934,3.3914,3.4137,3.4296,3.4428,3.4479,3.4101,3.426,3.5079,3.5015,3.5093,3.5441,3.5834,3.6262,3.6599,3.7354,3.813,3.8756,3.9252,3.9514,3.9434,3.8668,3.7951,3.7543,3.6707,3.61,3.6021,3.6005,3.5943,3.5804,3.5769,3.5702,3.5529,3.5305,3.5152,3.5029,3.4488,3.3949,3.3604,3.3514,3.3275,3.2632,3.2886,3.2886,3.2662,3.2572,3.2691,3.3006,3.2482,3.2303,3.2303,3.1959,3.1583,3.1503,3.1494,3.0904,5.0764,5.0194,5.1044,5.1267,5.1104,5.1104,5.0598,4.9804,4.9663,4.926,4.8616,4.8001,4.7373,4.6773,4.622,4.5652,4.5091,4.4812,4.4705,4.466,4.4622,4.4606,4.4561,4.4418,4.4283,4.4246,4.409,4.4016,4.4016,4.4016,4.386,4.356,4.3168,4.28,4.2498,4.2118,4.1945,4.1814,4.1045,4.0583,4.0447,3.9584,3.9079,3.8879,3.7541,3.6729,3.67,3.5512,3.4826,3.4771,3.3785,3.3783,3.4951,3.4469,3.4696,3.5772,3.5818,3.5684,3.5534,3.5337,3.5066,3.466,3.456,3.4719,3.5121,3.5151,3.5242,3.5487,3.5735,3.5881,3.5983,3.6603,3.7122,3.7337,3.8273,3.9005,3.9288,3.9774,3.994,3.9414,3.8892,3.8264,3.7633,3.6936,3.6414,3.6195,3.61,3.6116,3.6116,3.6116,3.599,3.5817,3.5768,3.5689,3.5605,3.5214,3.481,3.4674,3.4373,3.3998,3.3742,3.3621,3.3636,3.3577,3.3607,3.3652,3.3681,3.3216,3.2886,3.2976,3.2572,3.2004,3.1839,3.1611,3.121,5.2024,5.2097,5.2828,5.273,5.1996,5.1992,5.1473,5.0743,5.0687,5.0528,5.0046,4.8526,4.7788,4.7646,4.7346,4.7123,4.6997,4.6819,4.6682,4.6622,4.654,4.6425,4.6268,4.556,4.5175,4.5072,4.444,4.4135,4.4061,4.4023,4.386,4.3639,4.3526,4.3284,4.2819,4.2724,4.2382,4.1742,4.1628,4.1379,4.0938,4.082,4.0091,3.8683,3.8427,3.7962,3.7361,3.6709,3.6399,3.6361,3.5875,3.571,3.5892,3.5819,3.5855,3.5979,3.5628,3.5124,3.4763,3.5278,3.5543,3.5172,3.5721,3.5944,3.5632,3.5599,3.5577,3.5757,3.6287,3.6615,3.675,3.7381,3.8024,3.8543,3.8916,3.9254,3.9829,4.0079,4.0087,4.0062,3.9375,3.9055,3.8728,3.7897,3.7088,3.6569,3.6492,3.6461,3.6399,3.6492,3.6538,3.6397,3.6224,3.6021,3.5941,3.5941,3.5546,3.5122,3.5426,3.5122,3.4515,3.4273,3.4332,3.4288,3.4182,3.4333,3.4361,3.3997,3.368,3.3891,3.3606,3.3081,3.2527,3.2065,3.1437,5.296,5.2999,5.3347,5.3296,5.2931,5.2931,5.242,5.1665,5.154,5.1197,5.0529,4.963,4.8873,4.8263,4.7978,4.762,4.7167,4.7047,4.6996,4.6989,4.693,4.6862,4.681,4.6388,4.6123,4.6115,4.5677,4.5212,4.4766,4.4246,4.3968,4.3844,4.3836,4.3627,4.3265,4.3132,4.2829,4.2337,4.2134,4.1837,4.1417,4.0929,4.0446,4.0061,3.9582,3.8976,3.8236,3.7944,3.7523,3.6833,3.6627,3.6757,3.7229,3.7025,3.7072,3.7434,3.7407,3.7063,3.6377,3.695,3.7178,3.6785,3.7047,3.7171,3.6987,3.6963,3.6963,3.6963,3.6851,3.6965,3.7449,3.8125,3.8667,3.9005,3.9356,3.9774,4.0045,4.0113,4.0011,3.9631,3.9368,3.9041,3.8714,3.8236,3.7694,3.7178,3.7013,3.692,3.6627,3.6812,3.7178,3.7447,3.743,3.6936,3.632,3.602,3.5869,3.5747,3.5823,3.564,3.5444,3.5168,3.5227,3.517,3.5185,3.5245,3.5425,3.4924,3.4514,3.4665,3.4089,3.3382,3.2976,3.2946,3.248,5.385,5.3884,5.4078,5.4043,5.385,5.385,5.3347,5.26,5.2468,5.1899,5.1063,5.0801,5.0071,4.9099,4.8784,4.8323,4.7841,4.7803,4.7803,4.7796,4.776,4.7776,4.7716,4.7259,4.7054,4.6985,4.664,4.6178,4.5621,4.5026,4.4581,4.4395,4.4358,4.4122,4.3759,4.349,4.3265,4.2904,4.2659,4.2327,4.1881,4.1378,4.1039,4.0821,4.0318,3.9711,3.9051,3.9118,3.8793,3.7932,3.7959,3.8323,3.8832,3.8542,3.8421,3.8585,3.8759,3.8526,3.7799,3.8161,3.8253,3.7936,3.791,3.791,3.791,3.791,3.8012,3.8159,3.7686,3.7697,3.8159,3.8882,3.9288,3.9322,3.9808,4.0113,4.0113,4.0113,3.9961,3.9506,3.954,3.9216,3.8728,3.8562,3.8339,3.7781,3.7636,3.7482,3.705,3.7311,3.7825,3.8361,3.8357,3.7851,3.6845,3.6753,3.6646,3.6646,3.6738,3.6769,3.6523,3.6338,3.6152,3.6121,3.6198,3.61,3.5963,3.5552,3.5508,3.534,3.482,3.4091,3.3849,3.4197,3.3803,5.4735,5.4851,5.5543,5.5354,5.4735,5.4735,5.4233,5.3463,5.3451,5.2876,5.203,5.191,5.1238,5.0188,5.0011,4.979,4.9714,4.9625,4.958,4.9566,4.9523,4.9534,4.952,4.8482,4.7951,4.7876,4.7132,4.6587,4.6446,4.6364,4.5992,4.5295,4.5183,4.4804,4.4133,4.3961,4.3701,4.3246,4.3158,4.2849,4.2406,4.2669,4.2041,4.0736,4.0461,4.0319,3.9954,4.0203,4.0347,4.0302,4.0507,4.0789,4.0854,4.043,3.9804,3.913,3.8993,3.8732,3.8231,3.824,3.818,3.8038,3.8115,3.799,3.8137,3.8137,3.8374,3.887,3.8882,3.8882,3.8971,3.9537,3.9943,3.9977,4.0045,4.0113,4.0113,4.0113,4.0113,4.0003,3.9965,3.9747,3.9262,3.9182,3.8892,3.8432,3.825,3.8111,3.7818,3.8018,3.8446,3.8716,3.8651,3.8278,3.8179,3.7836,3.7937,3.7879,3.7691,3.7962,3.7737,3.7471,3.7257,3.7008,3.6784,3.6569,3.6383,3.6446,3.6674,3.6532,3.6071,3.5504,3.5183,3.5815,3.5384,5.6046,5.5586,5.5892,5.5814,5.5586,5.5586,5.5122,5.4349,5.431,5.3821,5.3031,5.2834,5.2502,5.2109,5.1845,5.1013,4.9975,4.9893,4.9893,4.9886,4.9831,4.9848,4.9738,4.9183,4.8909,4.8802,4.8327,4.7776,4.7218,4.6773,4.6372,4.6038,4.5555,4.5101,4.4766,4.4283,4.39,4.3726,4.366,4.3379,4.2932,4.2959,4.2665,4.2125,4.2279,4.1975,4.1069,4.1189,4.0935,4.0146,4.0482,4.0702,4.0694,4.0526,4.0165,3.967,3.9638,3.9497,3.9123,3.9414,3.9593,3.9591,3.9545,3.9462,3.9457,3.9433,3.9544,3.9651,3.9694,3.9694,3.9728,3.9977,4.0113,4.0113,4.0113,4.0113,4.0113,4.0113,4.0113,4.0113,4.0113,3.9978,3.9825,3.9773,3.9553,3.9014,3.8892,3.8753,3.86,3.8739,3.9047,3.9475,3.9534,3.9454,3.9441,3.8682,3.8278,3.8278,3.8236,3.8064,3.7883,3.824,3.8137,3.7708,3.7408,3.7506,3.7476,3.7487,3.7735,3.7642,3.7164,3.6938,3.669,3.6955,3.6384,5.6975,5.6433,5.6124,5.6008,5.6008,5.6008,5.5698,5.52,5.52,5.4697,5.4022,5.3755,5.3537,5.3196,5.2982,5.2199,5.0964,5.0801,5.0568,5.0341,5.0334,5.0162,4.9814,4.9537,4.9376,4.9289,4.9035,4.8593,4.811,4.7553,4.7144,4.6847,4.629,4.5769,4.5295,4.47,4.4321,4.4082,4.3968,4.3763,4.343,4.3346,4.324,4.3259,4.3409,4.3135,4.2322,4.2277,4.1914,4.1206,4.118,4.1152,4.0872,4.0769,4.0574,4.0287,4.0283,4.025,3.9971,4.0321,4.0546,4.051,4.0476,4.0461,4.0375,4.0362,4.0313,4.0251,4.0238,4.0238,4.0238,4.0238,4.0201,4.0138,4.0113,4.0113,4.0113,4.0138,4.0163,4.0163,4.0138,4.0113,4.0113,4.01,3.9889,3.954,3.95,3.942,3.9328,3.9387,3.9605,3.999,4.0037,3.9978,3.9914,3.9375,3.9109,3.9049,3.8954,3.8633,3.8496,3.8873,3.885,3.8451,3.8363,3.8553,3.8628,3.859,3.8571,3.8557,3.8488,3.8265,3.8036,3.7862,3.727,5.7323,5.7129,5.6394,5.6046,5.6008,5.6008,5.6008,5.5892,5.593,5.5466,5.4809,5.4766,5.4271,5.3518,5.3499,5.3187,5.293,5.2594,5.1961,5.1278,5.1213,5.0681,4.9879,4.9657,4.9388,4.9168,4.9022,4.889,4.8779,4.8667,4.8333,4.7813,4.7553,4.6773,4.5398,4.5295,4.4849,4.4283,4.4053,4.3968,4.3905,4.3841,4.3714,4.358,4.3617,4.3538,4.3415,4.3407,4.3299,4.3227,4.2969,4.2442,4.1669,4.1498,4.1331,4.0955,4.0873,4.0801,4.0681,4.0692,4.0643,4.0571,4.0534,4.0534,4.051,4.0497,4.0485,4.0461,4.0473,4.0485,4.0473,4.0473,4.0387,4.0175,4.015,4.0163,4.0163,4.0226,4.0288,4.0275,4.0213,4.0113,4.0113,4.0113,4.0049,3.999,3.9978,3.9965,3.9893,3.9927,4.0028,4.01,4.0113,4.0113,4.0113,4.0087,4.0062,3.999,3.9876,3.9655,3.9439,3.9614,3.9395,3.905,3.8875,3.9034,3.9242,3.9202,3.9202,3.9202,3.9288,3.9314,3.9018,3.8673,3.8423,5.8406,5.7318,5.7013,5.6549,5.6046,5.6008,5.6008,5.6008,5.6008,5.5853,5.5659,5.5621,5.5406,5.5159,5.5041,5.4862,5.4712,5.4415,5.3566,5.2442,5.211,5.1557,5.0783,5.0448,4.9827,4.9084,4.8916,4.889,4.889,4.889,4.8742,4.8481,4.7961,4.7478,4.6855,4.5881,4.5101,4.4878,4.4283,4.4008,4.3976,4.3929,4.3865,4.3808,4.3751,4.3667,4.3583,4.354,4.3506,4.3506,4.3402,4.3059,4.2527,4.2164,4.1785,4.1333,4.1059,4.0883,4.0847,4.0858,4.0811,4.0776,4.0764,4.0716,4.0643,4.0619,4.0583,4.0522,4.051,4.051,4.051,4.051,4.0473,4.0387,4.0387,4.0375,4.0375,4.0399,4.0424,4.0412,4.0313,4.0238,4.0213,4.0175,4.0138,4.0125,4.0125,4.0125,4.0125,4.0138,4.0113,4.0113,4.0113,4.0125,4.0091,4.0091,4.0113,4.0113,4.0113,4.0113,4.0037,3.994,3.9786,3.9649,3.9493,3.948,3.9696,3.9747,3.9709,3.9747,3.9768,3.969,3.9553,3.9315,3.899,5.9261,5.8255,5.7907,5.7477,5.6979,5.6979,5.694,5.6902,5.6626,5.651,5.6433,5.6124,5.6008,5.599,5.5918,5.5822,5.5659,5.5431,5.4734,5.3735,5.3076,5.2428,5.1546,5.0883,5.0064,4.9176,4.8916,4.889,4.889,4.889,4.8881,4.8779,4.837,4.7961,4.7664,4.6744,4.6067,4.5732,4.522,4.4766,4.4528,4.4451,4.4262,4.3963,4.3878,4.3767,4.3676,4.36,4.354,4.3417,4.3223,4.2818,4.2408,4.1945,4.1578,4.1299,4.1047,4.0894,4.0894,4.0883,4.0894,4.0894,4.0894,4.0859,4.0776,4.0786,4.0716,4.0667,4.0655,4.0643,4.0655,4.0655,4.0655,4.0643,4.0546,4.0534,4.0546,4.0522,4.0534,4.0522,4.0448,4.0387,4.035,4.0325,4.0263,4.0263,4.0263,4.0229,4.0263,4.0229,4.0217,4.0226,4.0179,4.0167,4.0095,4.0104,4.0113,4.0113,4.0113,4.0113,4.0075,4.0075,3.9952,3.994,3.9825,3.9799,3.994,3.9965,3.9965,4.01,4.0113,3.9999,3.9799,3.9701,3.9479,5.9923,5.9769,5.9034,5.8569,5.8453,5.8453,5.8376,5.8376,5.7714,5.74,5.7207,5.6704,5.624,5.6162,5.6184,5.6123,5.5941,5.5654,5.5417,5.5001,5.4282,5.3276,5.2288,5.1083,5.0118,4.9434,4.9068,4.8916,4.889,4.889,4.889,4.889,4.8816,4.8519,4.7961,4.7701,4.7181,4.6624,4.6438,4.5955,4.5369,4.5361,4.5032,4.4246,4.4238,4.4227,4.4173,4.4081,4.3776,4.3473,4.2846,4.2358,4.172,4.1209,4.1117,4.1082,4.093,4.0894,4.0894,4.0894,4.0894,4.0894,4.0894,4.0894,4.0871,4.0859,4.0859,4.0847,4.0847,4.0871,4.0859,4.0859,4.0859,4.0859,4.0692,4.0619,4.0667,4.0607,4.0619,4.0655,4.0595,4.051,4.051,4.0497,4.0485,4.0473,4.0461,4.0448,4.0448,4.0402,4.0439,4.0402,4.0316,4.0291,4.0266,4.0254,4.0263,4.0238,4.0201,4.015,4.0113,4.0113,4.0113,4.0113,4.0113,4.0113,4.0113,4.0113,4.0113,4.0113,4.0113,4.0113,4.0028,3.9893,3.9842,6.0422,5.9885,5.9653,5.9188,5.8647,5.8608,5.8608,5.8569,5.8415,5.826,5.8178,5.8023,5.7482,5.7013,5.6932,5.6578,5.6015,5.5805,5.552,5.525,5.5024,5.4166,5.2938,5.151,5.0579,5.0085,4.95,4.9027,4.8899,4.8927,4.889,4.889,4.8881,4.8816,4.8547,4.7999,4.7627,4.733,4.6773,4.6475,4.6252,4.6178,4.6096,4.5894,4.5774,4.5688,4.5642,4.5548,4.4801,4.3588,4.3312,4.2958,4.2498,4.2061,4.1655,4.1356,4.1071,4.0918,4.0918,4.093,4.0918,4.0894,4.0953,4.0894,4.0894,4.0894,4.0894,4.0894,4.0894,4.0941,4.0929,4.0963,4.0963,4.0883,4.0949,4.0879,4.0811,4.0811,4.0811,4.0858,4.0716,4.0655,4.0631,4.0583,4.0534,4.0534,4.0534,4.0534,4.0558,4.0546,4.0524,4.051,4.0461,4.0414,4.0414,4.0436,4.0412,4.0399,4.0325,4.0201,4.0163,4.0113,4.0113,4.0113,4.0113,4.0113,4.0113,4.0113,4.0113,4.0113,4.0113,4.0113,4.0113,4.0016,4.0003,6.0847,6.0383,6.0383,6.0112,5.9687,5.9648,5.9653,5.9575,5.9266,5.915,5.9072,5.8724,5.8337,5.7869,5.7864,5.7326,5.6507,5.6323,5.5951,5.5333,5.513,5.447,5.3452,5.2311,5.1683,5.1059,5.0147,4.9724,4.9465,4.9128,4.8927,4.889,4.889,4.889,4.8844,4.8481,4.8184,4.8147,4.7701,4.7367,4.7033,4.6995,4.6735,4.6587,4.6513,4.6434,4.6313,4.6254,4.5551,4.4384,4.3895,4.3506,4.2937,4.2458,4.2056,4.176,4.1567,4.1434,4.1458,4.1423,4.1458,4.1424,4.1312,4.1289,4.1379,4.13,4.1221,4.165,4.1638,4.1718,4.1828,4.1861,4.1861,4.193,4.1861,4.1585,4.1021,4.0883,4.0883,4.0871,4.0823,4.0798,4.0798,4.0738,4.068,4.068,4.0704,4.0692,4.0692,4.0655,4.0643,4.0631,4.0583,4.0571,4.0546,4.0568,4.0634,4.0622,4.0461,4.0325,4.0213,4.015,4.0172,4.0172,4.0125,4.0159,4.0206,4.0206,4.0113,4.0113,4.0113,4.0113,4.0113,4.0113,4.0113,6.1113,6.1075,6.1075,6.1113,6.1041,6.1075,6.0925,6.0925,6.0306,5.9996,5.988,5.9227,5.8956,5.8724,5.8724,5.8251,5.7421,5.7086,5.6324,5.5655,5.5112,5.4547,5.395,5.3437,5.2825,5.2166,5.1078,5.0497,5.0135,4.9423,4.9122,4.915,4.9113,4.9067,4.9141,4.9039,4.8956,4.8816,4.8667,4.8333,4.7924,4.7813,4.7553,4.7144,4.7033,4.6962,4.6837,4.6684,4.6245,4.5261,4.4711,4.4163,4.3385,4.2865,4.268,4.267,4.2695,4.2529,4.2495,4.2554,4.251,4.2487,4.2163,4.1986,4.2392,4.229,4.235,4.2842,4.289,4.2975,4.305,4.3192,4.3052,4.2946,4.3046,4.2482,4.155,4.1124,4.1124,4.1136,4.117,4.1159,4.1124,4.1055,4.1043,4.1166,4.1052,4.0799,4.0799,4.0787,4.0799,4.0811,4.0764,4.0692,4.069,4.0734,4.0788,4.0832,4.0615,4.0461,4.0313,4.0238,4.0268,4.029,4.0386,4.0467,4.0544,4.0451,4.0311,4.0104,4.0129,4.0104,4.0113,4.0113,4.0113,6.1113,6.1113,6.1113,6.1113,6.1113,6.1113,6.1113,6.1075,6.092,6.077,6.077,6.0576,6.0151,5.9609,5.9575,5.9145,5.8251,5.7612,5.6598,5.5588,5.5249,5.4974,5.4547,5.4011,5.349,5.2953,5.207,5.1224,5.0522,5.0182,4.9847,4.9847,4.9856,4.9856,4.9856,4.9819,4.9476,4.9039,4.8927,4.8853,4.8667,4.8556,4.8436,4.8259,4.8259,4.8324,4.8344,4.8336,4.7921,4.7068,4.6263,4.5652,4.5241,4.4845,4.4587,4.4453,4.4222,4.4049,4.4074,4.403,4.4064,4.402,4.3864,4.3982,4.4046,4.3929,4.3939,4.4188,4.4213,4.4099,4.3956,4.3804,4.3706,4.3554,4.337,4.3207,4.2792,4.2654,4.2551,4.2585,4.2585,4.2689,4.262,4.1999,4.1849,4.1711,4.14,4.0998,4.0986,4.109,4.1193,4.1331,4.1202,4.1199,4.1395,4.1427,4.1425,4.1285,4.1033,4.0666,4.0519,4.0433,4.0502,4.0616,4.0743,4.0821,4.0929,4.0852,4.0737,4.047,4.0259,4.0222,4.0231,4.0172,4.0163,6.1113,6.1113,6.1113,6.1113,6.1113,6.1113,6.1113,6.1113,6.1113,6.1113,6.1113,6.1113,6.0847,6.0499,6.0422,5.9996,5.9131,5.822,5.7451,5.6773,5.6238,5.5746,5.5475,5.4752,5.4186,5.3944,5.3087,5.2242,5.1695,5.1097,5.0771,5.0711,5.0711,5.0711,5.0711,5.0711,5.0256,4.9661,4.9447,4.9336,4.8964,4.889,4.889,4.889,4.889,4.889,4.8844,4.8844,4.8641,4.8227,4.7693,4.6994,4.6316,4.5947,4.5819,4.5699,4.551,4.5345,4.5328,4.5335,4.5282,4.5345,4.518,4.517,4.515,4.512,4.5189,4.5363,4.5454,4.5376,4.5302,4.5082,4.4854,4.4634,4.4335,4.4242,4.4126,4.3655,4.3219,4.3219,4.3116,4.315,4.2977,4.2792,4.2654,4.2551,4.2482,4.2137,4.2043,4.21,4.2031,4.2066,4.1822,4.181,4.21,4.2204,4.2214,4.1948,4.1579,4.1154,4.0772,4.0736,4.0746,4.0847,4.0957,4.1215,4.1302,4.1237,4.133,4.1528,4.135,4.0764,4.042,4.0433,4.0368,6.1113,6.1113,6.1113,6.1113,6.1113,6.1113,6.1113,6.1113,6.1113,6.1113,6.1113,6.1113,6.1041,6.1075,6.1041,6.0615,5.9814,5.9085,5.8382,5.7896,5.7184,5.6639,5.6244,5.5596,5.501,5.4837,5.3996,5.3378,5.2832,5.2298,5.1745,5.1601,5.1602,5.1565,5.1565,5.1528,5.1156,5.0442,5.0302,4.993,4.9336,4.9141,4.915,4.889,4.889,4.889,4.889,4.889,4.8844,4.889,4.889,4.8061,4.7114,4.66,4.66,4.662,4.6616,4.6636,4.6645,4.6571,4.6571,4.652,4.6324,4.6241,4.637,4.634,4.6414,4.6607,4.6801,4.6794,4.6997,4.6608,4.6366,4.6161,4.5797,4.5581,4.5273,4.4306,4.3828,4.3677,4.3919,4.3988,4.3793,4.3586,4.3448,4.3345,4.3323,4.3241,4.3113,4.3044,4.2918,4.2827,4.2608,4.2743,4.3034,4.2758,4.278,4.2526,4.2135,4.1548,4.1054,4.088,4.0855,4.1011,4.1155,4.1417,4.1554,4.1488,4.175,4.2394,4.2159,4.1345,4.0957,4.074,4.0743,6.1113,6.1113,6.1113,6.1113,6.1113,6.1113,6.1113,6.1113,6.1113,6.1113,6.1113,6.1113,6.1113,6.1113,6.1113,6.0654,6.0026,5.9635,5.9191,5.8608,5.8044,5.761,5.6861,5.6421,5.58,5.5003,5.4511,5.4051,5.3328,5.2813,5.2609,5.2429,5.2419,5.2419,5.2382,5.2345,5.1974,5.1305,5.1156,5.0748,5.0116,4.9893,4.967,4.9216,4.9187,4.915,4.9039,4.8964,4.889,4.889,4.889,4.8761,4.8412,4.8286,4.8185,4.8122,4.8022,4.7913,4.7968,4.8051,4.8153,4.819,4.796,4.797,4.8043,4.7979,4.7822,4.7932,4.8042,4.8047,4.7761,4.7496,4.7255,4.69,4.6436,4.607,4.5913,4.5439,4.4906,4.4815,4.4902,4.4824,4.4561,4.4298,4.4195,4.4022,4.3884,4.3759,4.363,4.3633,4.3637,4.3545,4.3454,4.3693,4.4013,4.3517,4.3229,4.3022,4.2573,4.1814,4.1366,4.1021,4.0938,4.1073,4.1233,4.1395,4.151,4.167,4.1943,4.2362,4.2106,4.1781,4.1738,4.1682,4.1632,6.1113,6.1113,6.1113,6.1113,6.1113,6.1113,6.1113,6.1113,6.1113,6.1113,6.1113,6.1113,6.1113,6.1113,6.1113,6.0847,6.0615,6.0538,6.0186,5.9731,5.9225,5.8743,5.7927,5.7474,5.6619,5.5924,5.5481,5.4832,5.3871,5.374,5.3447,5.3293,5.3237,5.3237,5.3237,5.32,5.2754,5.2197,5.1974,5.1639,5.0859,5.0785,5.0488,5.0302,5.0153,5.019,5.019,5.019,5.019,5.0116,4.9773,4.9587,4.943,4.9152,4.8903,4.8914,4.8815,4.8751,4.8732,4.8723,4.8677,4.8721,4.8796,4.8732,4.8705,4.8641,4.8669,4.8633,4.8578,4.8514,4.8288,4.8101,4.7756,4.747,4.7015,4.673,4.6507,4.6142,4.5939,4.5796,4.5455,4.5247,4.5225,4.5031,4.4906,4.4699,4.4505,4.432,4.4182,4.4242,4.4328,4.4349,4.4315,4.444,4.4643,4.4333,4.3746,4.3483,4.3103,4.2344,4.1654,4.1309,4.109,4.11,4.1262,4.14,4.1836,4.211,4.2236,4.228,4.2105,4.2058,4.2452,4.2637,4.2402,6.1113,6.1113,6.1113,6.1113,6.1113,6.1113,6.1113,6.1113,6.1113,6.1113,6.1113,6.1113,6.1113,6.1113,6.1113,6.1075,6.1113,6.1079,6.0993,6.0814,6.0272,5.9847,5.9298,5.8628,5.7659,5.6866,5.6622,5.5776,5.4581,5.4296,5.4171,5.3879,5.3804,5.3794,5.3757,5.3683,5.3311,5.3088,5.2828,5.2457,5.1825,5.1491,5.1379,5.1379,5.1379,5.1305,5.1193,5.1193,5.1193,5.1045,5.0748,5.0376,5.0302,4.9782,4.9447,4.9364,4.9191,4.9163,4.9395,4.946,4.959,4.9626,4.9476,4.9329,4.9034,4.8999,4.8759,4.8687,4.89,4.8983,4.8975,4.8777,4.8686,4.8573,4.8187,4.7646,4.754,4.7193,4.6676,4.637,4.5878,4.5615,4.5537,4.5363,4.5169,4.5134,4.4928,4.4962,4.4859,4.4962,4.5057,4.5147,4.5182,4.5182,4.5238,4.5169,4.4561,4.4,4.3655,4.3034,4.224,4.1573,4.14,4.1193,4.1228,4.1435,4.1999,4.2275,4.2112,4.1997,4.2078,4.2332,4.2733,4.2711,4.2398,6.1113,6.1113,6.1113,6.1113,6.1113,6.1113,6.1113,6.1113,6.1113,6.1113,6.1113,6.1113,6.1113,6.1113,6.1113,6.1113,6.1113,6.1113,6.1113,6.1031,6.0848,6.0354,5.9754,5.9557,5.8726,5.7977,5.7768,5.6515,5.5298,5.4731,5.4352,5.4147,5.3944,5.3794,5.3794,5.3794,5.3757,5.3645,5.3608,5.3237,5.2494,5.1853,5.1602,5.1528,5.1565,5.1602,5.1714,5.1714,5.1676,5.1565,5.1379,5.1268,5.1231,5.1193,5.1119,5.0896,5.0553,5.0284,5.0776,5.0804,5.0795,5.0739,5.0859,5.0627,5.0089,4.9449,4.9144,4.8901,4.9478,4.9868,5.0027,5.0398,5.0629,5.0421,4.9941,4.9563,4.9295,4.8253,4.7737,4.7255,4.685,4.6147,4.5732,4.5558,4.5397,4.5397,4.5397,4.541,4.5397,4.5397,4.5397,4.5397,4.5397,4.5397,4.5397,4.5397,4.5169,4.454,4.4069,4.3655,4.293,4.2159,4.155,4.1378,4.1343,4.1205,4.1378,4.155,4.1619,4.1723,4.1711,4.2297,4.3,4.2758,4.2206,6.113,6.1113,6.1113,6.1113,6.1113,6.1113,6.1113,6.1113,6.1113,6.1113,6.1113,6.1113,6.1113,6.1113,6.1113,6.1113,6.1113,6.1113,6.1113,6.1113,6.107,6.0848,6.0552,6.031,5.9776,5.9127,5.8684,5.7971,5.6586,5.5607,5.512,5.4725,5.4177,5.3794,5.3887,5.3831,5.3794,5.3794,5.3757,5.3645,5.3274,5.294,5.2717,5.2717,5.2717,5.2679,5.2679,5.2744,5.2754,5.2679,5.2419,5.2085,5.1936,5.1714,5.1528,5.2048,5.1788,5.1528,5.1416,5.1454,5.1491,5.1416,5.1416,5.1156,5.0822,5.0488,5.0265,5.0339,5.0627,5.0813,5.0813,5.112,5.1222,5.1222,5.1253,5.0792,5.0324,4.9586,4.8827,4.8353,4.7844,4.7168,4.6516,4.6182,4.5914,4.5515,4.5502,4.5476,4.5437,4.5397,4.5397,4.5397,4.5397,4.5397,4.5397,4.5397,4.5397,4.4941,4.4436,4.3988,4.3517,4.2861,4.224,4.1585,4.1343,4.117,4.0963,4.1032,4.1274,4.1343,4.1378,4.1826,4.2206,4.1895,4.1447,6.1165,6.1118,6.1113,6.1113,6.1113,6.1113,6.1113,6.1113,6.1113,6.1113,6.1113,6.1113,6.1113,6.1113,6.1113,6.1113,6.1113,6.1113,6.1113,6.1113,6.1113,6.1075,6.092,6.0836,6.0524,5.9979,5.9854,5.9284,5.8425,5.7408,5.6549,5.573,5.4783,5.4326,5.413,5.3934,5.3794,5.3794,5.3794,5.3757,5.372,5.372,5.372,5.3757,5.3794,5.3794,5.3794,5.372,5.372,5.3571,5.32,5.2902,5.2828,5.2531,5.2447,5.2782,5.2782,5.2605,5.2345,5.2197,5.2011,5.1936,5.1751,5.1788,5.1676,5.1602,5.1379,5.1193,5.1565,5.1639,5.1751,5.1862,5.2178,5.2197,5.2094,5.1578,5.1126,5.0594,5.0044,4.9578,4.9053,4.8402,4.7754,4.7124,4.6514,4.5827,4.5572,4.5581,4.5528,4.5502,4.5423,4.5437,4.541,4.541,4.5397,4.5397,4.5397,4.5307,4.4837,4.4402,4.3919,4.347,4.2884,4.2275,4.1654,4.1447,4.1435,4.1159,4.0894,4.1032,4.1136,4.1032,4.1067,4.0894,4.0929,6.1169,6.1113,6.1079,6.1079,6.1113,6.1113,6.1113,6.1113,6.1113,6.1113,6.1113,6.1113,6.1113,6.1113,6.1113,6.1113,6.1113,6.1113,6.1113,6.1113,6.1113,6.1113,6.106,6.1051,6.1003,6.0887,6.0707,6.059,6.0332,5.9209,5.813,5.7016,5.5911,5.5415,5.4941,5.4457,5.3934,5.3841,5.3794,5.3794,5.3794,5.3794,5.3794,5.3794,5.3794,5.3794,5.3794,5.3794,5.3794,5.3794,5.3645,5.3534,5.346,5.3348,5.3376,5.345,5.3487,5.3385,5.3274,5.3237,5.3497,5.3385,5.3014,5.2531,5.2494,5.1825,5.1528,5.1714,5.2271,5.2494,5.2717,5.3051,5.3153,5.3153,5.2948,5.2831,5.2371,5.182,5.1304,5.0825,5.0271,4.9648,4.9082,4.8473,4.7623,4.6901,4.6253,4.6193,4.5774,4.5641,4.5507,4.5441,4.545,4.5423,4.541,4.5397,4.5397,4.5397,4.5134,4.4768,4.4402,4.3953,4.3436,4.3,4.2413,4.2125,4.1745,4.1297,4.0963,4.0929,4.0894,4.0894,4.0894,4.0894,4.0894,6.1324,6.1287,6.1191,6.1134,6.1113,6.1113,6.1113,6.1113,6.1113,6.1113,6.1113,6.1113,6.1113,6.1113,6.1113,6.1113,6.1113,6.1113,6.1113,6.1113,6.1113,6.1113,6.1113,6.1113,6.1075,6.1113,6.1109,6.0997,6.0674,6.0299,5.9995,5.8876,5.7351,5.6596,5.5999,5.5285,5.455,5.3962,5.385,5.3831,5.3794,5.3794,5.3794,5.3794,5.3794,5.3794,5.3794,5.3794,5.3794,5.3831,5.3831,5.3905,5.398,5.398,5.398,5.3943,5.398,5.398,5.3905,5.3868,5.3794,5.3747,5.3487,5.3311,5.3237,5.2977,5.2902,5.3051,5.3051,5.32,5.3385,5.3571,5.3683,5.3794,5.3764,5.3684,5.3367,5.2737,5.2316,5.1749,5.1367,5.0916,5.0389,4.9884,4.8924,4.8013,4.7365,4.674,4.636,4.5968,4.5876,4.5705,4.5692,4.5554,4.5502,4.5463,4.541,4.5397,4.5397,4.5134,4.4803,4.4367,4.3919,4.3517,4.3034,4.2551,4.1999,4.1343,4.1032,4.0963,4.0929,4.0894,4.0894,4.0894,4.0894,6.1447,6.1381,6.1287,6.1212,6.1125,6.1089,6.1113,6.1113,6.1113,6.1113,6.1113,6.1113,6.1113,6.1113,6.1113,6.1113,6.1113,6.1113,6.1113,6.1113,6.1113,6.1113,6.1113,6.1113,6.1113,6.1113,6.1109,6.1007,6.0931,6.0915,6.0629,6.0003,5.914,5.8289,5.734,5.6476,5.5469,5.4691,5.4372,5.4112,5.4074,5.3851,5.3794,5.3794,5.3794,5.3794,5.3794,5.3831,5.398,5.4119,5.423,5.4342,5.45,5.4574,5.4574,5.4527,5.4527,5.4527,5.4453,5.4017,5.3868,5.3794,5.3794,5.3757,5.3794,5.3794,5.3571,5.3645,5.372,5.3794,5.3794,5.3794,5.3794,5.3794,5.3794,5.3725,5.3635,5.3222,5.2952,5.2612,5.2282,5.1859,5.1443,5.0843,4.9933,4.9022,4.8294,4.7671,4.7119,4.6786,4.6488,4.6261,4.6037,4.5844,4.5598,4.5632,4.5641,4.5397,4.5397,4.5397,4.51,4.4734,4.4561,4.4423,4.385,4.2953,4.2551,4.2344,4.1688,4.0998,4.0929,4.0894,4.0894,4.0894,4.0894,6.145,6.1388,6.1384,6.1337,6.122,6.1121,6.1079,6.1118,6.1113,6.1113,6.1113,6.1113,6.1113,6.1113,6.1113,6.1113,6.1113,6.1113,6.1113,6.1113,6.1113,6.1113,6.1113,6.1113,6.1113,6.1113,6.1113,6.1104,6.109,6.1032,6.0946,6.0834,6.0269,5.9683,5.8887,5.7946,5.6956,5.6147,5.5708,5.522,5.4767,5.4472,5.4381,5.4186,5.4112,5.4149,5.3917,5.3999,5.4277,5.4639,5.4936,5.5233,5.5763,5.5874,5.5912,5.5949,5.6013,5.605,5.6097,5.4686,5.4203,5.4128,5.4277,5.4017,5.3896,5.3822,5.3794,5.3794,5.3794,5.3794,5.3794,5.3794,5.3794,5.3794,5.3794,5.3765,5.3676,5.3635,5.3345,5.3066,5.2872,5.2624,5.2232,5.1718,5.0856,5.0042,4.9288,4.8624,4.8057,4.7856,4.769,4.7725,4.7476,4.6727,4.6538,4.6066,4.5856,4.5589,4.5437,4.5463,4.5437,4.5203,4.5134,4.5216,4.4561,4.3621,4.3517,4.3552,4.2447,4.1343,4.0998,4.0894,4.0894,4.0894,4.0894,6.157,6.1512,6.1472,6.1438,6.1359,6.1236,6.1143,6.1084,6.1113,6.1113,6.1113,6.1113,6.1113,6.1113,6.1113,6.1113,6.1113,6.1113,6.1113,6.1113,6.1113,6.1113,6.1113,6.1113,6.1113,6.1113,6.1113,6.1113,6.1109,6.1113,6.1065,6.1007,6.0874,6.0238,5.9294,5.8502,5.8027,5.719,5.6868,5.6672,5.6382,5.6142,5.5793,5.5258,5.5053,5.4733,5.4342,5.4513,5.4834,5.5233,5.553,5.605,5.6395,5.6469,5.6432,5.6357,5.6357,5.632,5.6283,5.5652,5.5503,5.5317,5.4899,5.4639,5.4602,5.4054,5.3905,5.3831,5.3831,5.3831,5.3794,5.3794,5.3794,5.3794,5.3794,5.3794,5.3764,5.3735,5.3561,5.3328,5.3093,5.2948,5.2635,5.2384,5.1668,5.125,5.0593,4.977,4.9079,4.9277,4.9312,4.959,4.9376,4.8319,4.7558,4.7106,4.6532,4.6155,4.5856,4.5585,4.5533,4.5598,4.5481,4.5442,4.4859,4.4276,4.4138,4.3746,4.2642,4.1745,4.1364,4.0997,4.0894,4.0894,4.0894,6.1568,6.1602,6.157,6.1696,6.1813,6.1407,6.1169,6.1127,6.1113,6.1113,6.1113,6.1113,6.1113,6.1113,6.1113,6.1113,6.1113,6.1113,6.1113,6.1113,6.1113,6.1113,6.1113,6.1113,6.1113,6.1113,6.1113,6.1113,6.1113,6.1113,6.1109,6.1104,6.1075,6.0632,5.9967,5.9672,5.929,5.8591,5.8196,5.7846,5.7544,5.7277,5.7013,5.651,5.6111,5.5769,5.5392,5.538,5.5577,5.5921,5.632,5.6878,5.6952,5.71,5.7138,5.7138,5.7138,5.7165,5.7202,5.7202,5.7138,5.71,5.6125,5.553,5.5307,5.475,5.4426,5.424,5.4017,5.3905,5.3905,5.3905,5.3943,5.398,5.3943,5.398,5.423,5.4238,5.4283,5.3991,5.3652,5.3393,5.3082,5.285,5.2467,5.2209,5.1902,5.1066,5.0243,5.045,5.0747,5.1062,5.0783,4.9604,4.8739,4.8208,4.7571,4.6847,4.65,4.6189,4.6121,4.622,4.5948,4.5644,4.5249,4.4839,4.4487,4.3919,4.3247,4.2447,4.1668,4.1292,4.0974,4.0917,4.0905,6.1646,6.1607,6.1646,6.2045,6.2483,6.1624,6.1191,6.1089,6.1084,6.1084,6.1113,6.1113,6.1113,6.1113,6.1113,6.1113,6.1113,6.1113,6.1113,6.1113,6.1113,6.1113,6.1113,6.1113,6.1113,6.1113,6.1113,6.1113,6.1113,6.1113,6.1113,6.1113,6.1113,6.0906,6.0799,6.0663,6.029,5.9743,5.9419,5.9028,5.8655,5.8133,5.7929,5.7581,5.7223,5.6916,5.6625,5.6519,5.6795,5.7134,5.7502,5.7965,5.8316,5.865,5.8687,5.8613,5.8539,5.8465,5.839,5.8316,5.8353,5.8093,5.7202,5.6607,5.6087,5.5567,5.5169,5.4909,5.4723,5.4342,5.4119,5.4156,5.423,5.423,5.423,5.4453,5.4834,5.501,5.5122,5.4914,5.4533,5.4172,5.3701,5.3403,5.3407,5.2982,5.2698,5.2453,5.1776,5.1552,5.1903,5.2386,5.1872,5.0746,4.9992,4.9517,4.8612,4.7899,4.7491,4.7209,4.7077,4.6774,4.6543,4.6209,4.5822,4.5523,4.5401,4.5008,4.4391,4.3516,4.2555,4.1948,4.1736,4.1054,4.0927,6.2698,6.1685,6.227,6.2299,6.1926,6.1579,6.1317,6.1191,6.1182,6.1152,6.1113,6.1113,6.1113,6.1113,6.1113,6.1113,6.1113,6.1113,6.1113,6.1113,6.1113,6.1113,6.1113,6.1113,6.1113,6.1113,6.1113,6.1113,6.1113,6.1113,6.1113,6.1113,6.1113,6.1113,6.1113,6.1113,6.0872,6.0693,6.047,6.0171,5.9986,5.9702,5.9375,5.893,5.8518,5.8174,5.7734,5.7583,5.7753,5.7829,5.8219,5.856,5.8613,5.8687,5.8687,5.8687,5.865,5.865,5.8687,5.8687,5.8687,5.8687,5.813,5.7722,5.7165,5.6506,5.5986,5.5763,5.5503,5.5196,5.5122,5.5122,5.5159,5.5122,5.5159,5.5345,5.5679,5.5689,5.58,5.5689,5.5317,5.5129,5.4633,5.4438,5.4357,5.3833,5.3437,5.3279,5.3004,5.2673,5.2663,5.3142,5.2923,5.1784,5.1459,5.103,4.9959,4.9018,4.8575,4.8036,4.7493,4.7198,4.7044,4.6795,4.6506,4.6483,4.6564,4.6012,4.5363,4.4562,4.3662,4.3039,4.2476,4.2178,4.1705,6.3244,6.262,6.2426,6.2075,6.1758,6.2274,6.2277,6.1829,6.1407,6.1186,6.1134,6.1132,6.1113,6.1113,6.1113,6.1113,6.1113,6.1113,6.1113,6.1113,6.1089,6.1113,6.1113,6.1113,6.1113,6.1113,6.1113,6.1113,6.1113,6.1113,6.1113,6.1113,6.1113,6.1113,6.1113,6.1113,6.1113,6.1036,6.1022,6.1046,6.1007,6.1005,6.0562,6.0184,5.9754,5.928,5.8828,5.8776,5.8647,5.8573,5.8903,5.8875,5.8805,5.876,5.8687,5.8687,5.8687,5.8687,5.8687,5.8687,5.8687,5.8687,5.8687,5.839,5.7918,5.7286,5.6952,5.6692,5.6432,5.6246,5.6283,5.6283,5.6283,5.6246,5.631,5.6385,5.6385,5.6395,5.6357,5.632,5.6209,5.6134,5.5892,5.5679,5.526,5.4635,5.416,5.3938,5.3608,5.3205,5.3162,5.3413,5.335,5.2893,5.2635,5.2223,5.1256,5.0228,4.961,4.8972,4.8164,4.7803,4.7804,4.7542,4.7223,4.7201,4.7132,4.6829,4.6246,4.5522,4.5045,4.4623,4.4425,4.4519,4.3933,6.3556,6.3906,6.2426,6.1997,6.2036,6.3395,6.3561,6.2846,6.196,6.1407,6.1379,6.1195,6.1147,6.1182,6.1156,6.116,6.1173,6.1177,6.1152,6.1112,6.1143,6.1134,6.1123,6.1113,6.1113,6.1113,6.1113,6.1113,6.1113,6.1113,6.1113,6.1113,6.1113,6.1113,6.1113,6.1113,6.1113,6.1113,6.1113,6.106,6.1027,6.0992,6.0951,6.0845,6.0582,6.0328,6.0214,6.0007,5.9755,5.9551,5.9352,5.9169,5.8975,5.8912,5.8821,5.8719,5.8739,5.8719,5.8708,5.8687,5.8687,5.8687,5.8687,5.8613,5.8242,5.7955,5.7647,5.7536,5.7313,5.7165,5.7165,5.7175,5.7138,5.7127,5.7165,5.7313,5.7387,5.7313,5.7212,5.7212,5.7286,5.7127,5.6617,5.6357,5.605,5.5382,5.4787,5.4527,5.4116,5.3642,5.3645,5.3716,5.3526,5.3447,5.3368,5.2916,5.2353,5.1538,5.0704,5.0,4.9241,4.8879,4.8601,4.828,4.7919,4.7648,4.7482,4.7332,4.7265,4.6881,4.6467,4.6225,4.6197,4.6308,4.5983,6.5114,6.4101,6.3672,6.3475,6.3517,6.3945,6.4018,6.3772,6.3541,6.2968,6.2281,6.1709,6.1369,6.1405,6.1405,6.1379,6.1307,6.1269,6.1298,6.1239,6.124,6.1195,6.1146,6.1132,6.1118,6.1113,6.1113,6.1113,6.1113,6.1113,6.1113,6.1113,6.1113,6.1113,6.1113,6.1113,6.1113,6.1113,6.1113,6.1109,6.1056,6.1022,6.0977,6.0974,6.0834,6.0816,6.0677,6.0463,6.03,6.0151,5.9704,5.9388,5.9024,5.9092,5.8965,5.8801,5.8852,5.8832,5.876,5.8708,5.8687,5.8687,5.8687,5.8687,5.8613,5.8502,5.839,5.8279,5.8205,5.8093,5.7982,5.7982,5.7992,5.7982,5.7982,5.8167,5.8316,5.8167,5.8019,5.8093,5.8242,5.7918,5.7398,5.7026,5.6729,5.6087,5.5307,5.4778,5.435,5.3946,5.403,5.4033,5.3793,5.369,5.371,5.3487,5.2902,5.2308,5.151,5.0878,5.0217,4.9443,4.8762,4.8798,4.8569,4.8271,4.8175,4.8365,4.8234,4.7866,4.7704,4.7415,4.7441,4.7534,4.7338,6.5774,6.5229,6.4839,6.4473,6.4226,6.454,6.4712,6.4735,6.4708,6.4414,6.3813,6.2981,6.2345,6.2065,6.1974,6.1675,6.1513,6.1412,6.137,6.1364,6.1295,6.1259,6.1216,6.1159,6.1123,6.1113,6.1113,6.1113,6.1113,6.1113,6.1113,6.1113,6.1113,6.1113,6.1113,6.1113,6.1152,6.1113,6.1157,6.1152,6.1152,6.109,6.1022,6.1041,6.1016,6.1023,6.0965,6.0777,6.0681,6.0463,6.0079,5.9717,5.9441,5.9399,5.9253,5.9072,5.8975,5.8972,5.8862,5.8781,5.8729,5.8729,5.8698,5.8708,5.8687,5.8576,5.8576,5.8502,5.8502,5.839,5.839,5.839,5.839,5.839,5.839,5.8465,5.8539,5.8465,5.839,5.8427,5.8502,5.8438,5.8066,5.8029,5.7658,5.7053,5.6199,5.5753,5.5166,5.4516,5.4545,5.4481,5.4258,5.3933,5.3757,5.3645,5.3348,5.2791,5.2234,5.1342,5.0459,4.9522,4.8873,4.9032,4.9061,4.8794,4.8785,4.9071,4.8859,4.844,4.8457,4.852,4.8574,4.8517,4.8184,6.6016,6.653,6.5869,6.5209,6.4674,6.534,6.567,6.5651,6.5657,6.5658,6.5498,6.4696,6.3819,6.3138,6.2835,6.2236,6.189,6.1877,6.1732,6.1417,6.1325,6.1295,6.124,6.1178,6.1112,6.1113,6.1113,6.1113,6.1113,6.1113,6.1113,6.1113,6.1118,6.1157,6.1234,6.1311,6.1461,6.166,6.166,6.1389,6.1273,6.1157,6.109,6.1027,6.1007,6.1021,6.1029,6.0971,6.0883,6.0645,6.032,5.9931,5.9706,5.9601,5.9452,5.9299,5.9178,5.912,5.9024,5.8942,5.8872,5.8811,5.877,5.877,5.8781,5.8764,5.8764,5.8764,5.8764,5.8719,5.8719,5.8687,5.8687,5.8687,5.8687,5.8698,5.8698,5.8698,5.8708,5.8708,5.8708,5.8671,5.8661,5.8661,5.8364,5.7806,5.7387,5.7016,5.6496,5.577,5.5362,5.5186,5.4963,5.4564,5.3998,5.3757,5.3608,5.32,5.2568,5.1639,5.0748,5.0051,4.9605,4.9513,4.9476,4.9393,4.9476,4.9718,4.9403,4.9228,4.8826,4.8855,4.9122,4.9003,4.879,6.6553,6.6679,6.6523,6.6358,6.6309,6.6468,6.6548,6.6555,6.6523,6.6562,6.6444,6.6281,6.5465,6.3905,6.3771,6.3346,6.2733,6.2578,6.2027,6.1647,6.174,6.1531,6.1377,6.1432,6.118,6.1152,6.1191,6.1113,6.1191,6.1152,6.1118,6.1195,6.1234,6.1543,6.2124,6.224,6.2394,6.2511,6.2278,6.2008,6.1814,6.1582,6.1152,6.1065,6.1065,6.1094,6.106,6.0915,6.0817,6.0681,6.0424,6.006,5.9874,5.9769,5.9664,5.949,5.9373,5.9327,5.9234,5.914,5.911,5.9082,5.9082,5.9092,5.9083,5.9131,5.9131,5.9084,5.9017,5.8835,5.8774,5.8719,5.8687,5.8698,5.8708,5.8729,5.8739,5.876,5.8781,5.8781,5.8781,5.876,5.8739,5.8729,5.8719,5.8188,5.7796,5.7462,5.735,5.6783,5.6216,5.5993,5.577,5.484,5.4116,5.3998,5.3822,5.346,5.2977,5.2122,5.1388,5.0775,5.0431,5.0302,5.0228,5.0182,5.0302,5.0376,5.0553,5.0331,4.9324,4.9039,4.9406,4.9628,4.9537]}]]